GFSMA_2pvu_pres_000.txt.gz
Presure
119 94 107 105 110 129 127 135 203 155 160 177 177 161 175 196 165 164 135 139 131 137 97 159 154 161 164 166 170 191 166 164 174 192 176 172 172 172 169 120 158 135 147
106 225 170 124 118 118 119 120 126 151 178 185 179 175 170 175 172 162 120 147 170 157 106 151 160 168 164 170 172 168 144 169 171 170 172 170 156 128 131 125 162 129 150
101 211 235 222 214 206 152 197 200 128 131 136 185 178 173 170 169 152 110 121 167 95 100 172 110 149 170 177 160 153 163 171 171 174 176 178 177 156 127 127 152 138 152
140 234 196 215 207 193 204 205 195 200 189 161 190 185 144 141 127 137 113 149 156 97 182 179 168 162 160 154 154 149 150 144 184 183 152 135 137 158 147 138 144 157 174
222 226 197 196 206 201 144 172 196 186 174 181 180 189 149 140 130 110 110 102 169 170 161 159 161 158 167 165 157 150 161 162 140 166 131 174 164 146 145 149 177 177 173
223 214 208 197 180 196 165 193 193 192 185 185 180 171 167 208 177 128 196 199 198 193 187 195 181 158 178 199 188 187 169 188 189 185 172 180 173 176 171 173 178 180 160
217 207 202 204 209 208 205 204 204 203 202 205 204 210 207 206 206 208 207 205 205 205 208 206 210 202 198 200 203 206 208 211 209 210 210 212 215 214 212 209 204 201 200
207 211 199 196 194 193 194 194 193 192 191 192 192 192 192 193 185 185 187 187 190 188 186 186 187 183 183 188 188 185 178 184 186 177 181 178 176 184 193 195 220 217 194
182 185 185 185 186 186 186 184 181 181 188 188 182 178 158 179 174 196 175 191 202 180 195 183 194 197 157 199 201 198 170 204 202 202 209 207 206 207 208 208 134 133 172
185 184 183 131 180 178 175 171 182 183 190 179 181 176 178 195 174 183 187 178 185 183 188 188 193 192 200 200 203 211 211 209 213 213 154 216 151 129 128 205 221 162 222
179 180 177 170 163 182 167 181 177 176 180 179 185 185 191 197 197 167 179 183 181 180 184 193 198 202 237 197 206 249 128 127 124 140 150 141 242 243 246 169 207 252 258
179 177 172 166 172 171 182 175 185 177 190 172 185 172 174 184 189 191 195 179 177 189 189 193 198 222 256 258 173 253 255 254 253 252 250 249 251 231 190 213 249 207 209
174 179 160 179 187 183 175 180 188 188 176 182 174 171 164 192 200 206 226 216 201 254 262 185 258 258 245 234 239 241 244 172 146 168 81 215 240 221 219 203 217 215 208
186 173 183 177 179 179 181 160 183 178 165 165 170 189 205 233 234 219 247 275 264 134 210 250 263 260 239 235 224 231 170 154 182 211 213 223 227 233 233 235 237 238 229
181 161 176 173 178 182 177 183 177 176 193 195 207 246 233 222 224 262 251 232 272 264 233 228 223 222 212 221 129 210 205 216 224 227 228 180 247 254 256 257 260 264 297
177 175 180 182 179 177 178 203 204 192 228 248 241 229 204 195 254 236 259 238 238 202 183 197 216 219 109 205 214 135 226 235 250 350 208 250 480 482 483 479 473 470 487
168 177 188 200 198 197 184 199 245 264 250 235 217 247 258 230 254 235 230 196 223 225 232 222 124 161 112 225 222 242 477 489 478 469 462 456 458 457 450 449 449 448 315
179 190 185 172 191 201 218 276 264 155 228 217 254 249 189 229 228 214 223 224 225 206 210 153 213 229 243 502 491 482 472 465 456 442 433 433 423 419 414 478 489 504 510
177 177 193 195 203 233 274 259 213 214 230 168 247 265 222 167 219 220 212 214 207 222 226 234 517 500 494 483 474 458 448 427 407 399 420 539 526 521 512 493 419 422 487
188 192 200 210 190 197 177 163 217 246 248 251 187 152 201 216 204 170 214 215 230 262 476 492 483 471 463 443 440 420 389 388 465 483 472 481 489 491 446 451 378 380 433
192 200 149 269 250 237 214 237 251 242 242 147 157 211 204 208 210 217 231 257 359 493 475 453 442 444 423 411 399 385 445 454 443 448 419 360 367 375 370 365 367 373 378
200 216 268 236 225 224 244 246 282 203 147 211 207 207 206 214 225 241 350 470 473 453 443 486 496 492 477 434 392 488 444 424 342 357 370 348 359 357 359 358 362 361 364
217 134 209 154 249 247 236 271 146 213 201 205 203 218 224 234 311 361 482 461 463 493 496 503 539 545 547 522 481 433 347 347 364 341 338 342 355 349 347 343 351 355 367
240 231 215 244 246 247 215 216 197 204 181 208 223 232 273 313 360 472 470 502 492 502 509 514 522 510 482 455 384 333 357 329 329 340 336 338 340 342 338 339 342 358 444
216 223 247 238 278 234 177 195 199 199 215 224 229 300 322 349 466 496 492 474 559 555 541 491 465 443 413 339 380 326 326 329 331 333 335 339 351 355 336 340 348 360 367
240 246 247 268 201 170 152 194 209 221 227 278 299 321 341 455 491 479 459 576 558 459 439 416 410 348 341 347 330 326 332 336 336 337 342 342 344 348 328 336 347 360 351

GFSMA_2pvu_pres_003.txt.gz
Presure
87 138 95 135 94 99 213 237 227 218 212 161 130 150 150 147 135 182 183 179 178 173 174 153 110 135 141 96 163 102 164 164 165 142 162 154 178 192 172 173 192 177 173
85 184 173 90 214 227 216 229 224 142 189 176 151 160 189 202 172 156 158 180 143 146 174 171 127 110 99 97 164 170 171 175 153 175 195 192 194 195 198 197 170 172 173
80 101 101 90 224 230 223 226 217 214 140 201 151 167 196 191 139 188 193 195 183 180 142 141 142 102 98 154 158 162 175 180 163 161 159 153 153 152 164 171 176 179 177
102 172 188 133 203 193 222 217 217 141 195 197 160 186 144 199 189 176 180 181 183 180 195 116 103 114 168 164 140 173 178 163 164 166 171 173 168 162 148 140 164 165 165
143 192 211 228 223 220 215 206 204 206 210 206 205 173 206 203 205 212 165 215 211 210 179 201 210 210 210 206 203 201 200 200 201 190 186 188 187 186 183 181 171 172 142
177 206 194 200 217 218 206 204 204 198 196 196 196 194 192 193 195 196 194 193 194 191 189 184 185 187 185 186 196 195 192 191 191 194 195 198 197 203 213 215 207 197 179
182 187 198 192 189 194 190 185 190 183 182 194 189 189 185 183 184 191 189 187 187 183 191 178 183 189 181 179 188 185 184 185 189 194 193 140 187 187 188 143 189 189 185
174 191 173 193 192 183 182 181 178 180 183 180 182 175 186 176 170 182 171 174 177 176 177 178 171 189 188 127 188 197 179 179 183 181 188 197 200 201 203 183 209 210 183
188 176 187 186 133 184 144 146 185 179 181 181 176 170 179 177 175 170 188 179 190 175 179 180 186 185 195 199 195 195 201 202 195 194 203 204 204 202 200 202 161 125 126
162 183 189 180 179 180 147 173 183 172 167 167 178 187 158 182 168 180 180 186 174 167 182 187 183 185 191 193 211 205 205 234 226 215 217 222 220 134 143 123 126 127 130
191 193 180 182 177 179 171 180 178 169 177 183 178 181 174 164 162 170 151 176 187 179 184 179 178 192 215 213 215 227 231 154 211 243 265 262 211 187 248 268 270 268 265
185 188 181 175 182 170 178 187 184 175 186 173 181 171 182 182 186 183 172 170 162 150 168 228 212 207 226 234 243 223 260 259 194 163 230 250 254 257 257 253 205 121 125
192 181 179 182 183 170 173 180 173 177 173 180 186 201 203 199 202 258 248 194 214 237 226 225 246 252 252 254 256 252 215 272 257 236 238 239 239 187 191 239 238 239 241
186 174 189 177 116 181 179 174 179 180 188 190 184 190 201 283 292 255 249 240 229 257 259 253 248 242 260 247 236 232 226 225 228 228 226 153 220 230 226 217 217 221 224
174 175 173 182 183 171 179 177 176 179 182 188 204 227 290 258 239 227 262 263 264 262 303 228 213 212 209 220 222 225 225 226 226 227 223 223 231 236 241 243 245 249 252
180 188 188 185 179 174 172 177 177 190 192 204 239 263 177 229 254 259 249 252 229 193 187 208 218 219 64 218 215 142 183 188 246 253 258 262 262 355 356 372 482 483 484
185 186 182 172 171 173 177 189 189 193 203 235 265 232 230 153 236 253 280 216 219 220 224 213 209 151 155 231 242 192 426 499 490 485 475 469 465 457 454 452 122 362 448
178 179 171 174 173 180 186 188 193 204 231 258 217 258 254 242 281 212 220 154 211 211 221 237 239 142 322 488 490 483 472 463 460 453 444 438 432 423 420 418 465 492 545
173 172 177 180 189 181 189 189 209 232 257 220 262 246 255 229 207 200 203 208 213 143 236 254 353 394 489 508 510 505 493 487 473 445 422 416 409 419 464 481 480 462 463
175 183 175 191 185 193 190 211 232 199 200 238 255 270 212 215 197 184 217 232 233 256 340 356 488 516 504 491 509 535 524 493 490 457 414 406 461 443 376 368 370 367 366
177 187 185 192 185 141 210 231 245 226 258 248 275 216 210 174 216 197 234 251 313 337 467 491 504 485 577 572 562 534 552 544 500 451 454 436 371 353 367 359 354 358 359
190 125 193 183 182 207 215 223 242 259 262 227 214 169 171 164 227 236 268 317 344 461 488 498 592 581 575 565 514 482 462 447 413 427 371 342 366 341 342 349 347 348 351
190 193 182 197 210 211 218 253 271 271 209 209 204 217 223 229 243 311 320 371 450 508 593 515 493 475 446 443 433 427 398 378 357 373 335 330 329 343 347 349 353 348 345
191 180 205 221 226 223 260 268 233 207 184 161 218 222 229 276 308 325 375 464 606 595 483 437 426 412 434 370 354 390 424 375 331 327 328 333 333 334 339 339 353 344 338
192 204 203 213 230 259 272 205 157 189 176 221 224 230 297 301 323 366 453 497 573 462 502 407 374 354 340 397 345 325 325 328 333 332 331 330 333 348 355 345 357 333 341
164 199 216 246 270 249 152 204 153 210 216 217 256 292 300 319 357 453 485 469 460 448 386 358 352 393 343 324 317 317 316 321 321 322 321 331 339 356 358 360 350 335 342

GFSMA_2pvu_pres_006.txt.gz
Presure
89 99 85 89 79 93 97 122 182 191 238 231 229 214 195 203 157 151 177 154 186 202 185 198 162 191 181 144 146 171 150 99 97 162 174 172 171 172 175 168 164 173 161
95 110 87 105 107 84 184 97 189 235 217 233 221 217 215 206 206 204 176 173 144 167 160 193 176 200 194 189 183 141 131 102 142 144 152 155 160 171 178 179 166 163 166
183 78 109 94 85 105 187 193 205 237 231 222 214 217 218 220 209 205 209 157 203 203 205 214 215 214 216 218 107 212 198 191 189 183 179 175 138 157 178 162 164 164 165
168 170 83 92 99 109 144 196 197 222 222 206 215 208 202 200 197 195 195 194 195 196 197 202 198 194 195 200 199 201 196 193 197 208 207 203 204 203 198 182 159 176 203
107 99 111 119 108 109 142 205 203 180 207 197 183 191 188 189 185 185 185 184 184 183 185 187 186 183 182 182 181 185 178 191 189 184 184 200 186 197 197 205 203 205 202
117 197 181 117 108 110 109 194 194 113 191 192 187 191 190 192 191 189 190 181 186 183 182 184 194 189 181 194 193 189 189 182 183 188 184 183 181 185 191 197 189 193 190
93 115 103 186 106 110 111 190 186 187 192 191 187 172 185 182 180 183 191 188 185 184 183 185 192 182 197 186 177 190 174 173 181 173 170 193 190 175 173 196 179 183 185
108 98 102 109 111 140 192 200 176 193 173 185 178 170 175 188 181 169 178 175 173 188 191 182 185 183 191 184 185 195 192 189 188 190 195 195 192 195 195 198 205 181 174
110 221 110 109 111 193 187 161 179 190 176 181 178 185 183 181 182 178 185 188 179 181 178 190 200 205 203 200 195 202 207 200 201 190 182 185 193 207 213 228 220 210 209
126 111 194 112 164 194 180 182 190 182 182 181 183 181 186 183 169 163 174 178 176 189 193 190 190 200 185 184 266 252 246 253 207 211 237 246 239 231 230 232 234 232 233
210 213 199 192 193 180 190 188 188 186 181 188 183 182 181 180 173 175 164 151 180 170 174 282 260 249 235 230 231 231 229 231 230 232 233 232 233 234 228 229 231 272 277
204 198 196 182 184 180 191 185 192 180 182 184 175 181 181 180 178 175 178 191 184 203 272 233 230 229 234 248 248 237 229 230 254 255 256 268 258 261 263 258 216 171 174
197 196 184 191 183 190 185 193 187 191 175 182 182 178 172 184 180 188 195 208 235 268 237 216 243 258 250 244 257 175 221 263 261 259 256 256 253 249 211 246 249 251 250
195 191 186 192 193 200 197 191 177 189 193 191 180 180 184 188 187 199 217 242 267 207 268 262 250 259 281 268 256 247 238 228 228 227 224 226 228 229 230 233 210 205 239
188 182 184 196 192 182 187 175 190 188 183 172 181 190 183 198 197 203 139 258 235 277 256 281 273 235 221 154 216 219 215 214 213 215 222 226 231 240 243 243 236 230 231
192 190 192 192 180 165 186 191 183 177 176 185 189 188 194 202 209 236 222 257 265 272 278 222 147 196 186 212 228 167 235 251 302 443 508 505 498 485 473 469 474 478 484
197 192 193 185 188 192 192 184 176 179 189 185 199 189 200 213 235 156 248 286 271 237 225 209 212 226 236 192 205 169 376 493 509 518 507 496 496 503 502 485 459 446 452
199 197 180 186 189 180 178 172 189 189 158 202 137 190 177 223 217 268 270 248 221 167 216 230 238 238 267 327 351 474 591 611 600 590 570 540 540 533 506 497 487 468 460
186 192 196 183 174 177 175 191 141 193 198 126 205 214 219 227 268 251 201 218 210 221 235 248 270 330 330 514 633 603 590 591 584 570 562 545 547 513 495 491 483 447 455
189 184 177 173 180 186 194 166 200 193 161 208 223 207 251 276 254 198 189 201 225 240 253 280 337 392 635 593 466 458 466 474 476 484 483 480 487 481 473 475 455 419 369
180 177 174 181 191 175 189 201 178 197 205 228 213 273 272 235 167 186 214 230 244 267 319 341 488 532 483 441 434 445 452 447 438 456 389 405 371 359 361 358 357 352 348
173 183 184 165 190 182 200 189 204 210 261 219 273 257 217 213 204 222 235 244 271 331 347 516 505 517 420 416 441 402 350 445 447 466 362 343 332 334 333 341 348 358 360
184 151 192 190 186 191 194 168 221 249 246 269 241 161 196 185 227 235 250 280 316 343 515 498 485 412 397 360 368 394 355 341 330 328 331 346 340 345 346 343 345 362 362
189 190 193 199 183 200 209 255 224 275 259 183 180 191 214 223 239 260 309 312 401 509 477 449 407 374 355 352 344 335 315 325 328 329 325 327 324 327 335 345 362 364 359
184 200 191 167 208 222 247 278 271 231 164 181 199 215 226 238 296 308 328 444 510 469 428 392 356 351 359 339 324 328 325 323 326 324 312 312 311 329 341 353 358 358 364
194 178 207 215 260 226 276 244 222 126 183 193 214 228 250 303 307 387 472 506 493 418 380 348 340 354 329 333 323 323 308 308 311 318 310 304 313 339 350 362 354 354 363

GFSMA_2pvu_pres_009.txt.gz
Presure
81 84 85 92 97 137 154 94 82 86 105 189 179 202 210 235 217 224 218 216 212 211 208 204 180 179 202 153 156 177 157 162 196 191 184 161 136 111 109 123 161 179 178
88 103 84 107 115 124 83 102 91 106 105 111 141 196 214 214 218 221 214 210 208 206 204 202 199 197 197 197 194 194 199 202 200 189 180 179 174 189 183 177 162 159 150
191 80 83 192 183 106 84 100 169 106 105 182 205 131 217 213 207 202 192 181 193 194 193 191 191 199 192 189 188 202 197 190 188 200 195 190 188 198 202 208 206 184 188
103 105 111 155 116 85 114 174 181 110 133 110 111 142 186 180 193 163 121 191 189 180 182 183 184 183 184 182 183 182 182 183 182 182 183 182 200 186 194 197 201 202 172
107 123 132 107 79 115 106 117 102 103 109 110 208 198 195 180 192 192 182 189 183 183 189 191 190 194 181 182 181 182 182 191 193 187 182 180 181 185 184 183 184 180 183
116 110 109 108 83 116 104 103 161 104 109 111 207 194 178 184 195 186 189 181 179 184 190 193 186 178 187 186 187 186 189 187 186 189 171 169 175 190 180 175 180 184 180
96 99 78 112 111 100 104 124 109 209 112 114 203 191 191 177 193 182 181 189 173 189 188 193 183 185 190 187 183 185 191 198 200 194 205 205 209 201 182 203 200 201 179
95 88 110 110 107 113 105 131 156 217 178 204 192 183 192 178 193 182 188 191 184 171 186 184 187 181 182 183 194 183 187 199 207 286 282 285 279 245 204 225 207 219 222
98 114 100 103 106 112 110 170 175 207 204 187 186 180 188 181 190 192 187 188 180 183 182 184 180 179 182 187 184 200 212 274 253 247 241 240 240 247 256 268 262 261 258
114 112 109 109 111 108 111 214 204 201 193 191 182 182 191 184 190 178 186 174 192 188 184 181 184 186 176 194 214 229 262 242 222 242 258 268 260 230 230 230 238 240 244
104 109 118 209 112 210 209 206 195 194 183 189 181 190 189 190 189 175 178 181 186 187 176 184 181 174 193 215 227 260 225 265 262 257 257 258 255 256 256 257 257 255 222
186 198 169 211 212 201 204 196 197 192 187 193 190 194 195 195 181 185 190 187 176 164 162 167 186 194 188 225 250 226 266 261 265 268 268 266 267 269 270 270 272 276 280
174 201 217 208 203 204 202 198 195 187 186 193 199 174 184 179 187 192 185 173 164 177 187 190 185 210 235 209 262 273 265 263 260 253 202 195 220 222 222 221 224 227 228
171 186 187 208 203 207 201 198 191 191 191 199 172 174 189 198 186 179 177 189 185 201 188 206 217 218 191 277 266 261 253 242 215 208 202 197 206 220 220 222 225 222 219
178 170 184 188 205 212 199 202 200 193 196 188 185 192 191 179 182 182 191 204 190 197 203 231 218 169 277 258 246 223 164 177 197 222 224 232 257 355 357 97 389 505 293
177 173 183 181 210 209 200 198 199 198 183 180 192 184 178 178 198 184 127 162 210 218 242 227 151 261 251 123 205 205 186 240 288 345 359 643 615 632 436 625 604 571 537
168 170 171 191 208 212 209 199 178 196 191 186 174 179 188 188 196 198 202 214 223 266 238 265 247 223 162 224 222 191 251 349 166 578 536 505 479 510 582 617 610 589 569
177 168 172 205 205 203 196 178 189 184 184 173 183 194 192 200 199 206 216 234 260 279 259 147 168 216 163 231 282 345 517 522 506 295 458 122 420 477 485 494 511 521 569
173 178 174 203 207 205 184 182 186 180 177 188 194 196 197 194 211 175 256 283 263 189 199 214 210 185 262 333 532 525 511 452 439 450 391 462 376 362 392 394 402 441 460
176 174 188 192 193 172 183 183 181 185 193 192 203 194 197 188 231 245 231 235 224 207 191 228 243 303 337 527 515 466 431 433 379 421 429 412 371 360 343 345 344 345 350
171 180 186 180 181 175 187 184 192 193 194 197 191 205 224 260 228 141 228 198 175 215 238 254 315 383 528 496 433 407 377 363 373 346 342 334 332 344 350 349 350 343 346
176 172 175 182 193 191 190 193 192 200 162 194 212 238 237 267 137 216 207 163 228 239 272 323 491 529 493 422 389 359 361 357 340 331 326 336 338 332 336 334 336 338 342
172 181 190 189 184 192 191 196 177 197 203 227 260 239 149 223 204 207 221 226 239 305 317 499 523 480 414 385 353 347 340 341 344 334 317 321 323 327 325 322 345 349 355
175 184 183 185 190 192 185 193 181 217 262 246 191 138 204 190 214 218 231 266 305 320 521 504 491 410 384 370 352 332 324 324 330 326 310 313 316 322 319 314 360 362 382
181 184 188 192 197 196 168 181 167 246 271 218 143 174 206 214 232 232 280 304 317 521 487 495 405 385 381 360 333 314 318 319 315 320 306 308 309 314 314 303 384 384 384
184 190 194 153 187 145 222 218 274 250 216 138 202 211 207 229 242 308 306 342 521 488 458 398 376 378 347 335 313 320 315 311 302 305 304 311 310 299 314 378 387 380 368

GFSMA_2pvu_pres_012.txt.gz
Presure
87 85 84 83 150 79 81 94 188 184 150 150 93 174 100 108 188 185 111 210 221 200 216 213 208 208 207 203 202 202 202 202 201 201 204 204 203 167 175 207 211 196 183
97 125 195 193 101 84 132 172 196 99 121 92 149 188 177 143 109 111 182 205 198 189 190 189 193 194 184 195 193 192 193 195 193 193 199 192 186 180 182 183 178 174 199
83 101 129 134 134 121 110 111 180 119 94 108 109 105 95 107 108 111 152 206 197 187 176 191 189 179 185 193 182 185 181 180 185 184 181 180 183 184 193 201 190 196 193
163 132 108 120 110 77 101 123 118 83 110 109 105 102 127 165 199 122 115 204 201 179 182 193 189 187 190 178 176 176 183 187 187 178 173 171 173 176 178 184 186 177 199
244 130 128 115 105 113 122 114 104 110 112 106 115 116 132 129 191 207 208 198 195 173 181 185 193 174 182 191 196 191 199 192 190 190 179 177 185 184 180 174 176 181 176
99 84 125 110 113 117 100 88 106 108 100 107 103 109 127 127 208 214 205 195 192 182 182 180 194 185 184 191 191 180 185 187 190 184 179 183 185 184 194 197 193 186 185
127 130 147 160 115 124 95 87 94 112 106 107 104 109 153 189 213 203 200 193 183 184 191 185 190 195 184 185 173 185 180 185 185 187 184 192 193 196 198 222 259 265 266
124 126 177 147 117 115 84 87 192 104 108 108 110 115 206 210 203 203 191 198 182 186 183 186 194 191 178 194 187 190 189 190 180 184 192 190 199 203 222 244 264 235 238
102 110 117 146 118 90 90 194 114 110 114 131 168 205 208 204 199 193 186 193 183 137 191 193 200 181 186 195 191 188 175 166 177 185 194 199 198 229 254 217 223 259 238
107 101 195 114 95 113 106 112 107 228 213 193 201 205 206 198 201 192 190 193 199 199 200 189 184 191 195 187 184 176 184 189 191 204 192 218 237 252 227 272 278 271 265
178 178 185 122 190 172 193 196 214 212 211 211 200 203 201 198 195 192 185 190 196 179 181 189 194 196 189 183 183 192 194 208 196 179 230 268 239 243 270 270 270 268 267
139 182 186 143 180 177 178 195 205 204 194 204 198 194 198 197 195 193 189 186 175 180 187 191 183 183 182 188 197 195 203 201 223 204 256 238 272 270 265 246 215 213 213
188 197 178 182 180 173 177 190 173 188 210 181 206 205 196 200 201 198 194 182 179 188 188 175 173 183 171 196 201 203 216 220 259 250 255 265 246 201 210 211 214 213 206
201 195 189 172 174 175 163 169 173 172 197 211 206 205 207 201 202 199 195 191 189 173 154 178 190 193 194 194 208 217 249 277 263 260 195 186 212 200 216 198 236 239 259
195 195 198 178 163 174 171 169 173 173 171 183 209 211 212 208 183 189 187 183 186 176 184 188 199 197 205 213 242 241 258 249 185 186 206 217 168 213 250 376 575 647 574
199 194 203 191 179 175 181 170 172 181 171 210 205 202 188 180 183 191 183 182 190 193 194 199 199 204 240 288 254 257 198 197 187 229 241 282 160 570 527 488 480 481 485
210 199 200 197 183 184 180 168 175 181 174 198 198 193 180 183 185 188 191 193 198 200 197 204 229 282 251 257 209 220 157 208 244 289 342 544 501 465 466 459 491 503 409
213 210 196 200 189 182 180 174 176 179 196 197 192 184 182 190 191 193 191 200 199 210 224 299 267 252 208 213 220 234 251 267 340 510 500 455 447 423 432 394 469 430 382
217 210 198 200 193 183 188 179 174 181 189 176 185 188 196 192 195 195 182 208 220 223 262 137 167 187 155 226 238 255 315 381 503 475 436 396 377 382 358 348 335 344 345
218 210 205 195 196 186 184 178 177 186 168 183 194 188 195 195 176 204 211 236 251 141 215 219 206 224 234 242 295 339 525 480 441 414 379 357 365 352 338 332 323 321 325
221 212 198 195 185 180 181 184 180 188 179 188 194 195 195 201 194 230 231 265 227 204 211 221 229 240 249 323 485 509 460 421 395 374 352 335 346 348 334 323 323 323 324
217 206 197 188 185 188 185 178 188 182 189 194 195 199 154 216 237 257 223 140 216 180 230 238 244 311 329 533 486 431 405 386 355 366 334 329 335 326 317 320 319 321 322
211 199 185 181 186 182 185 185 186 193 194 197 190 157 218 255 173 195 194 208 216 231 242 256 324 392 518 488 425 392 380 364 345 341 329 323 319 316 319 316 313 318 318
200 180 181 173 180 190 178 189 194 193 201 159 155 187 191 215 180 184 205 229 227 242 294 330 522 507 456 410 389 379 355 331 325 322 324 317 312 316 316 307 314 311 339
180 171 177 184 175 187 192 191 197 194 152 219 162 181 202 205 213 206 221 234 241 313 344 509 488 427 395 380 383 349 331 319 308 317 320 315 312 312 307 309 312 309 405
167 180 180 185 188 190 192 134 196 166 194 232 168 237 206 213 211 222 238 247 321 518 485 451 403 384 376 390 359 323 329 314 315 310 314 305 307 306 303 302 305 347 420

GFSMA_2pvu_pres_015.txt.gz
Presure
93 89 87 94 96 159 175 197 160 116 92 142 118 191 82 131 117 109 105 94 101 141 156 110 136 203 200 186 180 188 199 192 187 193 193 194 191 189 189 192 192 191 194
87 84 88 106 94 110 134 122 201 175 133 114 111 114 81 130 89 108 104 108 207 103 145 198 175 206 197 190 180 170 184 187 183 184 190 187 185 194 191 192 193 193 189
92 99 99 99 122 197 170 175 228 128 116 99 111 126 118 107 108 106 101 108 111 202 165 192 197 208 196 192 184 175 187 181 182 176 179 174 186 173 174 171 176 176 172
84 104 84 87 210 210 145 203 119 118 109 114 125 105 104 112 108 103 103 104 105 112 199 190 208 208 194 193 179 177 173 193 186 173 181 189 188 184 190 189 193 193 188
92 95 95 109 126 227 230 131 121 106 110 148 90 89 97 107 106 105 110 105 107 141 189 206 211 203 195 192 184 184 183 180 189 187 184 183 191 182 180 189 190 189 183
96 108 125 93 119 133 96 87 126 111 107 93 118 87 96 112 103 107 146 106 195 201 213 211 207 203 194 187 177 183 192 188 189 197 181 187 193 181 191 181 184 179 177
194 195 127 158 143 126 125 127 132 196 169 121 125 92 101 192 105 104 158 185 224 217 209 204 201 193 192 195 84 189 187 192 191 197 177 182 189 190 191 191 187 172 174
197 195 184 198 186 189 191 124 125 123 117 116 114 100 151 113 104 212 186 217 207 203 206 199 199 191 191 189 191 190 192 182 181 184 185 193 190 185 183 182 188 193 193
207 151 113 174 193 114 92 109 106 106 128 107 104 195 211 182 209 214 211 200 210 207 201 202 201 197 191 188 189 191 185 182 186 192 189 181 181 181 192 197 195 197 207
129 124 202 123 108 104 104 142 104 189 194 191 178 172 187 181 211 212 213 203 202 202 202 198 195 194 193 187 185 190 186 194 187 181 183 187 192 197 193 195 198 195 222
223 227 228 207 92 94 99 183 107 181 185 181 181 179 178 213 179 207 198 198 204 206 196 202 201 202 202 210 197 198 202 190 191 193 193 200 204 203 199 218 232 177 246
183 176 86 97 206 212 178 165 152 107 182 183 183 171 172 171 180 170 174 179 200 204 206 207 212 209 193 198 195 193 143 195 195 174 146 205 209 227 237 289 275 269 251
229 229 223 224 222 220 199 184 185 187 174 178 174 171 171 170 177 180 174 175 203 208 210 196 197 188 193 193 193 196 196 202 204 206 212 224 249 279 265 235 204 206 204
231 241 233 207 222 219 181 155 205 197 191 184 164 174 177 173 178 182 178 179 198 210 202 188 188 193 193 196 193 195 202 205 210 220 266 88 245 174 183 96 169 162 226
221 231 232 229 223 221 218 212 200 194 199 189 178 178 182 172 175 181 177 198 200 191 187 188 195 195 194 195 201 206 208 218 254 284 253 186 195 209 224 235 237 248 257
218 222 223 225 231 223 222 215 211 193 195 199 188 182 181 176 180 179 180 176 186 191 193 197 186 196 194 210 212 227 258 293 240 200 211 175 230 238 245 163 289 343 480
233 220 227 229 229 227 225 216 210 205 195 198 197 188 182 186 184 181 179 190 188 182 188 192 201 210 215 237 244 281 191 150 192 225 239 244 253 298 519 513 466 451 448
233 224 224 221 236 233 227 218 214 209 208 205 199 197 183 184 183 180 188 189 183 185 167 206 212 227 234 280 169 211 195 228 240 251 255 275 521 500 456 436 423 388 372
243 230 224 218 214 232 230 223 218 211 208 206 197 196 183 182 189 183 187 184 180 203 214 221 239 241 193 259 202 222 220 247 249 284 501 501 466 423 415 387 369 353 349
239 230 224 217 212 208 233 228 221 216 210 202 198 183 186 188 184 189 186 199 208 162 212 228 220 269 201 225 227 241 245 258 459 500 467 438 413 386 366 351 342 342 343
250 240 230 223 216 204 236 230 223 215 208 197 182 185 183 188 186 194 203 213 206 229 205 245 263 211 217 228 243 250 328 523 460 439 425 398 378 352 342 338 331 326 321
242 253 246 229 221 207 236 227 223 214 182 179 180 183 188 187 200 203 180 227 227 178 263 259 221 228 238 248 263 516 493 430 405 401 405 356 348 338 335 325 316 308 307
236 243 256 239 216 203 232 225 217 178 178 184 181 185 186 149 136 174 216 181 212 232 230 229 229 238 248 492 481 424 399 390 380 388 370 334 337 324 329 319 314 312 316
240 243 259 253 206 206 225 188 176 184 183 183 191 197 150 213 224 189 210 265 231 215 241 224 237 253 470 427 406 390 377 379 379 363 350 321 328 325 323 312 310 309 307
249 267 263 208 214 223 177 184 181 183 190 193 201 207 214 222 218 266 234 222 216 230 233 240 283 433 412 398 384 381 362 370 346 327 342 326 318 309 312 309 304 303 306
255 248 214 219 180 186 179 182 187 193 200 195 211 223 222 241 260 197 221 217 228 237 242 431 402 377 356 347 335 328 365 354 328 317 327 309 317 305 295 306 302 307 308

GFSMA_2pvu_pres_018.txt.gz
Presure
109 108 91 94 95 89 92 90 160 88 107 107 192 166 188 111 164 111 134 153 155 108 109 104 101 106 106 108 118 118 191 208 196 183 184 185 181 177 180 177 186 185 186
106 98 84 87 87 87 87 116 129 86 94 110 100 129 122 223 100 98 116 114 109 110 108 100 107 103 102 105 136 205 191 209 199 196 185 181 185 184 179 174 176 173 174
199 92 91 98 90 92 98 101 93 116 177 220 225 211 221 126 110 114 127 90 93 107 105 106 106 106 105 112 205 198 197 207 199 198 180 182 179 179 190 183 174 173 179
94 100 98 93 87 87 100 93 99 126 232 235 130 253 124 121 110 109 144 94 89 99 112 104 104 108 111 128 205 195 210 207 203 195 190 186 190 186 181 185 191 189 183
99 87 80 88 100 93 97 96 154 95 124 214 90 195 127 124 115 112 112 116 95 103 105 103 106 184 198 198 197 215 210 204 204 195 190 181 179 187 190 188 187 190 193
97 97 89 88 87 92 95 98 104 116 113 117 126 144 126 125 178 174 91 113 101 109 117 104 110 205 203 219 217 210 202 197 200 189 193 194 188 187 185 188 187 192 197
77 100 174 92 81 95 100 196 200 195 123 200 117 111 122 97 121 122 120 169 105 151 198 224 223 226 221 203 207 206 205 199 200 192 188 190 189 187 191 191 185 184 185
102 243 204 90 108 101 135 191 193 129 163 197 191 183 168 109 103 111 205 173 191 141 203 217 216 173 201 211 211 206 202 199 199 198 193 194 189 188 186 181 184 193 192
146 99 154 134 102 178 228 215 193 198 161 180 113 100 104 101 145 138 180 185 135 183 171 182 196 205 213 195 200 205 199 198 201 200 198 199 191 194 197 191 189 199 198
205 216 173 172 245 245 235 232 139 215 199 109 99 104 106 114 181 189 149 99 176 174 175 186 172 174 173 192 199 202 205 206 205 204 211 210 206 196 202 199 194 193 194
208 223 247 238 231 240 96 226 219 97 224 170 115 182 184 187 180 104 182 187 181 175 169 173 179 182 188 180 199 213 213 209 198 188 189 197 198 194 194 199 196 200 200
92 208 226 238 238 134 231 234 219 95 188 228 222 158 213 186 128 189 182 179 180 177 174 165 183 185 181 180 186 202 195 192 194 198 201 196 199 203 203 207 209 215 222
238 218 207 216 180 97 237 224 235 225 226 227 155 222 220 182 201 206 200 187 161 179 182 179 187 184 181 179 174 191 204 190 196 197 197 203 203 211 218 224 257 302 304
238 239 222 217 252 234 232 242 241 236 226 226 225 220 219 214 208 207 203 203 193 185 182 187 183 190 186 188 182 193 187 195 198 196 200 207 219 241 253 302 219 190 220
240 239 269 266 263 248 239 226 229 230 243 226 226 227 221 217 214 210 212 202 203 200 189 194 189 184 190 188 186 186 194 194 163 205 212 234 254 291 183 187 205 155 237
180 238 235 266 268 257 242 234 227 226 228 220 233 226 224 223 218 213 209 204 203 206 201 198 182 188 187 195 189 194 189 203 211 234 249 291 222 193 214 144 239 241 245
235 230 251 258 251 259 254 240 230 226 216 229 228 231 232 226 224 218 216 215 216 212 205 200 191 183 192 193 153 182 158 231 245 261 188 184 223 238 206 248 259 458 523
232 259 252 245 245 244 254 244 237 231 228 223 226 227 234 233 230 228 220 216 212 216 204 195 184 189 195 191 146 183 239 255 180 215 236 239 237 251 267 520 502 471 445
224 250 239 239 242 240 240 241 243 237 231 223 221 216 227 241 239 234 229 221 216 195 190 192 193 196 157 164 226 244 246 215 235 236 248 248 266 510 478 451 432 417 394
230 248 237 240 237 232 234 242 250 250 238 234 222 214 206 236 244 236 230 222 188 190 194 193 205 172 223 235 227 212 220 234 238 250 259 474 453 434 420 411 393 369 356
252 234 225 225 235 238 238 238 245 251 255 255 233 219 208 228 243 234 190 190 192 192 139 205 215 226 237 256 221 194 234 240 250 274 431 399 413 396 402 374 354 341 339
230 233 232 221 226 232 234 236 241 244 258 265 243 216 213 230 234 188 192 191 194 135 215 220 234 252 277 214 237 234 244 255 385 402 407 382 405 390 372 353 338 327 322
233 216 223 226 229 241 237 242 242 254 270 265 220 216 230 186 192 192 192 201 210 215 229 246 260 217 231 235 242 250 305 389 365 354 352 367 394 365 347 335 328 324 326
219 225 230 232 237 240 241 250 265 253 249 218 224 205 191 189 193 199 207 214 221 236 248 252 218 237 236 248 256 410 387 365 343 336 337 314 346 349 337 340 334 320 322
226 233 236 242 246 253 251 239 228 220 225 196 187 191 192 197 209 214 220 236 241 274 221 226 238 242 252 268 393 377 359 345 333 333 337 326 325 356 334 339 320 315 305
239 242 251 259 230 218 218 224 198 183 190 191 194 203 207 216 224 236 242 274 213 219 235 236 249 260 394 373 360 349 413 421 422 412 413 404 340 319 251 325 318 304 294

GFSMA_2pvu_pres_021.txt.gz
Presure
110 94 229 112 103 109 167 87 90 95 93 90 82 88 90 88 232 201 115 172 119 173 94 108 122 88 102 103 109 104 103 101 104 111 125 205 191 204 196 191 186 191 178
105 84 191 103 88 210 98 93 92 88 84 89 85 87 94 104 124 119 227 139 161 233 111 110 91 90 101 102 101 110 104 108 110 200 203 209 192 206 202 197 190 180 181
85 98 82 100 101 121 107 90 88 81 85 85 97 89 97 103 234 235 171 239 239 132 122 116 114 117 106 97 104 111 106 111 134 203 212 197 196 210 206 198 193 181 184
98 106 92 111 104 115 95 95 96 89 93 97 100 96 101 88 222 219 217 87 198 132 128 125 112 117 116 123 111 110 131 213 215 226 199 198 214 211 209 204 197 192 186
108 99 98 106 116 102 136 96 92 87 84 97 89 87 104 108 114 128 143 128 207 188 102 153 161 199 128 111 154 146 210 218 210 202 208 219 215 208 204 204 200 196 191
105 109 185 132 107 97 95 80 74 83 95 85 91 95 175 200 166 154 120 183 116 122 120 104 103 111 131 167 183 117 170 222 221 224 224 208 207 207 204 203 202 198 196
248 226 111 175 104 88 91 100 77 92 98 96 100 99 103 198 197 129 139 192 193 94 102 110 111 103 139 181 184 204 224 226 185 216 201 211 207 210 212 204 203 206 197
247 250 234 233 229 137 198 144 103 106 132 100 102 102 158 170 193 192 159 111 98 184 103 109 105 106 193 165 184 178 212 178 174 178 173 207 201 203 204 202 202 201 199
221 237 247 220 237 232 224 102 98 96 100 104 165 226 232 214 138 104 190 192 97 110 125 185 103 189 184 182 175 175 176 182 176 173 173 176 191 198 205 208 210 208 207
230 246 238 243 245 229 229 190 189 214 136 235 247 212 222 92 89 124 147 174 193 186 180 184 191 184 183 185 182 178 174 171 173 183 183 176 179 186 194 195 187 189 206
214 213 255 232 263 245 235 224 212 222 232 234 232 243 90 93 230 222 225 223 215 208 208 193 185 190 188 183 183 183 178 174 184 186 180 180 176 177 173 185 197 185 191
229 217 242 246 237 244 248 234 219 208 222 238 241 162 139 233 233 224 223 221 216 219 221 219 220 209 202 201 200 189 162 188 189 177 190 193 192 184 180 184 189 192 194
229 225 227 244 241 233 249 242 183 168 230 192 233 236 235 230 225 229 225 221 222 222 223 218 221 219 212 212 206 205 205 200 199 192 199 199 189 194 187 186 195 194 200
224 219 227 243 240 227 225 247 232 234 269 271 253 238 208 226 244 240 232 231 230 223 221 219 222 223 220 214 213 207 207 206 208 203 204 201 190 193 193 195 199 202 199
216 220 222 241 231 227 223 221 225 259 265 270 266 96 242 238 228 228 230 236 244 240 221 225 225 224 225 221 217 217 213 219 218 211 211 193 193 192 200 194 204 223 252
215 221 217 236 230 231 226 223 192 259 260 250 252 257 253 245 239 236 231 228 231 233 232 231 229 231 229 228 228 223 219 222 225 208 200 193 200 202 145 158 193 284 238
220 213 221 232 242 221 222 212 226 253 247 246 255 254 251 254 257 253 241 237 227 234 234 233 238 244 241 239 237 234 233 228 199 196 199 203 144 152 207 206 256 206 211
219 216 234 227 232 217 230 220 225 250 244 242 239 242 246 245 252 256 261 246 245 231 228 220 216 217 247 251 253 246 213 195 194 145 205 158 224 224 269 206 221 238 267
227 233 221 228 213 231 226 222 250 250 235 231 236 241 244 247 246 251 259 264 267 245 233 224 217 219 240 253 247 197 194 202 171 213 224 241 274 215 218 249 266 308 424
224 232 222 216 232 224 224 254 239 237 235 232 229 230 238 240 241 250 252 263 273 270 265 228 218 239 241 199 197 169 207 214 224 242 279 254 213 251 266 292 379 414 417
236 223 216 232 217 224 236 239 235 229 226 229 239 243 257 256 257 270 275 184 257 255 233 230 228 201 199 204 213 214 225 246 284 217 210 253 266 335 392 382 372 355 360
215 228 225 218 230 224 225 226 223 225 236 239 251 260 263 263 251 244 240 234 226 228 213 198 195 204 213 219 231 256 293 191 219 251 265 293 396 375 371 367 355 344 325
223 214 234 225 213 230 218 217 232 236 248 261 263 233 227 225 231 229 214 206 199 201 204 210 217 226 241 265 273 207 218 254 265 316 392 374 371 350 366 339 340 337 324
241 201 204 223 219 214 227 245 259 267 238 222 223 233 220 205 194 194 200 202 204 216 223 231 267 282 252 229 248 257 266 341 378 387 409 391 380 386 425 417 409 360 339
207 213 216 219 229 235 245 255 219 211 226 208 197 193 189 200 202 207 211 219 225 275 278 276 217 256 248 258 266 382 383 381 378 361 361 370 364 365 394 429 417 405 360
200 214 246 230 231 241 209 217 222 190 194 191 195 203 207 212 215 230 266 269 265 241 255 234 247 255 281 404 391 375 378 369 354 325 351 361 351 388 396 414 421 437 396

GFSMA_2pvu_pres_024.txt.gz
Presure
95 183 168 168 128 108 198 158 240 103 139 179 92 98 97 91 88 85 137 91 98 246 121 242 222 148 222 224 219 93 116 124 96 104 113 110 109 112 161 201 200 209 186
179 98 221 131 118 230 104 138 231 108 102 90 93 91 87 91 81 99 90 92 89 107 110 186 99 216 240 255 131 116 103 108 112 116 115 107 113 156 204 204 204 208 191
188 231 225 164 106 102 88 108 209 109 111 115 94 83 90 80 94 101 97 89 102 103 194 87 219 215 207 215 210 130 125 127 194 220 112 106 202 116 207 205 215 206 214
238 234 194 105 220 95 99 104 106 102 109 140 96 91 96 94 102 97 90 94 97 103 106 118 118 193 123 124 125 154 124 179 103 125 94 139 223 192 225 223 204 208 197
212 220 202 116 165 103 95 125 98 112 106 196 103 90 95 99 93 92 90 99 89 101 152 200 159 140 162 166 124 141 207 104 97 108 192 203 222 221 219 213 212 210 212
234 225 221 187 107 107 227 103 177 96 107 101 104 83 83 91 91 97 99 98 102 100 107 109 119 104 177 189 197 117 107 192 177 193 185 185 206 231 232 170 218 222 222
227 217 215 228 199 102 104 104 106 217 219 233 84 104 96 96 102 99 97 90 82 105 100 195 87 187 194 188 138 111 188 185 191 192 194 185 179 179 180 177 206 176 182
215 215 215 211 191 231 209 221 218 250 145 111 225 94 96 226 96 102 102 97 101 214 207 178 90 194 191 191 192 195 189 186 192 193 188 185 187 175 175 179 174 178 171
216 217 213 216 220 213 100 198 228 243 247 234 235 231 192 93 100 222 92 157 235 131 233 153 113 220 202 195 190 191 193 188 188 187 185 184 184 184 181 173 175 176 182
207 202 201 202 213 198 201 222 200 251 243 251 242 230 215 216 194 92 150 219 227 241 95 97 232 227 223 223 224 205 198 194 194 191 190 190 187 185 185 183 178 178 190
204 212 210 207 175 224 205 170 230 224 259 235 257 246 236 228 217 207 199 235 223 226 106 236 230 225 221 220 218 222 222 219 213 213 211 203 197 201 198 192 182 174 188
206 210 216 217 215 224 213 217 228 234 249 247 235 241 244 182 136 235 224 201 210 237 241 239 232 227 222 219 219 224 224 225 223 224 222 222 211 208 206 205 203 199 197
203 203 207 218 225 222 202 210 226 221 237 245 237 230 222 234 231 252 249 266 248 219 222 225 224 240 245 236 229 228 222 224 226 225 221 223 223 219 213 203 205 207 206
211 212 204 222 221 210 219 208 219 223 222 241 234 234 227 222 236 265 267 266 263 257 250 238 235 235 227 233 234 241 240 240 240 239 233 232 234 232 234 231 222 223 226
210 206 204 210 213 221 213 219 217 223 213 230 240 228 235 223 236 236 246 253 257 255 253 252 251 248 245 241 240 236 231 239 238 235 235 248 247 243 249 252 250 249 244
210 205 211 205 216 220 219 215 214 221 221 231 237 225 231 231 233 192 251 252 251 251 249 249 250 252 255 257 258 257 247 236 233 240 233 229 230 241 251 260 267 268 256
209 212 213 213 219 213 203 212 220 217 235 222 225 236 238 238 259 256 245 237 241 242 242 250 249 246 248 251 257 262 263 262 259 241 232 226 223 226 247 257 241 195 201
209 215 214 219 217 220 217 207 215 237 226 226 235 233 229 243 240 242 241 236 234 238 240 251 252 244 256 255 261 265 269 275 269 265 238 234 219 242 209 200 206 214 218
228 226 227 229 226 222 190 221 234 224 227 230 225 237 236 232 232 231 237 241 245 263 273 282 272 269 263 260 261 260 261 258 254 244 228 232 198 204 209 217 225 228 250
241 242 240 210 221 193 225 231 223 230 230 224 222 224 231 226 230 239 264 270 278 259 249 239 234 232 234 237 234 229 222 224 206 203 190 206 217 224 233 244 268 272 257
243 233 225 211 180 225 225 235 229 232 225 202 219 221 220 238 253 261 256 231 225 233 232 220 216 213 212 203 198 200 204 205 207 244 266 275 271 260 259 249 226 240 402
225 222 234 220 183 227 231 227 230 227 204 221 218 237 253 271 234 218 218 216 208 209 206 198 193 195 202 207 214 275 266 254 246 253 257 250 234 411 399 389 384 386 397
240 220 228 187 222 225 219 237 200 203 215 240 239 238 228 221 230 213 203 198 192 197 208 216 238 273 268 254 245 244 233 253 294 429 415 407 388 376 371 367 362 366 372
196 193 220 206 213 225 253 191 225 236 239 232 213 225 220 207 194 194 194 201 210 246 264 261 253 244 236 238 247 277 343 410 405 392 379 376 363 357 355 346 353 361 365
226 216 214 221 227 234 215 228 232 228 218 237 215 197 190 193 208 204 232 243 254 245 238 238 239 231 245 312 429 420 403 385 372 361 355 371 368 366 380 406 388 402 416
216 214 234 204 215 226 237 217 219 232 204 192 192 193 201 204 258 155 249 238 230 234 233 243 244 311 416 408 397 381 370 360 364 359 369 439 466 470 473 431 409 402 407

GFSMA_2pvu_pres_027.txt.gz
Presure
169 174 190 166 149 126 102 175 179 189 183 217 157 190 138 228 147 92 99 89 88 91 99 90 87 98 89 102 109 119 127 164 227 223 233 170 125 122 110 145 206 102 118
169 180 191 116 183 188 135 120 182 162 116 104 173 107 228 90 222 93 85 78 88 93 99 90 89 94 96 103 105 204 217 197 208 213 208 201 164 123 128 103 91 200 207
199 187 179 170 194 185 136 135 112 238 214 112 110 129 164 109 99 86 90 91 94 95 89 90 94 96 95 96 98 199 110 122 105 87 127 126 111 102 99 98 214 216 213
186 171 182 252 254 183 177 226 134 242 200 118 107 105 116 107 167 187 102 87 95 99 90 87 91 95 98 97 99 103 103 200 188 205 187 202 102 185 98 191 158 184 215
179 209 229 234 199 225 232 239 114 221 143 194 97 101 102 106 103 109 79 98 88 88 90 97 97 92 99 97 102 103 146 197 195 89 193 197 140 195 198 200 189 187 183
215 221 219 217 220 225 223 223 205 202 202 141 103 108 129 86 82 88 95 199 97 92 96 102 98 102 96 98 98 142 184 196 189 127 195 193 193 184 187 186 193 188 183
206 205 203 204 204 207 206 209 220 218 235 209 109 108 107 108 110 94 110 96 101 97 102 107 229 93 97 110 220 143 214 202 204 202 195 193 195 192 192 188 192 190 185
224 224 224 221 218 218 219 221 128 218 215 218 222 220 214 222 241 253 250 242 237 236 229 109 215 80 97 201 234 222 115 223 204 220 208 196 195 194 197 194 190 189 189
208 205 206 215 212 215 216 207 214 221 207 217 159 168 102 150 159 180 242 248 239 164 228 220 222 154 226 223 223 231 240 231 226 228 217 217 209 204 198 194 190 189 190
212 211 191 195 198 200 198 204 204 202 214 211 204 203 217 190 174 248 246 242 249 248 170 231 232 219 211 204 236 236 228 238 240 231 228 228 226 225 227 215 207 199 201
209 210 205 202 204 198 204 203 213 215 215 224 230 217 222 89 232 228 250 237 238 246 239 270 243 277 227 224 204 207 225 228 225 234 237 235 230 225 224 226 225 223 216
203 199 199 196 210 211 206 202 207 213 211 212 228 227 223 222 223 220 241 243 233 239 242 225 230 271 268 266 264 251 239 227 221 226 229 230 236 236 235 232 230 227 228
201 214 212 212 213 215 203 207 188 209 215 207 217 211 224 218 222 227 231 248 235 230 233 237 235 244 255 254 258 261 262 263 261 259 251 239 237 233 229 243 240 237 229
220 210 202 215 212 213 210 205 212 206 213 206 207 213 217 219 215 222 215 240 234 225 233 228 245 253 253 250 202 251 252 257 259 263 265 267 269 269 260 246 241 237 246
223 227 211 207 210 194 194 199 210 205 208 210 206 210 206 208 213 224 238 232 234 230 225 233 237 238 242 246 250 247 245 246 253 258 258 257 257 265 269 275 270 265 253
225 222 221 205 199 202 203 210 210 213 207 211 214 215 221 219 214 222 238 232 227 230 235 230 228 228 231 233 240 245 248 255 272 258 276 262 265 265 268 268 270 275 280
225 221 225 220 206 206 209 206 210 204 211 211 207 215 225 220 221 235 230 232 221 225 233 232 230 229 252 271 284 265 259 258 259 257 254 250 250 251 252 256 261 269 275
229 233 226 215 213 207 204 210 203 205 207 207 216 225 228 227 236 230 236 225 212 217 220 228 266 258 248 244 240 231 229 228 232 233 231 229 227 227 225 228 231 237 245
246 237 234 233 217 214 200 204 205 210 214 152 226 226 212 225 228 237 232 212 212 216 228 252 237 227 224 228 224 219 209 207 205 207 209 206 206 208 207 208 208 212 216
292 285 240 199 232 227 224 224 215 154 222 233 192 220 233 228 238 225 207 209 232 231 261 225 231 228 220 209 204 196 189 193 195 215 232 255 257 261 265 265 264 268 268
199 193 261 256 236 235 230 191 226 179 206 224 225 231 231 241 242 207 212 223 218 254 218 218 217 202 195 193 198 244 251 246 193 249 251 248 265 312 431 447 427 420 411
156 152 280 246 231 229 234 232 219 214 215 227 222 229 239 215 202 219 216 242 235 221 218 194 195 194 285 253 241 154 240 237 244 266 295 462 437 422 405 389 385 382 379
307 278 239 239 234 224 206 190 216 227 236 249 242 214 215 204 238 241 246 211 209 194 196 249 261 248 172 179 240 234 258 271 316 454 423 399 394 371 358 353 353 357 364
238 236 231 227 180 194 212 216 217 249 205 222 225 231 229 234 236 216 200 189 193 242 248 200 225 232 233 236 253 268 291 453 412 392 370 363 358 357 374 399 417 429 438
217 228 213 194 213 222 204 235 238 212 213 222 223 215 227 206 194 199 223 233 239 220 145 223 228 226 242 257 270 330 428 387 363 353 364 394 479 465 464 456 452 442 441
215 224 224 222 216 234 240 205 210 217 220 211 221 200 198 196 211 226 234 238 241 172 224 223 237 248 259 281 436 410 369 347 378 371 438 471 487 495 500 473 462 450 448

GFSMA_2pvu_pres_030.txt.gz
Presure
183 172 183 175 171 182 187 178 187 96 97 103 102 188 184 206 187 178 136 229 90 125 96 86 92 90 97 90 85 93 93 92 92 97 101 113 103 180 107 108 123 126 168
181 85 191 184 187 189 186 195 180 152 200 190 187 176 213 241 137 109 132 117 103 90 86 87 93 94 95 100 90 92 95 95 94 96 100 99 116 201 104 181 180 112 135
175 177 183 168 177 179 175 196 194 244 193 174 107 236 110 198 133 224 113 113 112 108 93 94 85 96 94 87 96 94 94 94 95 100 100 171 129 198 202 189 204 198 194
182 189 195 197 188 198 196 185 189 217 237 231 240 238 229 202 232 218 114 109 137 107 106 105 106 86 89 88 92 96 94 98 96 99 102 90 194 139 124 199 133 197 197
185 190 197 184 189 205 198 225 216 220 218 215 217 215 215 167 166 239 207 99 99 102 96 104 96 179 213 230 161 100 96 101 165 96 187 91 108 209 199 198 194 194 188
186 184 191 192 198 195 220 232 225 228 214 222 227 230 221 225 220 219 222 189 173 190 160 125 142 110 247 100 97 97 106 80 103 223 95 231 183 146 216 196 202 201 192
192 187 195 203 222 239 232 223 222 215 213 212 222 218 216 216 221 220 153 104 223 100 231 258 245 251 248 250 235 231 229 226 98 149 183 235 238 148 229 225 215 198 204
201 208 212 211 206 204 206 204 205 209 214 214 220 216 201 209 210 204 223 238 240 188 220 240 210 184 250 221 243 236 204 190 223 219 210 218 229 226 235 236 233 232 228
202 208 210 202 201 214 203 176 207 215 211 208 203 200 202 205 216 215 215 217 234 228 223 221 230 260 247 239 238 238 236 162 234 230 220 213 203 221 233 227 234 238 233
201 204 215 206 199 202 209 206 206 219 214 213 213 215 209 213 203 211 218 215 223 218 222 228 235 226 248 246 247 249 226 229 235 230 240 232 229 222 215 214 222 231 233
208 203 200 211 212 196 203 204 212 214 207 203 208 217 217 209 208 212 216 213 218 176 228 225 216 226 243 238 233 231 232 238 248 247 249 247 254 263 267 267 252 241 220
211 212 214 200 198 202 197 199 195 207 208 212 210 202 213 215 212 208 209 211 216 206 222 219 217 219 239 238 239 236 238 240 242 246 252 254 255 256 212 263 267 271 270
211 208 208 205 203 209 218 219 219 201 195 204 204 209 212 212 201 204 213 214 210 215 219 227 220 224 240 235 236 235 239 243 243 242 243 248 249 250 250 247 247 252 256
249 243 226 217 220 222 217 211 216 220 209 206 200 204 218 204 210 211 216 216 213 214 219 233 234 218 242 236 238 226 236 235 232 248 272 270 269 286 282 274 269 269 285
245 247 246 249 249 242 240 245 231 230 213 220 205 204 198 199 205 204 213 212 216 213 212 231 224 217 241 234 228 224 219 232 249 249 244 244 243 243 243 243 244 244 247
254 181 244 240 235 240 243 227 234 215 212 206 208 195 196 205 204 212 211 210 215 218 221 235 216 233 240 233 221 214 230 240 247 238 234 231 230 231 230 228 226 226 226
267 258 253 252 249 246 243 239 232 224 215 209 203 206 206 204 208 205 207 211 218 143 239 224 235 241 228 220 215 218 232 243 227 224 228 229 222 211 207 205 205 207 210
213 242 243 242 242 240 238 234 230 223 213 206 210 213 211 178 171 204 180 219 221 232 239 236 241 238 224 212 220 236 223 218 221 221 218 207 201 199 196 199 201 203 205
264 126 243 235 227 221 224 227 227 227 220 215 204 200 192 204 193 186 226 227 242 248 238 240 223 223 221 221 226 254 244 222 246 194 196 209 243 242 241 244 245 249 255
274 267 177 257 217 198 239 223 223 225 221 219 218 209 220 169 226 226 226 244 245 232 237 226 222 212 233 261 250 231 203 193 208 239 233 232 240 246 257 277 277 422 449
157 255 289 135 196 282 258 264 282 254 178 218 220 225 166 221 195 215 240 235 243 231 216 216 230 241 242 215 195 218 224 231 223 231 230 220 252 261 288 405 402 391 388
290 279 241 187 151 253 177 281 283 263 251 230 160 224 226 219 246 239 235 214 217 212 226 231 225 220 189 197 251 226 228 147 222 238 239 250 263 314 390 371 375 387 401
348 260 183 171 265 265 262 281 151 173 231 215 219 223 231 234 230 235 206 215 228 229 220 204 198 238 242 237 229 226 232 233 238 239 252 272 361 366 374 423 480 460 475
315 319 307 327 322 308 249 198 195 195 184 216 229 206 232 247 227 222 239 231 245 209 213 229 238 241 242 229 232 230 235 238 240 253 290 386 360 407 425 411 413 405 402
262 232 252 242 220 232 218 229 222 207 229 235 239 237 209 233 242 224 223 198 213 226 230 240 242 218 228 228 233 234 238 244 254 291 376 369 390 375 347 340 337 326 327
218 238 171 230 229 180 227 190 231 234 241 215 228 243 218 221 207 198 215 227 228 236 237 216 225 228 230 231 241 239 248 266 334 365 373 400 354 346 316 312 316 310 312

GFSMA_2pvu_pres_033.txt.gz
Presure
171 185 184 180 182 174 165 192 180 191 198 188 174 192 129 182 181 174 110 248 169 188 236 177 94 90 175 88 88 92 95 93 86 92 94 89 96 96 103 100 93 102 196
185 160 187 171 184 192 188 192 193 186 187 192 203 199 178 230 234 228 214 204 124 149 152 187 96 115 84 91 90 91 93 96 92 94 94 83 95 99 99 86 103 93 107
174 179 181 182 183 182 187 180 181 175 184 201 201 209 237 230 233 231 217 110 208 217 220 219 233 154 224 85 109 121 156 97 79 151 224 98 84 100 99 89 223 90 97
193 186 183 183 191 191 192 194 189 194 195 195 215 238 228 245 240 231 231 223 233 229 211 203 125 230 141 105 106 103 100 78 183 242 211 198 187 94 104 95 236 156 89
172 171 176 185 182 184 200 199 192 194 194 211 214 215 211 219 215 212 217 225 216 221 218 210 217 226 101 104 95 95 154 176 216 252 99 100 158 222 223 220 211 88 235
179 181 181 181 199 205 201 196 197 196 206 223 207 213 218 208 217 222 209 202 209 198 201 205 227 202 225 243 240 88 240 252 221 234 256 247 235 232 226 220 180 216 236
185 193 194 196 208 191 193 201 206 204 204 212 219 205 209 210 212 224 213 212 207 220 205 210 195 229 228 232 238 233 236 220 262 252 239 244 242 233 228 230 224 215 207
195 193 209 196 203 199 196 198 207 206 208 209 205 208 210 208 213 218 218 210 205 210 224 209 208 217 220 226 235 235 224 236 252 252 247 239 265 239 231 233 233 228 219
201 212 203 202 197 204 205 203 201 205 206 204 206 213 215 201 208 212 220 218 221 214 217 222 214 215 215 221 220 233 228 219 228 249 247 240 242 229 227 242 264 271 253
212 206 211 202 195 201 200 203 206 206 204 202 207 204 196 202 209 217 216 203 212 211 216 221 215 204 215 219 220 225 228 233 229 244 245 244 246 243 246 239 237 238 261
205 201 205 205 204 201 209 212 203 202 200 192 197 200 200 211 206 220 218 215 213 206 206 218 200 212 209 224 221 221 220 237 221 225 237 241 239 237 236 242 243 248 255
205 201 202 206 213 203 201 195 192 200 202 205 205 204 209 207 217 207 215 216 211 207 208 203 211 208 213 216 218 220 215 229 232 215 234 232 228 224 226 233 232 240 266
210 214 213 210 208 212 210 210 209 203 196 217 216 213 210 217 214 217 216 219 212 224 211 213 203 207 212 226 210 217 221 236 225 220 239 230 229 225 220 229 248 242 240
214 215 218 234 235 233 230 229 230 232 230 236 225 226 224 225 224 225 222 215 212 212 209 202 209 208 208 217 213 221 224 240 224 243 236 234 232 228 219 240 240 233 231
243 236 236 233 234 235 236 227 225 223 225 226 233 238 218 233 225 222 223 209 209 203 208 200 211 213 224 209 216 227 229 238 240 235 238 245 229 220 242 251 229 218 219
242 239 240 244 232 248 251 245 183 235 233 232 224 222 233 210 219 220 214 208 210 208 197 193 216 221 208 209 235 236 199 240 236 235 230 222 213 239 240 226 238 225 223
271 169 229 172 268 270 272 270 257 247 240 239 239 236 219 218 228 225 215 213 212 210 197 176 206 198 191 228 231 242 252 226 239 232 228 225 244 240 252 243 210 199 196
278 268 260 255 248 240 236 235 241 260 250 241 234 228 219 230 224 207 222 218 216 216 152 162 212 229 234 244 236 249 240 229 225 226 234 232 234 231 201 202 248 236 230
331 297 281 259 245 244 246 234 233 227 228 224 229 223 222 225 224 227 214 165 186 152 194 232 217 243 245 247 247 226 228 218 230 247 204 207 254 254 251 234 224 243 232
367 358 294 279 269 248 241 245 241 235 163 220 222 225 188 219 220 163 193 163 213 183 160 217 232 228 241 234 213 218 226 248 193 198 247 252 234 229 233 242 231 218 259
355 344 318 313 280 126 113 162 154 147 139 232 213 235 221 219 201 185 219 216 180 225 226 236 234 245 233 216 223 226 222 222 245 251 220 227 232 240 255 254 251 266 277
357 346 330 320 307 267 269 281 131 171 202 155 260 259 275 162 168 172 169 238 236 227 235 225 244 213 218 235 224 202 248 244 210 229 230 233 243 246 243 257 267 290 404
348 374 350 331 320 259 254 264 272 234 164 260 223 271 260 247 185 197 214 190 229 237 238 210 235 235 211 231 240 251 215 222 231 233 236 242 238 243 251 271 355 385 396
300 297 352 337 334 282 265 216 234 275 207 242 173 234 221 183 236 202 234 237 237 225 218 224 228 214 244 251 231 217 226 226 234 248 241 243 247 256 309 364 375 387 366
280 277 278 278 275 280 331 299 305 256 190 240 228 227 239 217 225 233 223 208 225 224 230 216 239 247 239 221 221 227 231 241 237 243 253 251 330 369 355 359 375 357 342
248 275 203 232 206 255 257 259 254 243 237 218 239 243 238 218 215 219 223 222 215 223 232 239 212 161 215 227 229 235 240 240 250 251 375 381 363 356 350 359 347 334 233

GFSMA_2pvu_pres_036.txt.gz
Presure
154 172 169 154 174 99 107 127 178 178 179 180 181 195 191 198 187 191 207 111 202 249 212 242 237 236 234 207 127 99 156 93 94 89 97 93 93 95 93 89 93 95 97
175 170 96 154 182 151 180 156 189 190 189 182 183 189 190 208 199 196 205 225 223 211 222 222 219 232 222 230 208 228 181 82 88 94 95 96 98 98 96 180 89 95 88
198 194 196 197 188 178 182 186 186 184 173 172 184 204 195 193 203 198 216 219 211 217 215 232 221 169 218 221 216 213 91 114 86 102 110 108 232 109 124 117 91 155 209
180 177 183 183 183 163 169 169 164 165 171 180 196 215 209 203 198 209 209 215 217 207 217 230 221 211 200 206 206 209 229 234 227 235 241 126 128 97 132 94 180 151 124
171 170 171 172 168 165 170 178 186 188 190 193 209 204 203 203 202 206 211 207 214 217 209 210 221 224 197 219 227 204 219 223 227 164 166 169 162 228 255 107 249 230 233
168 168 168 168 167 172 173 198 183 198 197 200 211 197 197 205 209 208 208 207 206 202 207 207 213 233 216 222 220 220 226 221 228 224 239 234 138 123 254 247 241 241 238
189 188 186 191 214 206 206 203 200 194 198 203 202 208 201 206 203 203 207 207 204 210 199 206 216 218 212 214 213 218 228 220 217 220 223 232 240 226 234 252 249 243 238
195 201 207 217 205 201 199 201 196 196 203 201 207 198 198 197 207 210 199 196 201 191 205 211 214 204 223 214 212 208 224 213 216 223 227 226 230 241 240 242 253 247 237
214 215 215 205 201 203 205 206 205 209 211 202 203 201 199 207 202 200 199 198 211 205 208 212 210 218 222 226 218 205 212 208 211 217 218 216 223 183 170 229 235 247 241
211 213 208 208 208 212 214 214 216 208 203 205 197 204 207 196 200 195 202 202 201 225 215 208 216 213 220 232 224 220 212 206 209 209 216 213 217 223 236 235 215 237 238
217 215 217 208 207 204 205 198 210 209 207 202 203 202 194 195 201 210 202 220 222 219 223 210 215 219 224 226 229 219 223 217 205 208 213 210 219 225 228 234 229 238 232
220 214 211 204 208 204 202 198 194 200 202 201 200 201 202 199 208 218 218 215 222 217 218 221 217 223 211 226 222 219 209 215 215 213 211 221 216 230 103 236 227 235 241
203 209 208 212 208 207 209 205 205 206 209 210 206 208 220 222 227 222 218 222 217 220 216 215 233 223 221 221 219 210 211 213 216 205 226 218 220 231 224 235 233 236 239
213 202 215 223 230 237 234 228 234 239 231 230 225 228 226 219 215 214 210 223 220 216 226 231 225 214 220 218 215 207 205 208 217 221 205 230 228 236 232 241 235 227 237
248 246 236 160 224 241 246 245 240 236 197 229 218 217 217 220 215 219 218 220 221 222 225 224 234 210 220 221 216 217 211 217 215 220 224 226 236 241 250 243 225 218 230
287 281 271 264 256 250 242 220 238 188 226 220 220 218 215 217 223 226 229 230 224 234 221 222 227 211 204 218 191 244 208 214 184 186 229 257 239 252 237 235 221 222 225
293 285 277 266 262 259 259 261 257 253 241 237 234 227 217 233 223 232 232 222 226 232 215 251 228 213 220 201 229 215 213 219 209 241 244 254 237 221 217 219 227 230 242
323 320 318 319 293 272 262 253 247 250 252 257 249 240 241 245 239 238 230 235 235 222 185 208 218 226 227 181 155 217 159 167 230 236 239 234 240 235 227 229 222 197 229
270 323 316 320 309 314 320 299 264 252 246 240 248 235 224 221 216 214 221 234 236 217 234 222 200 185 163 214 195 197 202 210 238 235 232 219 214 235 244 233 248 256 232
391 367 350 336 338 340 337 337 319 276 253 247 237 175 237 230 229 187 222 191 215 214 194 180 162 213 229 196 231 217 232 236 209 246 228 236 237 250 258 245 215 231 247
370 356 352 370 373 355 349 325 335 299 267 227 124 238 236 129 165 217 221 229 236 229 208 233 238 196 223 263 241 220 221 247 250 202 230 245 253 233 217 236 235 247 249
356 360 350 340 341 339 338 350 319 325 279 256 254 252 237 138 129 227 148 230 161 257 249 273 252 187 207 247 255 252 234 243 254 241 232 245 220 231 176 240 250 259 260
323 362 351 339 330 322 324 326 321 313 275 257 250 254 260 268 246 188 192 177 161 255 222 255 253 252 248 241 222 228 235 240 231 242 200 208 231 231 243 250 255 262 268
297 299 323 341 325 318 295 314 309 297 233 247 247 250 274 260 251 244 243 229 190 254 250 222 240 230 240 237 227 222 230 243 245 231 233 227 240 245 247 253 268 277 394
253 245 234 280 296 283 288 284 271 212 251 259 256 260 202 246 250 233 230 259 230 223 219 218 249 227 220 237 234 239 245 224 232 241 242 241 251 251 259 275 386 383 380
239 263 241 246 214 234 250 274 282 293 291 294 278 273 262 261 255 219 248 246 245 244 240 219 220 231 237 248 248 235 211 246 246 263 243 251 264 356 382 367 364 357 364

GFSMA_2pvu_pres_039.txt.gz
Presure
94 128 165 121 155 160 171 163 191 196 196 162 102 191 181 176 174 172 172 171 178 214 215 212 215 152 231 150 223 167 224 208 214 89 95 87 146 123 93 101 96 90 87
87 116 173 167 152 183 183 192 149 184 177 180 179 178 166 173 165 166 178 190 202 212 210 212 205 210 213 223 212 214 234 228 203 217 215 97 97 90 93 97 97 100 99
174 172 171 175 177 175 186 185 178 173 171 167 166 170 164 167 175 184 191 203 215 207 208 214 214 212 209 204 213 213 212 229 222 215 232 225 114 86 90 101 99 107 259
93 168 179 184 176 174 170 176 174 166 171 178 168 169 178 210 196 193 200 206 201 212 207 206 204 215 207 208 215 200 220 202 207 219 218 225 221 223 223 224 244 239 103
181 185 181 180 173 171 161 169 169 170 179 183 201 214 208 202 203 202 196 204 206 207 200 201 219 207 200 196 211 215 221 209 226 224 220 215 225 216 225 219 220 109 175
196 185 182 180 183 186 194 196 198 191 199 213 212 208 205 201 197 197 199 210 203 198 201 208 204 201 201 206 200 216 224 219 223 224 236 213 219 215 215 222 213 235 250
182 183 182 190 196 200 197 199 201 200 216 212 212 201 194 199 201 203 205 201 192 200 204 209 199 198 220 205 215 228 217 218 225 224 235 220 224 211 208 216 223 214 229
193 189 207 215 215 219 206 206 202 219 210 205 205 208 207 211 207 208 199 188 195 199 200 201 196 203 211 222 211 216 216 225 221 228 220 232 219 208 207 208 218 215 216
231 223 219 223 224 215 211 215 211 206 213 212 213 208 207 207 198 192 206 206 200 198 201 197 191 210 221 214 213 218 218 224 222 225 211 225 222 221 217 199 215 216 216
218 153 228 225 225 225 221 220 219 182 219 220 214 205 192 199 203 193 194 200 202 199 199 199 207 211 221 223 218 221 217 225 216 228 227 215 224 216 215 212 205 217 208
210 220 178 181 211 213 208 189 211 208 208 204 182 204 200 201 194 193 195 199 195 200 198 212 215 226 216 217 214 224 218 215 226 221 225 225 213 217 212 207 202 214 207
229 227 219 205 211 219 211 209 211 208 207 204 200 201 202 205 201 201 200 201 199 211 219 213 220 209 210 213 214 221 215 210 222 217 204 207 216 184 213 215 194 217 140
216 209 208 211 216 213 212 215 215 217 217 214 208 211 217 223 227 231 231 228 221 214 213 216 203 212 215 216 217 222 219 221 221 221 229 212 207 226 230 218 217 232 218
205 219 214 220 221 222 256 157 253 248 246 240 237 234 234 223 219 223 216 224 223 220 218 208 207 214 212 213 216 226 231 226 210 227 226 227 212 228 222 237 209 231 228
216 226 226 258 259 254 250 249 101 250 245 240 240 236 234 227 226 224 220 217 150 213 210 216 220 212 228 233 228 224 222 225 225 226 237 228 214 233 221 226 226 228 242
264 260 267 285 199 280 280 273 265 269 269 265 264 251 244 230 229 224 222 222 238 230 221 158 233 182 198 210 229 230 224 231 222 227 204 224 225 205 216 179 178 221 233
284 306 296 264 265 268 255 255 269 273 267 257 255 253 256 255 245 237 219 207 198 188 200 211 213 212 206 227 229 228 206 225 226 220 211 229 193 204 200 175 206 247 242
266 252 250 258 252 256 248 231 284 283 291 292 280 243 249 246 243 250 236 233 219 209 212 220 221 189 147 231 183 237 218 226 216 231 230 153 227 230 242 241 252 240 251
246 250 409 361 396 441 400 321 260 294 258 289 285 276 285 260 246 238 239 221 225 230 229 225 154 188 216 161 217 226 224 225 221 201 207 218 239 221 241 257 265 264 239
226 247 400 376 373 299 361 352 337 334 311 292 285 293 257 277 264 259 172 234 223 123 177 131 228 223 210 190 232 227 230 235 168 243 239 261 247 261 268 253 222 227 238
242 221 225 335 376 353 356 356 338 329 326 322 322 303 290 288 271 258 256 226 201 229 224 225 235 234 228 232 179 240 234 255 249 245 262 267 268 265 231 238 236 240 250
232 266 253 372 364 349 344 355 351 355 360 347 320 313 308 297 258 255 262 254 243 239 238 235 233 233 234 229 179 255 263 265 261 259 246 233 235 228 234 241 251 227 236
246 237 255 239 296 326 321 316 316 315 321 326 316 309 299 295 268 250 225 172 242 244 259 260 196 254 263 254 259 251 239 251 223 224 226 225 234 241 244 257 250 247 240
263 252 252 249 250 281 295 191 298 287 280 286 297 302 288 279 268 258 248 249 250 244 254 248 232 234 256 259 248 251 234 230 232 235 245 246 250 252 249 256 261 246 245
229 230 236 233 257 241 248 259 260 279 278 274 267 262 257 254 253 254 254 256 215 234 231 264 232 228 226 225 215 224 199 240 236 251 251 255 258 251 237 249 248 261 278
227 219 233 234 233 231 230 228 253 240 237 237 231 226 228 229 228 229 228 229 228 223 222 225 223 233 238 236 239 242 250 256 257 249 247 249 254 251 252 302 364 359 386

GFSMA_2pvu_pres_042.txt.gz
Presure
147 84 145 122 152 157 143 112 157 169 171 171 174 110 172 170 170 175 171 167 175 175 171 182 203 201 201 208 213 207 207 216 203 221 206 233 234 228 95 137 84 91 97
154 155 153 140 83 82 118 180 182 169 174 183 184 175 164 172 164 172 171 177 201 215 210 207 208 205 198 214 209 200 221 205 204 203 225 238 214 232 234 172 221 94 98
149 160 167 170 81 164 176 180 181 185 185 190 179 180 179 181 189 193 193 207 217 212 206 204 199 204 206 213 205 201 211 199 201 223 223 236 225 233 227 222 232 212 101
156 171 168 174 178 182 182 181 181 182 183 181 183 184 195 217 216 200 201 214 215 204 200 199 197 206 209 205 198 211 211 199 197 224 223 227 219 228 236 241 220 219 214
169 172 176 179 171 175 181 182 181 183 189 193 205 209 214 212 197 197 214 210 207 202 201 201 207 206 208 198 213 198 205 203 213 225 220 217 223 227 227 237 234 223 217
177 106 183 183 188 191 183 187 199 201 229 221 203 217 218 212 202 215 215 206 213 212 205 211 202 193 209 206 204 205 201 208 211 211 224 223 217 218 231 226 240 230 222
183 186 178 190 194 187 200 191 180 230 193 226 226 218 210 212 215 205 207 216 211 215 209 201 191 195 199 190 195 200 206 202 216 222 226 229 215 217 222 228 225 222 219
170 185 189 187 179 184 158 206 239 229 186 174 224 226 221 216 216 209 173 207 205 199 201 192 190 199 194 200 203 199 201 198 227 224 214 213 215 226 219 228 235 235 225
200 177 177 163 161 164 184 165 197 162 193 232 211 195 196 196 213 193 205 203 202 199 186 191 199 200 199 201 201 204 221 223 218 219 216 222 220 225 218 222 228 221 224
211 155 153 147 190 221 227 175 186 197 225 187 212 212 220 216 207 199 204 203 199 199 200 197 198 197 198 202 216 219 221 221 214 211 214 221 219 225 221 222 230 224 226
166 153 219 243 161 208 198 183 220 225 194 219 189 190 209 199 206 206 203 203 204 205 203 199 203 207 214 219 219 225 224 218 213 214 221 221 212 216 221 225 221 227 218
195 214 161 221 213 193 216 206 224 185 190 207 216 221 220 220 226 236 247 243 241 233 231 226 222 222 223 216 210 217 223 204 218 203 212 213 219 225 221 219 218 225 230
169 168 193 199 238 236 239 234 224 227 229 238 248 250 256 251 158 241 238 235 230 229 225 219 218 223 215 224 214 217 201 210 206 209 212 231 205 215 221 230 232 228 223
239 196 216 223 228 229 228 236 256 263 259 259 245 262 261 252 253 241 236 230 232 231 224 223 214 216 214 221 207 207 209 223 222 231 191 232 214 234 226 235 235 228 220
229 233 220 223 223 240 267 251 261 295 279 276 266 270 268 268 268 259 256 252 246 240 233 232 234 214 203 217 202 228 173 218 195 201 215 229 221 235 228 234 233 226 229
217 216 224 238 268 273 289 277 266 269 281 275 273 278 283 265 255 251 248 252 244 242 244 230 211 204 224 211 199 188 206 216 213 206 218 206 222 226 195 225 227 213 224
226 230 273 294 275 275 265 265 261 265 268 277 246 246 257 258 253 250 242 227 258 242 239 231 225 226 225 193 195 202 203 224 213 201 215 215 217 220 220 222 224 220 230
272 304 277 275 267 268 258 259 260 250 239 259 373 342 248 239 243 230 228 242 277 241 248 226 224 210 205 199 158 208 214 213 213 154 158 177 211 228 234 228 232 237 230
279 267 270 263 259 250 262 261 356 258 365 372 396 358 337 312 291 246 238 240 259 265 262 238 225 223 221 123 222 134 134 166 218 211 226 233 225 233 237 231 233 170 255
256 241 254 255 256 259 269 278 369 371 263 353 358 350 345 331 315 293 283 270 269 274 267 263 261 239 233 228 239 226 227 219 223 223 229 220 232 230 241 239 262 265 274
266 253 243 233 272 268 279 272 332 327 337 311 362 342 339 332 326 303 290 272 269 297 261 265 258 260 244 233 229 226 224 228 230 228 230 195 243 249 250 270 239 244 237
253 246 239 249 259 250 245 254 279 299 303 311 326 333 346 318 322 303 292 300 270 266 284 265 263 250 247 252 254 249 245 236 239 244 238 253 267 269 275 217 232 248 243
251 248 250 244 229 226 249 253 224 243 281 283 280 294 318 322 311 307 304 292 295 279 274 273 257 250 259 252 242 241 250 261 277 286 246 264 247 248 247 248 252 261 245
265 243 254 225 242 264 263 259 259 237 249 244 260 262 254 271 265 280 271 262 267 265 271 249 247 246 247 248 245 243 236 236 241 243 243 247 246 250 247 247 244 245 252
246 254 224 219 228 250 242 243 243 241 244 242 243 243 231 229 245 248 244 243 231 233 231 230 228 229 231 232 238 240 238 238 239 242 242 243 239 242 218 253 263 262 270
263 214 222 227 215 242 238 234 238 240 241 242 235 234 234 234 232 230 230 230 228 228 228 228 229 229 231 234 235 237 238 242 241 238 239 235 257 256 259 268 284 319 310

GFSMA_2pvu_pres_045.txt.gz
Presure
82 151 151 134 93 151 90 145 132 148 134 140 170 177 173 186 181 181 183 203 214 208 211 223 210 205 207 213 209 206 204 206 214 211 200 210 216 200 236 219 231 237 250
140 149 151 129 157 147 138 137 160 144 156 174 175 181 181 182 181 194 215 219 207 209 215 214 212 209 208 200 205 206 208 214 211 210 215 199 199 207 226 235 229 238 234
151 153 154 147 153 160 162 168 163 174 173 179 182 177 184 175 191 185 230 211 228 222 217 216 207 213 203 211 204 212 211 211 203 211 211 212 202 209 229 233 228 228 238
156 149 152 158 158 168 177 175 176 183 180 177 179 182 180 192 183 193 225 214 207 196 202 212 216 210 207 214 212 215 206 203 196 200 196 195 205 202 234 224 229 230 233
151 153 160 169 178 178 184 178 186 182 178 194 191 192 196 202 185 210 213 188 161 212 221 218 208 200 212 173 212 200 199 210 192 194 196 202 206 212 230 226 220 217 231
169 178 178 176 178 185 183 182 188 192 190 175 203 171 168 189 234 192 187 188 175 200 189 198 192 198 206 203 195 196 197 194 197 207 203 201 212 219 229 225 216 224 224
175 181 182 184 181 181 175 176 186 187 184 199 171 162 159 213 152 191 181 234 205 209 218 223 216 212 201 198 202 197 199 205 206 205 204 207 219 227 228 208 217 221 225
170 179 170 184 191 183 181 191 173 196 184 161 153 191 222 192 200 191 214 225 191 208 203 205 204 206 202 203 201 197 201 201 204 203 211 216 224 222 230 228 225 217 229
179 186 182 179 183 153 184 166 190 194 164 161 172 214 190 226 208 220 220 201 195 190 192 198 200 204 202 199 200 205 204 204 200 227 226 221 217 225 227 222 217 211 221
168 185 149 186 175 160 196 204 194 153 220 193 179 198 217 227 218 205 225 218 210 210 212 218 217 215 230 230 231 228 226 221 215 221 220 216 208 226 227 212 222 220 220
192 181 195 160 159 193 203 191 213 164 196 222 202 227 229 230 226 229 235 234 243 254 250 249 244 243 238 231 220 216 218 214 212 220 212 233 216 223 229 206 222 212 221
164 171 197 199 201 183 216 183 209 224 220 221 222 215 202 232 233 255 258 259 245 245 249 241 236 228 227 224 223 216 215 218 212 209 206 214 208 210 212 215 214 226 203
195 197 201 206 210 236 230 247 234 220 232 224 229 236 245 141 269 260 262 264 271 275 268 267 258 250 239 232 230 188 220 217 208 229 229 217 211 197 215 197 234 187 185
181 179 185 226 193 221 242 211 225 228 233 239 261 284 246 278 277 276 270 264 275 268 267 257 251 252 255 254 218 170 214 214 221 220 214 207 213 193 147 251 215 207 232
188 197 206 200 215 234 230 231 225 237 260 280 285 278 278 274 276 276 257 263 251 245 243 230 262 251 235 252 198 206 236 222 204 219 206 205 189 151 213 210 199 217 217
224 181 247 245 236 226 227 233 244 274 216 261 269 270 278 274 277 271 259 258 247 245 253 220 218 262 251 243 228 209 215 176 223 220 193 205 199 218 204 201 211 214 206
251 88 235 228 223 233 237 288 267 260 257 256 272 322 410 397 347 342 304 308 280 250 225 232 217 213 253 221 224 230 229 232 215 211 205 215 218 226 199 211 213 212 168
233 225 217 231 233 262 237 273 268 265 248 276 264 277 380 380 361 183 382 340 315 290 289 263 259 234 206 197 202 221 221 235 220 214 212 205 229 225 215 159 216 220 213
218 225 232 282 274 279 281 271 260 249 254 239 248 236 371 372 372 208 353 342 317 298 278 273 262 255 230 249 227 231 224 235 239 232 126 227 235 222 161 214 221 224 221
228 238 260 259 260 279 268 254 242 258 234 264 270 265 352 349 344 339 355 331 308 305 299 278 262 253 266 241 252 243 251 240 227 229 219 235 222 228 222 226 230 232 233
281 278 265 250 267 273 257 245 255 238 264 256 265 265 266 264 355 326 330 346 306 304 301 289 275 260 260 263 258 248 242 251 251 234 228 228 223 228 226 223 239 239 241
281 263 293 269 268 261 257 256 231 263 253 248 257 255 263 239 271 289 319 326 319 186 321 301 284 272 259 257 264 273 290 274 266 262 238 237 240 253 255 255 262 267 262
298 282 271 275 262 261 254 230 238 246 243 247 252 251 248 252 251 228 258 257 264 267 266 266 290 297 285 280 271 269 279 263 256 266 267 273 276 276 263 262 258 248 245
279 258 275 257 270 254 238 224 226 236 230 239 237 233 236 245 246 250 252 245 245 243 242 240 239 236 235 233 229 234 235 234 233 232 235 235 234 238 241 242 244 247 251
262 266 266 259 259 243 226 223 218 216 222 220 235 232 220 236 237 237 232 231 231 231 231 231 230 230 230 230 231 231 230 233 234 236 238 240 241 243 181 186 219 240 243
255 268 239 251 244 231 218 215 221 214 215 216 222 220 218 222 222 225 224 226 223 218 223 217 217 217 216 219 227 228 229 234 237 243 246 248 192 254 260 267 275 286 321

GFSMA_2pvu_pres_048.txt.gz
Presure
145 149 141 140 83 110 153 156 153 156 152 156 158 179 173 175 174 176 176 191 189 197 197 241 224 221 205 220 178 217 217 220 205 212 212 210 211 205 208 207 197 195 203
136 81 146 151 154 78 151 159 149 151 159 78 181 177 169 180 170 183 186 197 192 184 232 236 216 184 190 201 225 219 203 211 210 213 196 197 204 199 205 189 193 200 210
149 144 148 148 153 146 157 151 158 168 175 179 180 174 187 177 181 187 194 204 187 183 164 218 185 178 193 170 219 223 202 197 189 199 202 203 196 196 200 192 211 199 218
150 152 156 152 152 154 155 161 169 172 176 178 173 192 179 177 182 190 192 182 182 200 182 213 154 194 188 198 197 207 211 215 212 204 196 210 201 202 198 208 210 211 232
149 147 150 153 166 160 156 167 166 181 178 179 178 185 185 174 182 192 178 192 152 198 167 200 191 234 227 173 222 190 183 183 200 207 202 203 204 200 204 208 209 214 224
159 154 156 163 158 159 166 176 181 171 177 168 165 189 175 157 174 166 173 190 204 215 222 195 218 224 223 227 216 210 200 198 198 202 198 200 199 201 205 206 206 226 217
161 164 158 157 168 177 162 182 168 154 165 182 186 177 168 162 202 226 186 203 215 219 202 227 225 222 212 217 212 213 203 199 200 200 196 200 201 205 210 216 223 224 221
160 153 175 173 167 184 170 174 158 176 185 178 191 161 201 210 226 227 235 234 223 220 226 225 219 197 224 214 217 223 213 214 209 207 206 221 222 221 222 225 222 218 224
168 163 146 173 172 144 174 170 168 188 172 153 199 194 199 188 181 239 221 219 225 220 210 220 226 231 230 234 235 236 237 236 236 233 231 225 226 223 221 225 214 216 213
167 176 173 165 135 167 161 162 191 159 186 200 187 186 189 225 248 216 229 234 225 227 236 246 249 255 251 246 245 228 227 143 229 228 227 211 210 219 216 217 217 215 212
180 190 187 164 190 191 156 184 189 185 178 197 192 205 238 239 216 235 226 211 238 259 277 269 235 260 253 259 249 243 239 233 237 225 218 217 216 216 214 211 208 211 213
153 178 181 194 180 179 188 180 188 176 209 218 252 229 234 231 233 219 243 263 259 240 254 280 251 253 243 250 259 251 257 249 243 230 228 223 219 215 215 204 204 215 249
188 173 175 177 179 189 191 181 200 211 230 249 246 234 238 230 242 290 264 279 277 267 267 257 255 259 259 251 253 235 248 269 243 248 229 225 218 230 218 216 214 190 208
163 178 179 174 189 190 190 204 208 230 231 236 238 228 161 278 77 277 274 271 262 258 270 280 270 264 257 237 232 228 234 231 227 224 230 216 222 226 214 223 211 196 214
180 177 189 190 189 187 207 203 251 232 237 235 228 256 284 267 276 273 265 272 264 248 257 245 303 268 242 250 244 223 222 212 209 237 223 216 208 213 221 218 225 219 213
189 192 198 191 210 207 114 255 229 243 233 233 267 247 273 256 260 255 266 253 298 404 383 353 318 320 292 253 242 228 231 231 206 207 223 214 219 215 210 180 172 205 215
197 194 202 203 187 229 254 238 241 228 244 291 267 258 265 255 253 258 269 338 377 378 370 354 347 307 291 280 260 229 198 217 202 195 201 224 225 196 214 212 213 208 213
198 204 214 175 260 249 239 237 232 249 280 267 239 273 259 256 261 261 274 360 363 366 354 409 334 305 332 321 266 252 247 236 214 203 199 204 241 216 202 199 204 221 225
219 233 263 249 245 240 235 244 257 280 258 266 268 263 253 255 262 268 262 271 362 354 356 362 296 284 275 297 278 267 259 263 231 241 237 231 206 204 204 229 195 211 231
259 246 249 241 240 237 247 280 276 271 264 271 266 247 239 256 250 246 260 276 265 347 364 353 312 292 287 286 278 272 263 265 268 246 239 225 220 216 215 229 216 232 229
244 243 237 239 240 254 286 265 283 256 279 265 250 231 246 238 240 236 230 248 263 259 263 316 343 327 311 298 272 263 253 249 255 251 254 242 228 240 237 230 234 241 239
238 240 236 243 289 281 268 275 257 267 268 254 236 236 223 223 226 230 225 234 239 234 245 250 248 263 338 331 304 294 289 276 269 268 262 258 261 259 253 255 252 257 254
241 238 271 285 267 278 248 267 273 282 259 242 229 221 220 219 222 223 229 227 229 229 232 233 231 236 237 237 240 238 237 235 236 238 245 274 268 259 266 285 295 300 302
253 276 290 255 268 252 287 272 251 267 246 230 217 219 224 217 226 218 211 223 219 219 220 227 227 229 227 227 228 227 224 224 223 223 227 230 229 234 234 236 235 235 235
271 279 253 251 255 308 260 275 246 253 234 226 221 216 227 226 224 218 213 216 218 222 222 217 249 256 230 228 226 223 221 224 225 224 226 237 237 238 238 238 244 251 252
270 251 262 265 321 267 271 249 251 247 238 229 221 223 220 220 224 217 204 221 219 229 224 250 265 258 229 220 213 216 217 234 247 245 245 250 254 260 262 262 271 254 264

GFSMA_2pvu_pres_051.txt.gz
Presure
141 149 146 147 152 79 101 150 152 154 159 159 152 164 154 161 154 174 177 171 167 184 189 173 197 227 208 230 194 217 181 199 209 225 188 223 194 201 214 213 206 202 195
141 145 145 144 87 148 148 147 155 151 150 160 163 154 165 177 176 170 172 179 162 188 186 188 199 204 219 238 217 214 198 202 224 227 203 202 204 204 189 190 213 204 204
149 146 145 154 148 147 145 153 159 161 163 158 155 172 177 175 170 177 178 173 193 192 204 200 226 184 184 235 202 209 207 214 221 213 216 214 209 194 192 195 196 210 194
150 152 155 144 152 151 150 152 156 162 151 146 164 169 169 172 171 152 161 197 198 202 184 197 191 194 225 215 213 205 217 223 218 206 219 217 205 201 211 195 203 207 204
157 146 151 154 149 154 151 161 163 145 149 166 157 169 175 167 147 169 182 197 196 167 191 183 235 240 239 221 223 222 216 196 201 196 210 204 199 201 198 198 200 204 204
151 146 149 150 145 162 161 155 146 144 175 164 176 180 176 174 159 201 170 181 190 193 237 242 240 231 216 230 228 224 215 219 225 225 224 215 214 214 217 204 205 207 207
141 137 149 162 151 155 146 150 158 174 166 178 181 177 148 188 181 171 177 144 187 248 243 235 238 229 228 225 216 212 222 231 232 228 229 223 221 220 217 219 218 222 217
160 159 158 149 158 155 167 168 161 165 177 158 151 186 189 168 177 174 187 191 215 247 242 228 232 231 224 228 247 245 242 242 244 237 223 222 228 222 226 218 223 222 225
159 160 148 162 162 162 168 167 168 146 165 177 166 164 164 171 189 183 191 214 233 240 235 235 230 246 256 264 259 262 241 219 240 244 235 234 229 220 212 215 207 221 221
161 163 159 155 168 155 163 168 142 173 159 181 185 178 178 186 197 187 212 230 243 219 235 260 280 278 279 274 281 267 269 239 247 257 246 233 236 227 224 219 220 218 217
157 162 165 164 161 171 176 177 169 178 174 168 175 178 192 198 195 213 245 245 218 246 276 261 290 267 271 270 262 267 254 244 251 239 280 238 236 235 232 224 221 216 217
169 160 158 172 179 171 172 164 167 166 170 175 176 194 195 197 209 253 247 242 254 309 292 284 265 266 258 252 252 252 250 238 231 234 223 241 228 268 241 237 225 217 213
173 176 172 167 164 168 178 184 190 187 192 188 198 194 185 230 254 240 242 251 291 289 269 263 262 259 260 256 270 251 254 249 248 247 228 223 235 228 254 247 227 222 220
169 154 154 169 172 189 190 190 198 193 194 200 198 191 216 247 239 199 250 294 275 278 265 262 267 274 280 292 280 262 255 286 222 226 230 215 223 229 235 221 228 232 228
179 180 157 188 189 196 189 196 197 197 199 201 199 216 247 241 240 256 294 281 274 270 267 265 270 272 371 386 375 379 271 265 258 256 236 244 213 218 218 216 218 240 229
176 180 174 182 191 189 189 194 198 197 201 220 233 250 247 243 270 294 280 272 267 263 264 246 249 298 396 375 381 390 291 281 280 271 271 239 235 222 205 205 215 241 237
187 187 187 177 188 191 196 199 196 204 241 252 247 246 240 273 287 279 270 266 253 253 251 246 243 316 365 366 374 336 338 277 276 282 273 259 227 205 204 211 219 189 218
191 193 199 198 203 205 207 98 266 251 251 242 244 241 280 292 275 277 269 254 243 230 243 233 230 251 379 355 320 305 311 292 281 271 266 263 252 216 206 218 213 207 207
201 222 221 216 216 223 252 242 254 246 242 241 241 280 277 278 279 272 256 242 225 221 230 232 226 235 260 311 320 311 300 317 269 279 271 258 247 232 228 212 212 208 207
227 237 230 249 258 230 260 249 242 244 244 246 279 267 268 274 275 258 245 239 224 225 228 218 229 223 231 244 247 270 306 283 296 287 265 249 249 244 244 244 268 229 236
243 261 262 222 254 253 243 239 249 245 266 279 271 285 271 282 264 249 237 216 225 218 228 222 225 228 234 223 256 234 238 260 276 283 280 281 263 258 253 251 249 249 242
249 249 262 253 248 241 240 250 251 288 281 252 263 262 266 273 252 242 224 221 226 232 228 232 232 226 232 236 265 274 258 226 230 232 234 241 254 275 269 269 269 257 252
254 239 252 240 239 242 253 259 288 269 245 258 298 272 260 262 247 229 227 213 230 224 228 221 232 230 206 209 264 271 264 223 236 226 223 224 221 221 222 224 226 230 268
238 245 239 236 246 241 263 286 256 258 264 309 260 267 242 255 235 231 221 223 226 208 223 197 204 205 205 269 264 254 249 246 232 230 235 232 234 231 221 222 226 227 226
230 233 234 247 241 263 277 254 249 278 315 281 267 256 250 248 236 222 219 226 203 215 210 206 248 258 267 253 245 242 240 242 246 249 249 248 248 251 254 251 251 252 253
228 230 252 248 277 273 248 243 324 297 265 272 263 259 259 201 248 191 202 198 214 230 235 244 259 258 241 234 231 242 250 265 269 271 266 265 270 271 274 273 269 269 267

GFSMA_2pvu_pres_054.txt.gz
Presure
131 127 126 140 133 140 146 148 122 151 158 143 156 152 160 150 151 146 169 161 177 182 173 145 172 181 175 179 163 220 229 239 229 220 221 214 213 217 201 224 216 214 216
146 138 134 140 146 155 148 151 150 147 149 155 153 158 150 145 151 166 164 169 182 174 168 195 179 173 189 186 208 259 249 233 227 214 213 214 220 209 204 200 195 216 200
138 149 144 152 140 142 152 141 152 150 148 154 152 150 145 162 166 152 167 179 182 172 163 193 172 174 161 179 221 244 241 223 229 221 224 220 204 198 192 213 212 210 207
144 147 142 148 149 153 152 153 155 141 162 153 152 149 160 155 145 163 173 151 155 186 184 186 179 176 201 214 246 239 219 227 228 222 221 212 217 217 225 222 225 220 205
146 151 154 146 149 151 146 141 145 158 156 149 147 152 157 159 161 174 168 167 181 169 171 185 182 204 205 236 246 236 224 229 227 233 230 223 230 229 225 225 219 214 215
159 141 145 152 145 152 149 150 161 159 154 152 162 157 167 169 169 173 179 179 177 178 182 181 204 195 223 248 241 230 246 257 261 256 248 243 241 231 227 224 218 223 211
150 151 149 152 146 151 151 161 150 144 159 167 153 143 158 165 175 175 181 175 187 176 196 204 199 214 251 242 236 253 267 262 253 176 274 247 153 236 230 228 223 221 214
140 149 145 147 151 157 156 140 156 162 162 152 150 164 167 175 164 175 181 187 175 200 203 203 201 241 243 240 262 293 293 292 287 285 271 263 246 243 233 235 229 222 222
155 158 156 159 160 161 151 163 161 167 150 161 154 172 179 167 172 184 193 176 200 202 201 197 252 248 243 256 292 282 262 263 268 266 261 260 267 274 248 220 238 231 221
159 156 148 128 159 159 160 164 162 155 146 165 173 178 176 181 187 192 186 189 194 199 196 252 246 244 267 286 277 273 276 263 260 267 261 225 243 254 244 224 260 238 227
158 159 160 159 165 162 160 152 156 160 168 175 163 168 168 187 188 203 192 193 200 202 252 238 247 281 150 265 276 274 261 254 258 256 253 253 252 239 225 242 215 264 236
162 164 167 161 161 159 168 169 171 173 176 181 182 177 187 175 188 177 199 180 214 251 158 248 273 290 278 274 262 257 248 260 250 259 255 254 249 234 236 245 228 225 249
160 165 169 175 172 175 162 178 176 167 179 183 171 173 186 183 190 201 205 242 253 252 251 262 286 231 272 258 252 247 244 246 265 373 367 263 250 246 243 218 228 232 242
175 166 165 156 176 183 182 177 180 176 187 170 188 193 196 196 201 224 246 255 243 253 258 288 274 272 261 248 248 237 240 245 389 370 396 299 293 255 240 257 239 229 233
181 157 172 172 177 176 161 171 188 187 190 191 197 193 201 198 226 253 253 246 257 254 293 280 272 259 252 232 229 241 235 243 373 368 349 294 268 281 242 221 252 226 231
181 183 182 180 178 176 186 184 188 190 179 189 201 193 221 240 232 252 248 254 255 292 287 276 262 249 239 229 231 233 231 243 382 373 331 285 268 264 244 244 244 235 228
175 183 186 189 193 191 189 187 187 190 197 198 231 250 250 237 254 246 254 264 281 283 277 265 254 244 223 225 237 226 229 240 249 366 308 284 265 257 272 263 242 221 238
181 183 182 180 188 190 185 193 200 199 253 257 264 251 240 253 242 252 276 270 278 273 275 259 249 234 226 226 234 231 233 242 231 246 308 295 270 271 260 262 279 272 251
184 178 194 192 186 200 198 195 242 255 247 248 264 250 245 240 252 299 268 253 282 277 267 253 242 222 225 232 229 212 240 269 239 269 236 285 284 278 267 258 251 269 255
263 224 228 249 236 254 249 234 263 246 250 259 249 243 239 251 289 273 250 274 268 272 259 247 232 219 225 226 237 230 257 205 209 276 262 239 229 282 281 273 271 255 254
249 247 247 245 249 258 261 230 250 261 251 253 245 238 249 295 265 256 248 287 263 263 249 239 231 224 226 191 235 229 247 272 257 257 251 246 220 217 228 235 282 279 268
245 256 241 252 286 257 247 255 255 245 246 240 247 259 288 264 249 284 294 259 261 246 248 237 234 234 203 227 205 246 266 248 244 240 241 243 243 252 249 237 224 224 224
265 259 266 246 251 254 243 250 244 244 246 251 279 275 256 245 269 304 273 268 250 248 235 230 194 218 202 236 213 253 266 239 236 231 229 234 240 254 265 251 250 247 242
280 264 252 249 248 252 239 244 242 248 259 282 268 251 241 316 308 280 268 262 255 235 208 205 200 237 210 228 246 266 239 238 233 231 238 240 247 274 272 269 266 260 253
254 244 245 252 240 239 238 238 262 245 270 260 252 256 273 277 265 259 264 237 230 247 235 226 239 211 249 252 266 239 230 232 233 227 240 245 268 285 282 281 282 280 272
234 242 244 242 235 231 236 251 243 129 254 298 287 268 253 250 248 243 239 240 240 240 238 242 249 260 264 236 228 232 242 247 235 232 242 256 292 296 294 304 327 313 300

GFSMA_2pvu_pres_057.txt.gz
Presure
144 146 137 137 150 144 126 133 144 146 142 153 144 149 139 134 158 155 149 158 156 158 156 169 178 171 179 190 190 190 205 203 211 253 244 237 221 225 225 223 213 212 208
131 145 131 145 144 139 145 146 142 147 150 152 148 139 149 157 158 152 159 156 162 160 170 157 181 168 192 187 196 197 198 202 233 260 249 231 233 236 233 226 224 216 214
151 153 154 88 144 145 144 142 152 149 150 146 140 151 148 157 144 155 162 162 152 176 163 183 169 189 189 192 200 195 204 214 250 249 235 234 232 244 231 228 227 224 219
144 144 149 149 146 148 152 149 149 154 146 148 140 158 153 150 156 161 158 169 143 160 176 173 182 184 184 198 192 206 195 231 248 235 238 245 256 248 247 232 224 220 220
142 144 144 145 153 147 139 149 151 143 148 143 159 156 157 160 162 153 161 147 155 174 186 182 186 189 186 191 205 209 247 251 248 243 254 287 288 251 248 255 236 229 227
139 148 150 145 147 142 149 144 150 155 147 158 160 160 158 144 161 150 150 171 180 182 185 185 176 185 199 206 211 240 250 251 249 282 300 274 273 271 263 258 245 242 237
144 148 145 146 151 149 150 148 149 159 151 157 158 152 141 168 156 167 170 172 179 182 188 174 191 201 202 207 230 253 255 253 300 280 268 272 264 263 266 279 259 241 242
152 149 144 153 153 148 157 160 154 161 146 161 159 148 158 155 169 172 179 172 182 178 191 191 200 199 202 254 243 255 254 291 298 223 270 265 262 261 257 250 259 270 241
150 155 149 155 158 156 157 163 157 136 158 158 167 164 166 158 172 169 184 178 179 191 189 189 196 203 238 241 230 247 285 304 287 273 256 251 239 244 238 260 234 247 264
155 151 148 151 150 157 156 159 165 159 159 160 158 167 169 165 166 175 159 179 187 188 185 194 202 225 248 236 251 275 296 291 277 256 251 241 234 231 236 237 249 236 222
150 156 156 159 158 156 158 162 162 166 144 167 171 179 166 178 178 175 175 175 180 185 190 200 214 261 247 244 262 298 291 280 260 241 242 240 241 229 229 225 239 256 230
161 159 158 152 158 158 157 163 166 161 168 172 176 156 179 188 177 185 180 197 186 192 194 216 257 242 250 260 295 279 285 267 250 235 239 242 240 233 245 297 263 237 247
159 165 161 157 159 162 163 168 169 169 171 179 157 185 182 185 188 193 194 188 195 193 216 253 238 251 256 291 280 290 272 256 238 229 244 245 242 241 389 382 276 231 233
169 168 167 169 174 172 172 170 171 178 175 186 189 175 187 186 186 188 189 198 197 260 253 243 248 253 293 268 281 276 259 249 228 234 242 250 291 323 405 372 286 264 256
178 178 178 179 176 179 179 179 183 186 185 181 186 185 188 176 188 195 199 208 257 262 254 247 242 292 267 276 283 266 253 229 234 235 242 253 233 316 395 361 290 279 278
165 166 182 155 180 182 183 185 189 187 188 189 181 195 173 192 199 198 214 236 269 256 253 240 265 278 254 282 272 258 243 226 230 234 244 280 212 228 398 277 267 261 253
170 154 185 187 185 187 183 172 167 192 187 186 186 169 193 200 236 229 242 264 259 258 246 253 280 257 267 279 262 252 233 226 229 210 244 202 293 239 232 271 266 271 262
165 163 171 151 163 177 188 155 186 186 185 190 192 195 217 280 240 256 242 257 252 249 264 285 256 251 275 266 253 245 232 229 233 194 220 209 267 271 257 220 295 275 284
172 178 154 175 193 191 182 190 176 186 200 235 254 229 276 235 261 240 252 250 248 267 286 254 265 288 266 261 250 238 234 236 198 203 204 262 227 240 247 257 244 262 259
182 188 180 172 176 177 241 206 238 253 220 258 264 274 247 251 256 248 250 256 276 277 255 250 297 277 264 249 249 235 234 216 238 246 205 257 237 241 238 234 242 256 243
184 185 190 232 261 186 246 243 232 251 235 270 188 256 242 253 251 247 270 297 267 251 280 267 290 268 254 250 237 207 206 199 223 239 258 256 237 232 229 228 242 244 238
249 247 239 249 214 255 278 244 244 237 254 255 244 261 248 249 241 260 280 263 251 319 311 286 271 262 256 234 257 236 231 240 245 262 271 235 230 233 241 232 228 232 240
258 244 277 265 278 255 262 255 255 252 252 245 252 244 240 248 287 277 263 297 279 258 256 262 254 238 246 240 239 241 243 255 266 234 228 237 247 247 243 234 223 241 245
250 238 269 252 241 256 246 273 251 242 237 240 242 241 245 267 267 290 282 272 254 261 250 243 246 246 243 244 247 258 257 234 228 240 246 241 240 244 241 234 249 252 265
249 263 263 250 238 267 258 240 232 245 237 239 235 258 254 263 255 294 275 263 257 253 253 251 250 253 260 257 234 226 237 250 240 235 233 242 252 249 247 253 264 284 310
264 242 236 256 243 250 241 226 240 237 233 234 241 241 261 248 230 281 303 288 281 272 265 251 236 228 227 243 246 230 226 232 228 225 226 245 250 253 262 275 286 303 342

GFSMA_2pvu_pres_060.txt.gz
Presure
153 151 145 144 142 144 144 138 138 136 146 134 147 150 146 151 149 140 145 157 150 161 149 148 161 147 168 175 188 184 193 189 189 201 214 233 260 251 244 240 231 224 238
151 132 151 151 145 145 142 152 151 151 149 145 152 144 151 137 145 157 144 153 160 148 144 163 150 169 180 189 162 172 190 186 204 206 241 250 246 232 241 237 236 240 241
142 150 158 156 152 152 153 146 150 148 147 154 140 150 140 150 143 155 144 159 137 143 169 154 167 171 176 177 160 189 188 190 203 218 256 240 243 247 247 265 269 261 247
133 135 139 134 138 139 142 141 143 154 143 137 148 149 158 142 161 148 159 169 152 167 153 161 165 175 178 178 187 185 191 204 209 245 248 251 256 260 285 300 297 285 268
145 131 139 137 135 141 146 139 152 148 156 145 151 156 154 159 141 154 166 154 161 152 163 170 179 183 191 182 195 194 199 203 226 252 252 259 268 307 305 278 268 246 265
148 149 150 141 144 145 150 144 150 141 153 160 157 155 157 152 152 158 152 157 166 162 170 184 185 191 189 185 191 192 200 212 249 244 254 274 311 304 281 273 271 266 267
154 158 150 143 149 150 147 149 161 148 155 159 148 149 161 145 155 165 160 168 164 169 173 165 190 181 184 191 193 206 214 231 265 257 253 292 292 278 276 257 262 257 264
146 152 147 150 155 138 149 144 162 149 150 155 137 159 151 159 154 157 162 161 171 170 177 189 184 191 183 193 198 204 223 265 262 255 295 271 279 278 255 253 239 227 233
139 145 128 123 147 127 155 153 151 139 152 153 158 158 158 149 156 161 164 171 162 180 190 185 193 190 193 201 203 218 249 174 257 293 279 289 210 259 244 231 223 228 222
160 150 144 158 159 154 145 151 132 157 152 154 156 160 156 158 163 164 173 173 182 187 177 193 188 194 201 196 199 238 255 255 265 284 278 281 265 256 239 224 223 224 230
162 163 163 161 158 137 155 151 160 162 160 164 158 163 166 168 178 167 179 176 183 183 192 189 186 189 199 204 218 257 254 254 297 273 281 271 257 248 233 250 245 242 231
175 166 163 170 163 159 162 160 154 153 157 151 149 170 173 174 180 182 185 184 187 179 194 184 202 192 201 258 247 251 258 271 279 270 281 267 254 228 246 254 251 294 231
189 187 163 171 167 163 161 168 167 172 164 178 181 180 181 189 164 188 188 191 194 189 171 200 180 207 255 246 256 260 265 290 256 260 276 259 244 229 240 265 259 219 251
151 127 183 185 186 181 178 176 175 175 171 165 174 183 188 175 189 189 154 189 198 175 190 190 244 255 253 251 260 256 286 267 254 285 268 252 235 231 242 247 204 234 367
150 191 190 185 160 161 176 176 176 175 178 181 185 185 185 184 193 151 191 198 184 168 193 267 247 234 254 251 253 267 277 252 280 272 259 244 236 236 232 241 222 338 242
178 174 194 192 190 187 179 173 186 185 174 173 142 181 181 181 152 158 190 192 156 201 262 248 233 257 251 252 265 284 252 292 275 266 253 242 238 241 211 234 233 335 347
152 131 129 164 153 186 159 171 157 166 149 164 163 175 186 178 184 174 229 163 248 253 252 261 257 251 256 270 281 255 253 283 266 259 249 238 240 205 210 209 247 255 265
177 170 163 146 153 161 165 164 161 169 172 181 183 180 170 183 191 192 258 219 214 259 226 261 258 255 280 288 256 247 269 276 262 251 246 230 238 204 246 266 253 245 239
175 158 157 158 163 168 167 158 171 186 181 185 185 195 227 194 198 216 237 245 216 245 260 257 261 293 272 262 271 283 279 268 253 253 236 247 202 244 259 275 249 235 231
205 178 173 190 181 190 184 185 169 200 191 193 192 170 190 194 250 262 228 262 234 254 255 285 287 304 327 313 301 274 263 258 251 234 244 243 242 263 267 240 226 230 236
276 277 245 200 200 230 218 183 196 198 252 219 196 185 236 254 252 246 262 243 251 256 285 279 294 278 302 258 271 268 258 242 240 242 245 254 264 241 233 245 254 247 236
258 272 272 242 286 275 278 275 264 241 240 288 220 251 249 260 252 228 244 253 245 279 273 297 282 265 252 266 261 249 247 246 249 259 255 233 231 252 241 239 232 232 234
244 275 278 247 173 246 240 245 291 270 251 246 249 235 252 268 249 238 245 243 253 267 257 286 270 258 253 246 249 254 256 254 236 234 245 239 229 233 237 236 232 231 243
277 274 242 241 321 302 258 239 240 266 254 245 238 236 260 241 233 242 239 240 262 255 242 278 288 278 269 261 248 237 232 221 226 227 228 231 232 226 229 234 240 245 254
303 297 314 298 297 285 278 227 257 253 242 243 257 246 239 230 233 238 230 242 255 253 240 233 223 238 235 230 225 213 220 229 224 228 227 227 227 226 226 237 244 252 259
301 306 289 280 270 266 264 252 252 240 242 252 243 241 226 228 235 240 242 238 250 250 242 234 225 230 212 220 224 220 227 227 225 226 223 224 220 224 231 241 249 259 273

GFSMA_2pvu_pres_063.txt.gz
Presure
134 147 101 85 108 152 153 146 150 150 148 144 151 157 156 139 159 145 151 140 160 149 160 158 159 155 158 158 170 169 166 185 191 181 191 195 204 222 246 261 253 248 249
125 145 143 153 135 143 159 151 153 159 154 154 151 145 141 155 140 153 138 160 153 158 157 150 148 161 161 153 165 174 181 179 188 187 200 194 216 263 256 264 253 255 268
150 142 121 140 134 144 142 143 142 140 143 140 144 147 151 143 152 157 150 159 150 157 153 151 158 159 168 168 166 179 186 189 182 192 210 205 211 254 267 258 263 297 320
149 146 151 137 146 137 136 132 134 129 136 134 148 142 145 139 139 158 156 150 153 158 147 167 160 154 168 173 182 183 185 195 198 201 197 216 260 264 261 276 299 307 297
138 139 143 142 150 148 149 147 127 148 144 147 149 145 157 157 152 153 150 153 138 157 153 159 162 167 172 176 179 194 184 199 191 198 214 233 270 267 260 303 299 283 272
142 144 140 140 142 141 146 152 152 158 155 150 149 147 159 145 160 148 158 136 160 161 166 161 168 165 179 185 194 192 196 184 201 203 263 262 265 261 300 282 292 282 265
157 150 151 155 150 153 145 143 140 152 149 145 133 158 152 151 149 135 156 160 170 169 157 170 170 182 174 200 189 187 183 198 206 223 230 256 262 263 289 289 285 271 250
157 158 151 151 151 154 153 158 155 150 141 128 129 157 144 152 167 141 170 163 165 159 171 174 190 193 197 193 182 172 187 194 196 236 257 233 265 283 278 291 278 263 245
156 163 163 156 153 155 153 162 163 140 120 156 163 162 158 152 166 170 165 162 173 173 184 189 164 197 188 180 190 171 191 206 248 243 234 271 257 293 263 282 276 264 241
170 167 141 163 162 161 153 140 144 149 138 162 159 167 169 158 163 162 170 156 175 186 167 170 195 195 174 198 191 194 223 196 213 239 252 255 276 277 256 286 271 255 234
169 186 189 184 181 173 128 171 164 162 167 169 171 172 166 168 173 169 176 179 163 175 181 189 190 152 201 173 193 192 233 221 214 266 264 254 286 261 284 279 269 250 213
135 185 186 172 186 175 180 183 164 177 174 179 184 185 183 181 142 189 175 165 170 183 186 190 181 191 182 195 155 242 214 239 258 255 253 267 280 255 280 273 262 256 239
161 177 168 155 163 184 187 184 158 178 169 155 185 185 182 171 178 177 183 166 174 188 191 184 179 190 204 222 195 197 223 267 258 259 268 285 256 280 270 265 255 250 254
145 180 183 189 182 166 172 173 160 176 147 169 179 187 184 184 188 189 146 182 188 177 171 196 193 210 217 263 206 219 265 260 258 254 282 269 249 277 269 258 249 250 246
131 126 123 148 130 142 146 161 126 141 154 153 165 173 162 140 168 177 187 163 198 175 179 195 192 203 201 205 244 262 270 260 259 289 275 256 260 267 265 253 250 245 219
196 183 181 165 143 173 132 97 152 156 163 147 156 136 166 157 149 169 172 175 178 166 196 175 210 204 206 274 266 261 262 267 290 269 268 262 280 264 257 254 246 242 197
216 210 197 126 184 152 180 185 179 171 179 167 165 137 169 148 182 157 179 189 203 195 189 199 199 235 253 268 262 271 288 287 329 312 298 282 261 263 253 242 250 246 243
228 216 218 209 197 197 198 153 178 175 155 142 165 150 171 177 184 196 174 188 220 196 226 171 252 177 251 244 268 299 302 334 320 302 289 277 264 254 244 244 249 255 261
249 242 234 219 207 212 206 196 195 167 187 163 166 169 173 195 182 192 209 203 259 224 241 246 252 253 248 261 288 314 294 281 255 272 243 270 251 241 249 254 268 242 231
204 192 267 262 252 242 219 206 206 202 199 188 221 197 209 243 212 204 245 226 251 262 252 248 250 243 249 286 272 290 274 263 255 246 255 244 248 251 269 248 236 243 239
131 124 118 167 258 250 253 260 253 248 279 246 274 257 238 266 263 260 254 244 266 254 248 249 241 246 254 277 259 286 271 259 254 251 258 255 263 241 227 230 228 231 236
228 259 250 236 265 264 267 261 160 242 249 256 264 266 240 272 250 265 240 236 253 240 246 257 244 232 238 268 251 239 268 264 260 249 238 232 219 225 228 228 234 229 227
264 260 266 181 262 246 253 238 243 184 240 249 245 248 260 236 237 238 250 242 243 255 243 239 225 241 250 262 252 237 230 226 230 216 221 223 224 235 231 227 226 227 221
291 279 284 280 289 275 274 275 278 211 205 321 286 283 259 258 246 252 239 235 250 239 232 233 228 247 244 254 256 244 237 228 227 222 214 214 215 227 229 219 228 228 220
272 261 259 263 348 346 341 281 269 281 301 272 278 267 262 245 249 226 237 251 234 229 240 247 240 235 242 255 248 248 241 237 229 227 225 224 221 229 218 219 224 225 219
293 292 295 294 341 343 334 315 299 292 279 270 196 263 250 243 238 236 250 237 227 233 232 228 240 240 243 251 242 249 243 245 238 226 218 230 233 234 216 221 225 221 226

GFSMA_2pvu_pres_066.txt.gz
Presure
81 145 115 84 142 134 144 146 156 157 144 149 157 155 152 146 138 142 141 145 155 140 146 156 165 152 156 159 155 158 171 177 175 191 173 193 189 191 200 243 239 272 261
82 140 148 147 151 153 142 152 144 126 139 133 141 143 135 131 130 142 140 157 133 143 140 160 153 158 146 168 167 169 175 185 182 193 185 171 201 199 241 225 257 233 269
132 142 146 143 144 157 141 151 145 139 139 136 142 140 137 155 160 149 156 147 149 158 150 158 159 160 162 176 156 173 182 162 190 184 196 189 189 205 231 220 231 262 269
141 149 158 146 145 148 147 150 140 146 150 148 150 154 156 156 160 159 160 150 143 136 163 155 153 159 177 159 159 178 176 179 192 186 179 186 196 234 236 223 272 273 300
151 152 150 147 141 126 158 148 129 129 151 142 147 143 150 148 147 153 147 145 134 160 165 154 171 166 161 166 177 180 189 182 185 190 199 210 223 233 230 268 268 262 296
161 153 149 154 149 149 153 160 158 143 148 151 154 151 146 160 163 163 134 155 162 171 159 169 159 168 174 181 182 189 190 184 194 174 187 153 200 223 227 267 267 256 286
165 162 156 159 159 160 153 158 157 158 157 157 156 154 159 165 160 156 132 162 167 168 176 170 180 191 190 190 189 189 185 194 151 208 219 208 222 252 253 259 255 284 276
163 159 160 161 165 161 152 151 160 163 159 164 167 165 160 144 135 127 138 179 179 170 156 192 193 190 154 187 191 199 164 193 167 183 195 215 227 241 268 266 259 292 266
118 175 174 168 160 163 170 170 162 159 142 158 163 167 125 168 174 178 190 181 179 190 189 190 193 160 192 196 204 166 204 184 198 215 202 214 234 265 268 263 263 284 258
182 125 164 149 143 133 126 190 184 177 182 183 184 194 195 190 192 157 184 180 184 182 183 151 190 162 152 186 199 162 193 169 210 190 220 254 264 264 266 259 277 268 286
162 176 180 172 194 196 200 155 133 189 194 190 181 152 180 174 173 147 151 177 145 145 134 168 185 135 186 182 185 192 199 210 200 210 219 239 236 266 260 276 289 261 287
178 167 190 126 198 203 196 182 154 172 190 190 191 183 189 181 185 174 150 158 165 147 157 170 166 154 180 181 173 194 193 201 214 223 271 276 271 263 271 289 265 253 281
173 177 195 193 188 180 180 185 188 183 168 165 177 181 165 182 185 136 141 159 142 134 178 176 163 178 194 183 195 195 207 233 218 270 277 260 270 275 293 264 258 251 269
183 202 200 180 179 130 184 177 185 147 162 134 125 173 133 186 183 149 166 175 144 126 142 179 158 184 183 189 199 213 256 213 265 230 279 275 295 290 321 304 284 279 267
178 222 211 188 184 185 181 181 185 127 133 124 130 141 131 165 177 180 161 154 187 143 141 163 182 191 200 207 216 236 218 261 241 280 276 292 305 304 313 295 279 267 264
185 177 154 201 207 196 200 201 199 198 197 195 191 187 185 169 158 169 155 121 169 178 186 187 196 210 206 234 207 228 262 240 260 269 296 308 283 318 257 285 275 265 250
186 187 188 189 188 189 188 180 178 187 198 211 209 204 203 184 201 198 198 199 192 194 181 183 211 250 214 198 264 232 253 248 269 277 291 291 294 263 290 249 259 245 246
186 185 185 183 187 190 192 202 203 191 189 186 225 219 213 211 209 206 196 205 194 199 173 208 222 249 218 265 248 248 254 260 249 256 293 279 266 257 246 248 250 248 244
191 191 190 190 191 193 190 198 200 199 207 203 189 235 186 231 223 244 217 163 238 257 258 258 271 257 260 240 244 240 242 258 249 277 259 276 271 264 258 257 253 260 254
200 205 201 198 199 203 205 208 166 162 210 193 232 181 222 231 196 203 170 226 204 261 188 258 253 229 241 254 232 252 225 250 248 273 256 244 239 238 238 230 226 216 218
222 219 219 216 218 216 220 210 222 149 218 247 249 240 161 172 177 161 268 229 242 233 281 239 230 242 245 231 253 225 238 240 251 267 259 248 240 231 229 219 222 220 225
156 238 241 102 243 239 237 243 254 251 199 241 246 224 237 252 254 249 249 253 266 293 252 267 247 256 227 239 250 241 232 249 250 268 257 253 243 237 230 231 217 216 208
221 252 254 258 191 172 269 252 262 249 243 247 272 247 262 293 235 232 267 242 197 194 262 250 254 225 245 246 233 237 238 232 240 244 252 251 250 243 240 234 228 229 226
298 293 264 269 294 205 282 264 271 249 242 293 275 273 308 298 304 271 259 312 261 259 250 251 241 236 247 229 237 229 237 244 243 237 244 246 249 238 237 248 242 218 217
320 316 309 306 299 273 269 277 256 249 244 242 245 248 257 290 303 298 275 277 249 250 248 235 229 247 243 235 233 230 235 238 235 235 253 252 244 246 233 244 263 249 217
344 339 374 348 298 312 301 296 291 294 293 308 292 305 296 264 289 282 270 263 246 242 243 234 227 235 232 230 241 239 232 246 225 236 259 255 244 246 244 244 247 253 220

GFSMA_2pvu_pres_069.txt.gz
Presure
82 84 112 116 117 153 150 145 145 137 152 147 139 139 142 146 150 141 143 143 142 137 155 159 162 150 143 166 176 171 172 170 187 200 156 188 196 202 203 209 188 202 282
86 140 129 150 148 133 150 147 149 145 144 140 155 146 151 152 149 147 148 150 149 153 154 156 167 157 146 166 170 163 169 191 201 185 189 198 201 178 191 211 201 225 245
146 147 137 136 136 135 133 136 146 137 155 148 147 159 150 145 141 144 144 152 160 152 151 158 169 132 132 179 188 174 180 202 199 188 180 163 196 190 155 198 232 258 235
140 145 151 153 155 155 145 146 139 139 148 142 144 153 156 146 157 157 164 161 160 160 165 165 170 126 177 188 193 187 196 194 194 181 167 184 189 180 208 203 215 278 229
155 157 153 146 148 153 152 150 151 159 149 151 157 150 161 158 157 159 164 167 167 149 162 170 168 177 195 191 186 183 185 191 155 183 169 187 204 191 202 207 269 272 272
156 159 158 154 150 152 159 167 162 148 162 155 155 157 160 152 157 159 163 167 127 171 127 138 196 185 187 190 185 179 184 156 188 187 171 164 190 203 214 206 266 271 272
164 159 156 162 126 151 164 162 163 164 160 160 160 159 142 159 169 136 165 169 169 160 167 171 180 179 175 141 162 173 139 147 154 183 177 166 203 208 208 266 269 278 268
158 167 162 162 161 167 122 135 159 167 171 142 172 170 179 181 186 191 199 194 188 194 154 193 145 187 169 168 173 165 154 182 176 173 195 189 201 219 231 257 277 268 272
160 161 168 144 167 160 166 169 129 125 136 179 156 134 145 200 134 145 179 196 175 193 190 178 172 174 171 171 172 172 150 191 154 195 198 208 214 213 235 276 273 271 267
179 176 172 172 174 175 165 165 181 177 148 169 161 128 200 204 207 155 173 167 141 165 149 175 145 140 190 183 143 132 153 192 199 185 202 204 220 227 248 266 281 268 291
166 163 168 169 169 181 152 194 187 164 182 199 199 189 194 194 187 185 180 168 187 164 152 152 151 170 188 172 161 174 180 204 200 211 215 215 222 267 273 281 268 293 292
176 179 178 191 174 175 177 185 181 184 177 144 181 116 169 180 183 151 156 158 205 192 132 193 196 198 139 187 201 191 206 208 216 207 222 224 274 267 270 278 297 307 321
184 185 198 181 180 171 164 187 182 147 177 180 170 145 187 116 128 164 191 136 128 193 190 135 200 199 200 203 205 210 211 219 216 228 227 271 253 230 279 291 313 319 314
164 154 149 79 149 150 164 168 177 175 177 172 180 151 198 199 198 125 181 180 178 196 197 195 202 205 206 204 209 217 213 228 231 254 269 260 269 247 243 308 298 306 269
156 152 151 163 202 210 170 168 187 156 192 186 188 191 203 199 199 198 195 177 188 179 178 184 165 215 220 217 225 216 234 240 284 263 193 261 247 272 289 293 282 260 294
158 168 169 178 187 145 148 169 175 192 209 176 178 224 194 181 181 151 194 197 193 192 164 192 190 184 212 149 242 231 244 263 262 217 264 227 254 268 285 279 281 262 279
209 163 180 177 173 180 176 172 175 179 180 171 180 181 176 176 178 167 176 178 185 188 201 189 246 193 169 258 202 266 233 197 220 252 247 257 261 249 280 267 280 268 260
182 181 173 172 174 170 173 180 176 169 174 173 173 175 179 179 181 185 190 179 191 197 203 209 163 272 243 251 253 261 266 270 196 245 253 224 264 260 279 266 252 243 243
204 203 221 234 233 226 225 196 187 185 182 184 182 184 194 189 193 174 208 178 187 207 231 240 242 235 225 215 174 229 272 226 239 242 256 254 246 251 266 272 257 243 237
221 205 208 196 225 223 219 225 212 219 209 163 203 205 187 204 123 209 212 170 227 177 242 243 250 243 272 265 267 248 222 250 244 243 238 244 241 249 245 263 259 253 243
228 227 227 227 228 232 230 135 222 218 216 216 209 214 214 214 213 198 213 230 241 150 266 249 261 240 245 218 259 257 242 228 252 231 228 235 236 247 246 245 254 263 255
232 232 233 233 237 237 237 239 238 141 232 231 230 232 231 238 240 240 265 257 259 236 214 258 271 182 275 274 259 172 246 235 232 238 261 235 235 233 246 236 242 254 248
244 244 245 246 248 251 253 260 263 263 263 260 266 256 262 264 275 259 266 245 242 239 231 267 313 310 289 252 256 241 240 229 239 227 237 233 246 229 244 232 241 266 250
296 304 302 296 292 280 280 274 297 308 294 287 269 277 331 309 307 314 261 293 244 264 250 242 243 261 263 252 239 245 229 236 238 230 238 227 244 224 244 241 243 259 241
324 304 267 274 311 361 353 330 311 305 319 316 305 300 294 297 288 301 330 318 320 305 294 285 277 258 250 244 237 232 235 232 239 237 232 239 229 233 245 233 264 254 254
314 314 319 324 352 342 339 345 377 360 348 357 295 292 300 286 283 315 295 275 291 287 278 265 263 253 237 236 239 241 225 217 235 231 229 236 240 248 240 239 254 261 257

GFSMA_2pvu_pres_072.txt.gz
Presure
72 80 78 83 142 136 131 149 135 150 152 149 151 141 141 149 140 146 147 141 133 147 159 160 158 160 164 171 162 175 170 188 192 161 155 178 189 176 191 191 170 196 207
78 126 98 83 84 134 103 139 137 134 134 134 132 135 139 142 141 143 152 148 156 161 158 156 157 161 170 166 160 172 197 155 151 162 186 169 150 177 154 187 176 192 218
83 81 147 119 142 139 141 140 142 150 149 151 153 148 150 153 150 160 147 158 154 157 160 146 161 166 163 197 199 178 168 200 201 184 197 151 180 179 183 208 197 205 205
92 148 150 148 150 152 152 151 152 146 143 150 151 155 152 162 164 167 158 165 165 160 148 178 184 200 185 180 152 167 149 157 177 180 165 196 171 141 177 193 216 139 231
150 146 146 149 155 146 156 157 156 160 161 158 163 159 151 167 162 163 164 166 170 159 182 170 187 164 158 190 143 192 174 197 149 180 155 140 194 148 212 217 214 229 273
162 158 163 160 154 136 163 162 154 162 159 164 167 158 158 168 169 158 145 170 179 147 169 126 193 192 157 193 167 161 153 195 149 187 166 148 139 196 175 216 229 249 268
165 126 151 163 160 158 165 168 163 134 162 170 145 133 165 127 114 125 162 142 114 144 162 182 199 202 190 185 146 142 142 205 176 141 207 217 167 214 200 222 235 272 273
172 164 155 164 166 166 159 159 156 161 162 149 168 159 172 156 135 142 137 173 147 178 170 183 158 206 210 192 133 139 172 200 136 181 133 125 216 197 237 238 279 254 263
178 143 159 157 164 168 165 168 170 178 174 178 157 172 174 163 166 175 180 189 181 164 146 184 165 152 169 196 186 165 149 192 143 193 204 210 216 238 258 282 261 268 270
163 156 135 176 162 166 183 173 174 175 155 165 102 178 176 173 159 169 189 190 176 159 128 122 177 177 129 130 190 181 187 192 178 190 197 222 208 226 257 280 247 269 246
186 180 181 171 172 181 180 185 172 168 173 177 172 170 170 159 163 130 147 107 125 125 150 180 133 145 183 198 191 189 194 205 176 199 194 164 188 207 295 269 249 273 280
175 169 177 178 180 176 176 175 172 174 164 163 178 181 150 151 157 170 170 138 187 141 126 143 183 194 199 158 174 200 195 177 189 195 200 245 220 245 282 182 275 263 226
181 143 177 180 178 210 201 206 205 192 156 149 145 179 174 161 157 181 185 169 183 186 171 190 186 183 205 141 188 139 184 175 197 205 176 228 238 260 209 191 255 227 257
178 181 142 196 200 177 190 187 149 145 150 146 153 204 162 183 142 194 165 197 200 199 168 173 182 160 156 182 181 168 187 197 202 172 216 243 233 232 257 246 241 272 283
156 184 188 192 176 150 150 152 164 173 169 168 161 164 171 167 163 183 171 165 189 170 167 173 104 174 143 180 173 141 197 151 202 216 220 228 257 233 255 218 248 266 277
186 197 172 198 188 190 192 196 199 204 161 173 159 166 180 176 195 169 162 162 166 173 176 170 180 175 175 190 159 184 181 180 212 227 244 269 257 226 205 209 250 246 273
180 181 188 201 207 209 183 210 182 211 206 221 222 222 196 190 211 185 176 174 176 176 168 181 131 187 155 152 205 202 157 158 257 253 237 220 225 264 251 240 234 251 260
185 186 185 190 197 206 216 222 208 193 194 217 231 225 220 224 228 232 217 218 187 169 190 203 193 196 204 200 214 206 218 234 241 259 236 246 258 231 237 254 245 250 242
189 183 171 173 176 174 175 176 178 181 206 224 216 208 206 211 212 220 226 225 223 210 215 216 212 212 217 214 215 195 247 246 261 233 263 278 258 229 242 235 233 243 241
184 184 183 141 182 184 188 191 195 196 194 208 233 229 232 215 219 225 219 218 216 214 211 218 220 218 218 226 240 249 265 258 248 278 236 234 225 241 239 235 231 237 230
226 225 201 201 202 204 210 214 217 220 228 232 229 230 229 231 231 229 233 232 231 229 213 167 230 235 256 265 263 254 255 248 253 261 274 252 246 238 244 233 237 235 226
247 217 216 218 223 226 228 230 234 239 241 238 237 240 245 244 245 251 250 253 263 261 264 263 252 250 251 253 254 266 238 241 289 258 252 249 234 243 234 235 237 231 238
130 237 237 236 169 236 237 220 238 239 240 242 162 247 252 258 267 280 289 280 279 301 303 287 286 259 251 274 250 264 295 267 260 257 245 236 241 234 233 228 235 222 238
270 263 268 262 266 269 275 276 277 283 304 295 286 303 359 337 300 278 298 315 282 294 293 282 320 301 319 312 289 292 269 256 253 246 243 235 232 239 237 238 227 226 232
319 257 167 321 262 262 264 278 261 255 274 347 351 354 371 370 375 284 272 293 291 290 291 289 316 276 303 302 284 277 269 255 247 239 231 234 229 228 237 236 230 230 239
308 304 313 305 304 315 313 319 314 325 335 328 339 367 300 341 308 354 317 316 300 283 280 278 297 268 261 281 269 255 256 239 233 237 238 223 227 236 241 227 230 230 251

GFSMA_2pvu_pres_075.txt.gz
Presure
144 99 70 144 92 82 83 143 84 105 134 132 138 137 140 142 147 144 147 151 154 153 148 162 162 146 168 167 182 177 139 158 197 189 174 157 200 221 194 201 160 214 225
141 153 123 135 146 83 82 142 148 149 151 152 151 153 153 154 154 157 155 164 164 152 158 170 162 162 158 170 150 142 192 193 170 197 182 145 193 226 205 219 140 144 145
76 155 140 138 89 137 122 141 145 147 151 152 155 154 154 157 159 158 159 170 167 161 167 152 165 157 136 188 129 191 171 200 144 165 146 212 139 213 187 220 179 176 157
123 75 79 83 141 149 152 152 150 148 146 151 149 151 158 164 167 154 167 132 155 140 150 125 170 148 159 171 187 185 183 188 144 161 136 130 180 196 136 136 136 195 206
74 115 167 154 168 160 152 154 156 152 153 161 158 164 161 158 168 167 148 156 158 168 154 176 137 173 173 178 164 177 163 182 127 192 205 207 203 181 212 158 144 204 208
154 158 156 145 152 153 168 167 169 154 161 149 163 160 138 144 171 162 172 173 173 181 181 180 172 173 184 182 172 130 198 193 123 193 148 126 166 186 210 218 206 207 215
159 167 171 143 157 160 159 156 161 169 171 169 161 165 144 170 163 168 166 170 160 171 171 168 124 171 160 125 127 154 149 188 132 201 198 175 185 184 192 169 204 216 246
171 147 168 180 176 164 170 156 160 159 167 167 170 165 154 169 150 179 150 165 172 155 162 170 187 186 164 135 115 131 121 180 165 163 164 199 209 186 209 204 198 212 229
173 178 176 158 155 176 177 152 174 147 151 141 181 167 181 158 171 181 182 173 177 165 176 148 175 142 188 162 153 161 174 111 187 185 176 160 187 185 184 195 204 214 223
173 171 173 169 174 165 166 167 184 185 180 168 160 162 164 167 169 167 167 170 168 169 149 197 144 191 152 190 174 180 186 189 194 157 183 195 172 191 182 202 211 221 260
165 177 179 156 166 175 180 184 178 180 144 166 169 160 170 168 175 185 188 147 93 176 191 182 143 180 165 177 180 181 157 173 179 183 185 176 153 190 202 203 216 255 286
182 183 212 196 220 209 170 177 177 181 181 178 185 187 183 188 116 205 185 97 155 150 180 160 169 177 179 187 169 167 169 173 211 179 183 158 171 169 188 207 216 249 240
190 192 189 197 190 192 203 180 184 203 192 196 191 171 169 175 168 145 163 199 156 162 157 159 170 164 181 165 163 171 176 153 167 169 187 192 196 200 203 213 231 259 226
191 185 189 195 177 176 199 196 203 197 136 199 192 192 180 162 207 201 184 182 195 187 196 204 197 207 166 179 181 173 179 189 191 191 192 195 208 196 215 186 244 247 254
176 191 192 188 198 183 187 189 195 197 199 168 201 208 187 201 201 198 199 199 204 200 211 212 216 191 225 222 219 179 204 198 194 210 186 189 127 216 215 260 244 278 229
173 173 174 175 171 175 191 189 197 186 184 197 194 183 191 184 198 187 192 194 215 216 194 191 202 217 178 190 217 215 183 213 224 218 208 215 216 220 182 252 226 227 258
169 175 163 166 166 178 170 180 181 181 179 179 185 184 184 185 190 193 196 192 184 218 193 221 222 208 194 203 133 216 222 221 217 180 216 217 220 238 252 245 270 268 233
182 153 182 181 173 170 176 178 177 180 183 187 184 173 192 177 172 181 181 177 183 188 191 191 233 227 203 211 214 219 215 217 218 223 221 227 243 245 237 274 255 253 248
202 195 185 169 174 175 180 181 188 190 175 187 188 188 182 183 179 180 170 188 192 194 173 231 234 225 221 227 227 225 207 226 229 237 245 262 271 262 259 239 240 256 239
213 223 225 217 198 193 200 187 217 188 185 200 177 176 171 181 184 190 197 205 214 226 230 234 232 234 235 235 239 215 251 283 251 271 271 266 242 267 243 276 246 246 243
218 220 183 182 190 194 180 184 185 202 206 207 219 149 235 225 193 217 224 231 237 243 240 241 246 257 261 263 271 301 298 288 277 264 279 247 270 246 251 262 251 241 234
213 216 232 231 254 256 204 202 205 207 132 211 249 243 225 235 237 240 242 248 249 249 261 267 308 289 320 287 329 267 287 316 302 286 306 305 303 270 266 253 241 236 235
237 228 223 222 222 220 219 223 126 226 234 202 236 241 243 249 255 258 267 276 291 278 295 266 274 312 280 311 296 279 290 309 312 286 307 294 285 272 254 242 236 239 228
280 282 314 242 296 230 272 273 271 275 283 284 279 281 288 278 277 284 271 278 289 324 329 274 320 287 278 287 290 285 282 293 307 300 285 281 262 260 235 245 236 227 237
255 257 256 261 286 260 259 286 300 277 277 308 245 256 282 323 335 340 258 290 326 339 338 321 269 291 274 275 277 270 266 293 287 267 278 262 257 246 243 234 235 229 233
280 285 290 284 304 239 259 304 296 298 307 306 303 304 248 333 322 355 340 325 329 339 332 304 325 298 290 272 271 265 282 247 276 271 256 254 245 235 239 236 225 228 238

GFSMA_2pvu_pres_078.txt.gz
Presure
103 79 76 86 140 74 118 145 135 131 142 149 144 138 139 146 150 146 145 145 150 164 151 159 165 138 148 154 156 148 156 169 178 169 163 155 177 145 219 132 178 213 211
127 151 82 138 99 143 139 129 81 123 118 136 149 148 153 151 150 150 138 158 162 147 130 149 151 127 154 169 175 168 177 176 175 179 176 150 143 202 169 126 122 206 161
114 82 150 79 80 79 82 83 83 87 89 153 150 153 150 149 160 152 161 157 159 173 155 157 134 150 179 167 174 177 165 175 182 153 130 145 122 209 204 209 184 123 128
142 90 79 159 140 79 84 155 159 159 161 161 162 167 164 160 154 172 177 149 133 153 157 160 159 166 166 181 181 177 175 189 125 124 197 117 202 151 169 194 121 213 194
99 158 169 163 87 82 152 163 155 161 149 147 157 150 123 131 159 170 162 149 170 168 165 177 168 160 170 170 172 165 158 164 169 165 182 179 183 180 204 152 208 211 186
181 186 171 157 155 155 171 155 150 168 163 168 166 157 163 171 155 171 150 170 156 161 163 150 172 175 168 165 166 179 209 136 149 181 179 210 180 179 182 171 212 183 198
155 167 173 163 180 164 153 181 176 142 143 157 167 176 181 178 174 174 152 164 159 162 164 173 180 156 172 167 144 168 172 202 179 163 170 182 176 192 182 183 192 182 197
166 153 156 162 178 182 165 180 193 186 188 146 194 161 167 164 161 169 171 173 174 171 181 170 163 170 185 188 161 145 159 134 168 173 193 138 192 183 175 175 181 188 191
188 169 166 169 157 179 180 176 157 157 176 184 187 181 158 165 173 158 173 170 178 161 171 158 166 207 143 168 151 192 168 158 172 171 207 152 169 178 209 199 197 186 162
150 110 124 161 162 177 170 168 172 187 163 174 172 176 138 177 156 186 160 175 173 193 191 192 197 172 160 165 196 181 192 199 155 223 175 207 175 211 172 116 213 207 204
146 173 117 108 195 124 197 178 181 190 172 177 180 181 188 155 191 148 201 208 198 175 202 197 179 156 151 190 158 198 189 177 180 199 223 217 206 184 223 223 225 223 233
199 191 180 179 164 182 172 191 194 192 193 196 207 215 174 193 183 184 188 167 198 195 194 155 168 189 190 171 175 178 188 168 208 228 195 211 213 202 195 215 236 224 195
188 177 174 177 183 210 184 189 157 180 183 201 226 189 181 196 197 188 194 188 206 182 204 194 171 177 182 183 192 192 185 181 170 175 203 209 208 203 208 223 226 227 218
156 157 145 160 155 151 142 159 173 159 173 163 189 176 185 187 173 179 189 206 172 176 179 180 189 182 186 187 187 176 172 179 182 188 192 221 199 224 160 216 227 218 204
172 185 172 166 151 161 162 159 169 164 173 172 169 176 161 161 177 176 165 178 180 178 179 186 171 171 188 194 182 172 185 189 201 193 196 209 214 223 219 222 226 164 233
169 180 155 152 163 166 171 167 188 181 172 174 162 170 170 174 173 195 184 179 181 185 199 159 181 184 175 176 179 189 185 179 188 192 204 235 230 226 225 228 233 217 249
181 158 184 177 172 161 157 189 190 195 185 182 189 189 190 208 205 181 192 200 170 181 191 204 183 163 193 185 186 187 166 184 195 236 223 232 230 233 240 245 264 242 254
176 187 171 183 178 177 196 195 181 190 189 187 198 168 197 192 198 191 186 198 197 180 232 238 215 241 222 235 249 184 206 218 230 230 233 240 248 250 265 256 279 259 269
180 193 177 196 178 170 160 191 176 188 197 176 197 202 189 183 204 199 232 221 231 143 177 195 177 192 229 238 229 231 242 242 243 248 258 257 293 294 282 252 277 263 277
156 186 158 179 189 189 166 177 196 194 202 202 214 223 219 207 200 204 188 167 172 213 211 210 218 239 234 234 239 242 258 269 276 286 299 271 303 288 276 274 285 282 243
194 191 163 173 195 196 188 199 207 207 203 217 201 211 212 205 208 231 157 256 234 225 239 248 246 251 256 263 272 275 296 287 257 312 317 304 269 278 280 285 280 275 277
210 212 210 205 205 206 221 196 210 217 214 231 232 229 213 251 260 241 227 251 256 258 257 253 280 295 303 287 303 264 259 309 269 237 251 301 330 296 314 303 283 284 270
230 163 210 179 218 219 227 179 226 230 237 239 239 220 247 258 254 269 280 286 289 288 254 298 309 288 292 276 314 264 299 289 288 295 292 262 281 279 299 294 282 273 261
299 276 275 281 280 270 279 282 280 283 304 302 285 280 295 316 302 288 276 258 296 327 287 338 368 355 338 351 366 331 312 304 292 279 280 272 265 284 267 279 272 258 247
286 283 294 299 287 282 294 307 281 304 310 289 285 311 306 273 237 290 254 306 303 337 345 351 327 333 345 338 327 317 291 296 280 263 271 264 253 290 262 267 258 248 245
264 253 277 266 264 265 277 300 253 254 276 272 259 279 275 251 294 256 282 289 319 315 321 319 296 314 319 324 292 323 294 307 296 263 283 272 251 263 267 255 254 248 233

GFSMA_2pvu_pres_081.txt.gz
Presure
157 151 155 154 148 105 76 96 122 121 100 97 143 152 149 151 158 151 152 158 164 151 147 169 145 149 141 174 168 164 149 176 171 172 151 151 174 157 206 166 211 101 126
111 141 144 148 143 157 89 101 78 86 97 95 77 152 152 151 162 153 157 162 152 132 163 163 140 161 161 166 158 167 171 168 171 175 169 197 135 149 156 171 168 173 218
172 144 154 159 150 79 78 77 87 83 81 86 93 150 145 162 160 121 153 165 147 169 147 154 168 164 168 174 176 168 169 167 170 179 167 186 134 151 164 120 154 173 159
175 165 129 155 183 166 161 176 92 78 131 88 167 166 162 165 162 161 143 169 168 163 142 158 164 163 163 167 171 159 173 173 153 154 154 167 131 163 200 178 213 217 170
178 178 139 77 160 152 148 165 156 173 174 158 152 156 167 147 171 143 171 167 183 155 142 136 170 170 162 179 177 168 178 160 191 150 147 178 197 173 199 208 172 206 212
161 166 164 163 138 165 164 168 159 196 197 162 161 169 171 181 183 163 185 159 170 166 150 165 163 154 190 172 207 190 175 192 143 201 173 185 171 187 159 189 185 226 206
169 177 181 160 157 187 177 169 185 174 167 163 177 182 170 178 160 169 180 178 151 169 174 171 174 209 187 197 199 151 204 214 201 150 200 176 166 189 194 195 227 225 215
170 175 154 164 175 160 172 170 163 172 171 184 170 178 163 172 164 174 161 167 168 138 172 155 179 187 180 146 181 195 91 197 191 181 170 185 186 201 183 178 175 168 193
168 147 173 172 163 197 184 163 179 158 165 162 154 165 168 195 203 166 182 172 180 161 183 200 171 187 162 197 187 206 185 191 187 178 191 206 181 181 169 188 189 195 203
173 189 186 168 189 157 170 172 99 207 194 212 181 178 205 167 181 161 181 195 194 183 180 182 188 189 180 194 166 182 181 188 137 181 186 204 178 177 181 184 199 193 207
158 163 151 151 157 212 209 156 201 196 147 223 128 149 195 183 134 157 189 164 176 173 165 192 162 183 144 170 182 175 130 180 186 187 177 192 178 171 188 192 192 193 194
162 164 172 143 153 149 225 191 191 198 177 184 158 152 172 168 176 159 179 158 116 172 171 162 173 170 156 176 170 174 178 177 184 199 180 187 196 198 174 184 192 202 195
154 148 162 161 160 156 166 170 170 147 182 169 173 186 185 177 157 186 177 173 165 170 186 178 191 201 173 168 188 198 186 188 178 202 187 216 224 228 180 206 189 210 224
153 169 156 165 166 176 164 192 177 177 188 181 197 203 190 150 216 169 165 165 206 192 169 207 180 163 161 195 184 201 190 221 212 189 222 210 181 230 241 212 215 225 140
180 168 197 162 166 179 182 188 152 175 167 175 167 162 175 168 182 179 207 219 203 189 212 157 167 194 185 205 206 209 248 216 226 199 205 191 193 232 221 220 226 236 230
182 199 162 181 179 176 178 177 176 186 184 168 191 173 152 182 197 171 191 174 209 187 168 132 191 190 204 190 183 227 174 201 228 228 187 196 212 208 218 234 236 239 245
158 159 156 161 164 169 169 192 169 178 157 172 182 152 167 176 184 155 191 180 189 209 200 192 198 186 203 226 206 209 216 227 242 179 193 232 233 235 239 241 245 253 257
162 158 179 198 169 170 189 181 158 156 222 207 222 195 184 213 221 193 185 186 194 205 199 205 218 190 217 207 237 232 232 234 228 245 248 242 246 251 249 251 261 270 276
190 183 201 192 148 169 156 186 204 205 161 185 159 204 175 193 207 184 195 174 202 192 218 196 216 221 243 222 236 239 253 249 258 258 270 248 271 275 276 281 306 263 298
177 197 215 219 152 144 177 173 179 194 178 188 197 197 189 196 202 175 188 229 194 217 235 189 227 238 240 252 275 275 263 272 274 262 292 270 270 269 285 300 281 231 304
190 198 175 181 187 189 159 173 162 152 203 194 189 178 167 202 189 239 210 230 217 232 249 235 241 250 280 297 299 292 282 306 285 317 276 282 275 272 256 245 221 304 304
153 155 184 155 199 199 133 200 198 163 194 207 200 191 237 225 229 220 214 239 178 249 250 300 279 288 330 332 273 340 322 357 366 330 318 334 307 273 261 282 296 299 308
197 201 189 187 210 200 209 206 207 208 191 197 212 202 203 229 222 220 233 281 211 297 290 294 324 275 303 325 340 377 358 357 326 319 299 311 311 300 284 270 279 270 278
205 205 203 204 207 204 201 210 223 220 227 225 225 224 228 234 261 266 290 296 314 296 255 238 263 262 308 329 336 330 343 348 329 310 294 307 294 293 263 254 278 277 292
226 226 227 227 227 230 228 232 266 303 268 284 310 275 283 296 303 289 301 266 225 285 304 295 294 304 339 320 287 321 331 324 298 290 300 276 274 271 258 258 272 280 269
319 266 270 274 271 268 298 265 268 300 272 277 301 257 288 275 240 227 242 286 309 303 290 290 289 292 310 305 309 314 324 326 310 318 288 277 284 276 256 287 278 281 267

GFSMA_2pvu_pres_084.txt.gz
Presure
166 142 163 167 170 152 156 149 152 147 107 90 107 127 97 81 84 153 114 151 156 148 154 138 133 173 170 180 161 169 173 174 176 174 176 150 161 143 188 148 159 152 206
168 182 138 166 180 189 154 153 136 151 129 149 150 78 77 142 85 152 158 142 168 151 135 165 155 173 162 165 169 178 161 173 153 178 198 214 172 141 206 193 180 158 169
179 155 159 168 167 157 164 171 164 170 143 82 160 152 123 152 160 158 168 154 158 163 133 175 161 146 186 163 166 166 148 177 182 187 156 149 169 192 195 195 172 94 202
123 176 130 130 129 155 166 167 179 159 85 183 174 182 151 165 161 170 126 154 143 134 157 185 171 162 153 170 161 169 164 173 170 177 163 202 200 155 184 170 191 206 189
124 161 162 76 158 156 159 159 180 143 157 90 164 169 143 168 166 184 175 175 163 161 152 155 169 174 143 202 166 159 190 204 162 156 182 171 197 172 193 196 162 185 199
166 122 164 131 174 154 153 154 167 160 180 165 164 173 173 188 171 168 166 179 151 149 161 168 167 173 181 188 177 181 167 207 183 165 173 160 148 184 187 151 202 193 211
179 151 184 133 145 141 97 163 151 156 165 171 175 177 176 179 153 170 148 167 162 196 172 162 173 183 165 177 171 177 223 182 158 164 163 177 171 188 137 145 206 171 197
153 167 124 159 168 136 192 204 156 133 175 168 171 164 181 176 183 162 148 196 172 177 187 188 182 180 185 162 181 170 154 153 159 168 140 171 197 168 193 166 234 211 223
148 169 149 125 121 129 175 142 145 182 155 162 179 185 142 177 157 165 205 204 156 185 185 172 156 163 166 151 159 149 153 163 167 202 178 166 185 193 198 206 216 195 172
162 136 141 135 181 177 154 164 184 140 180 157 202 165 161 195 143 124 145 175 144 159 149 161 151 166 154 157 164 193 184 187 171 188 155 143 186 194 200 223 174 202 211
167 172 172 148 161 150 167 196 185 173 159 142 190 149 142 161 151 152 170 153 144 152 209 156 163 162 168 184 175 177 191 222 203 186 201 141 179 176 216 172 226 208 194
152 139 171 126 194 183 149 152 168 178 161 173 164 165 174 164 179 146 178 215 195 171 175 184 182 192 152 197 168 214 175 207 185 183 204 173 203 218 208 212 218 225 227
167 181 153 184 170 160 151 167 201 180 151 173 182 165 151 158 183 203 182 183 191 153 193 191 201 167 228 158 208 185 196 170 199 190 182 198 178 202 233 231 211 269 214
166 166 196 188 156 167 197 160 173 167 181 153 148 163 187 175 181 173 170 142 184 158 149 181 216 184 203 201 186 184 204 210 201 190 204 229 205 213 235 220 230 234 231
167 144 161 163 163 151 161 161 177 184 160 173 178 204 186 200 214 188 190 198 157 168 184 198 176 202 197 196 199 180 197 198 194 203 196 146 214 224 221 236 249 254 247
155 159 175 167 175 201 198 183 177 186 171 165 177 158 168 184 171 179 178 182 169 183 159 212 177 179 209 202 189 202 205 208 207 201 218 216 237 254 261 260 248 253 250
188 171 178 168 159 152 184 183 172 174 174 198 167 187 186 167 181 181 189 185 193 154 212 195 177 190 199 168 186 205 203 194 214 223 235 232 272 285 276 269 266 262 267
166 175 170 187 205 203 171 186 170 171 163 185 186 193 186 206 177 145 167 157 199 207 189 211 162 203 168 212 161 207 200 216 232 232 297 294 297 272 303 308 311 288 316
178 185 172 183 168 163 173 180 179 164 180 187 189 143 178 167 189 181 146 196 181 204 203 195 183 207 195 209 215 200 237 234 273 286 303 288 298 306 230 266 292 244 271
183 172 167 174 173 177 183 189 174 182 178 203 192 178 171 173 163 160 192 197 201 209 193 176 212 204 205 189 199 246 244 329 318 345 240 291 334 303 345 323 303 300 286
182 188 181 187 187 183 150 169 147 174 152 188 187 199 193 179 196 205 201 194 195 198 198 198 213 212 220 244 236 290 317 333 268 252 343 287 352 348 342 326 325 322 283
200 182 182 176 157 185 189 189 196 186 155 199 197 162 196 203 202 187 164 192 216 197 209 211 208 228 240 249 279 289 265 248 252 334 357 355 401 341 326 328 316 307 290
199 188 189 185 193 170 193 210 195 192 185 207 202 197 213 209 203 200 199 201 201 210 208 226 217 223 314 262 276 291 296 313 343 331 334 344 322 308 306 300 297 301 283
215 221 220 196 208 197 210 207 203 210 200 189 208 203 200 208 214 196 206 213 215 226 216 232 263 277 292 256 283 272 309 297 303 322 360 311 307 306 284 293 284 274 270
214 220 205 204 204 205 211 202 211 204 209 196 193 216 213 213 181 205 200 223 228 216 248 277 260 272 294 255 293 297 292 313 312 318 305 304 293 291 290 275 274 273 261
226 226 222 221 224 224 216 209 208 213 207 204 205 206 204 209 220 197 228 218 279 274 254 305 277 280 297 296 295 286 313 304 297 308 317 303 298 288 284 274 267 274 263

GFSMA_2pvu_pres_087.txt.gz
Presure
109 143 144 142 137 150 164 165 177 158 164 165 154 148 146 158 166 128 146 142 150 151 140 158 167 158 156 137 153 164 194 127 174 182 191 174 190 204 171 191 194 176 168
119 124 152 137 180 146 163 153 124 172 187 147 193 163 164 155 120 162 156 166 154 157 149 164 155 145 151 168 165 190 153 143 181 178 171 176 196 179 170 166 168 165 181
78 187 137 144 76 154 159 186 165 143 177 160 185 157 159 143 154 146 181 139 177 159 169 177 172 167 168 156 153 179 168 175 171 172 198 164 174 153 163 167 168 184 162
158 180 155 161 85 141 118 89 127 166 176 87 162 162 165 201 175 176 174 179 168 158 158 174 150 162 161 181 159 173 175 165 191 170 189 171 154 160 154 164 167 206 164
172 189 166 163 170 111 114 104 174 156 96 163 171 145 124 161 164 158 164 161 187 168 173 161 151 155 197 213 194 199 165 153 160 160 148 158 150 155 169 190 191 196 183
181 172 170 145 127 117 61 157 132 169 150 167 177 113 179 172 163 166 170 168 165 181 145 163 142 176 193 193 189 190 150 155 160 153 159 157 174 185 151 182 184 204 152
181 178 178 169 178 149 165 160 139 128 143 144 176 181 164 189 191 156 163 177 164 151 168 180 154 182 162 154 153 155 154 150 158 154 158 193 180 204 208 182 207 137 180
177 180 184 174 164 177 176 154 149 120 169 146 129 147 133 174 152 209 180 135 189 197 160 152 167 156 214 144 146 158 166 149 165 158 199 167 186 195 183 195 187 202 201
174 177 147 178 154 161 149 160 123 171 167 118 135 154 131 187 139 154 162 157 156 170 159 156 151 142 151 136 185 147 176 155 158 165 194 213 169 173 184 168 176 170 205
173 184 137 159 169 169 137 150 134 156 146 167 178 149 173 178 147 150 155 144 150 184 136 154 142 139 216 191 180 147 179 193 165 159 219 157 155 172 193 181 186 175 185
183 173 147 186 172 174 167 177 155 183 184 191 148 132 165 145 161 174 154 182 215 137 194 159 215 165 150 235 187 160 174 204 187 189 190 182 185 195 176 194 197 183 209
182 188 178 175 175 143 152 167 134 167 168 158 177 149 170 174 146 174 150 180 142 163 161 124 133 194 151 205 129 188 204 182 181 146 188 216 208 192 199 204 183 172 224
193 172 180 189 156 181 185 135 176 141 159 137 160 168 162 176 163 179 151 144 201 158 125 217 180 176 186 169 215 154 173 198 199 189 167 156 185 188 194 195 196 213 175
190 196 192 173 183 189 185 181 181 185 183 179 169 202 194 185 172 172 172 145 133 168 199 154 194 191 190 203 203 193 192 178 181 210 196 197 196 189 202 202 207 248 301
194 187 194 193 199 175 164 172 148 160 172 174 160 161 183 166 173 178 148 172 187 198 188 206 211 163 190 210 179 224 162 146 161 204 193 194 175 201 200 204 251 307 248
210 189 176 178 193 166 196 183 189 175 156 176 191 165 188 150 182 182 201 169 177 187 190 166 189 193 197 164 203 191 195 185 193 191 193 196 142 217 217 244 329 264 268
183 201 206 192 180 168 182 170 185 158 155 154 168 155 175 189 190 155 190 206 170 195 220 185 177 196 180 175 202 196 189 201 188 195 204 207 203 225 232 259 268 229 258
197 175 186 199 198 204 172 179 198 186 204 197 174 192 178 213 177 180 205 160 190 186 186 207 168 152 146 191 192 176 206 203 181 212 215 211 217 244 218 357 265 323 333
183 178 177 185 182 178 173 178 176 190 179 183 194 179 172 176 160 187 156 191 163 173 152 172 170 217 149 196 213 212 195 203 215 215 213 214 226 268 237 329 332 331 352
210 197 205 200 195 188 193 188 191 190 184 194 196 180 175 212 161 172 184 188 164 179 195 178 204 192 193 202 198 217 215 212 221 213 199 219 306 257 291 337 374 352 347
191 211 197 197 190 182 185 187 186 202 192 204 192 182 195 161 178 172 193 152 182 195 180 188 170 186 208 205 226 221 223 215 226 223 227 226 307 299 349 313 356 361 327
178 225 203 204 193 194 183 164 190 179 195 195 191 192 191 191 192 201 184 198 172 191 178 163 200 191 218 214 217 215 197 224 197 229 254 230 318 336 341 385 340 328 322
204 195 167 207 204 191 203 186 188 190 190 195 169 197 196 189 174 198 189 189 193 185 194 202 191 192 212 223 197 236 210 215 224 268 252 310 329 325 360 317 319 316 309
222 211 211 202 203 202 203 188 199 210 181 181 204 180 177 195 191 177 184 200 198 176 195 200 181 218 224 208 226 229 229 224 232 239 305 299 318 327 323 313 311 298 296
210 207 183 185 188 207 203 207 176 202 202 165 197 196 195 192 199 202 202 176 177 178 225 216 229 209 215 241 244 227 311 304 305 301 282 286 311 304 320 299 284 302 286
227 215 187 214 202 203 212 215 210 214 215 185 185 212 205 202 204 221 176 216 213 219 208 211 230 197 220 208 227 275 295 298 291 291 279 310 300 298 305 286 289 295 283

GFSMA_2pvu_pres_090.txt.gz
Presure
143 162 156 182 141 116 130 134 127 143 157 155 136 151 165 167 155 161 172 154 184 140 173 158 157 178 151 150 163 168 166 171 196 185 168 167 165 179 167 165 167 148 165
146 106 155 157 189 112 193 133 111 144 140 148 186 187 172 172 99 171 161 86 172 181 181 173 174 155 175 153 163 165 166 175 225 200 176 160 159 172 160 152 186 168 203
143 183 156 121 175 77 148 154 168 172 153 157 157 102 179 155 161 168 176 168 156 141 155 148 144 157 158 150 177 152 170 168 165 152 159 154 159 151 151 159 161 198 177
142 141 145 170 165 207 196 156 157 186 120 140 153 87 151 174 180 149 157 152 115 176 148 175 153 154 163 125 181 192 138 172 160 151 150 158 144 171 206 171 175 181 183
147 143 138 167 179 190 166 171 142 186 136 125 146 137 153 139 162 167 167 139 166 156 173 186 188 173 170 178 183 146 179 161 176 151 151 144 169 168 153 157 166 192 207
148 183 140 145 164 189 182 163 173 132 151 88 118 180 157 157 156 158 134 164 157 187 175 182 164 154 148 165 155 157 162 138 142 165 189 171 194 137 167 162 186 177 178
146 142 189 178 169 192 155 167 177 175 181 177 177 123 165 154 160 132 150 154 171 195 185 140 192 156 168 178 162 150 144 138 161 176 200 216 152 145 193 192 204 160 202
144 151 171 167 176 96 155 168 130 181 139 188 177 157 167 157 133 142 115 160 170 148 153 151 152 143 179 152 154 135 150 142 189 174 208 207 176 208 174 197 187 190 134
137 152 154 182 98 157 161 125 162 154 184 174 175 165 168 161 167 167 105 157 129 119 150 138 163 160 152 147 167 136 154 189 189 165 205 185 193 151 184 180 185 125 118
147 152 170 188 171 173 169 192 190 184 158 166 175 175 153 154 165 171 177 168 178 167 148 152 156 149 147 122 164 170 149 177 183 156 203 185 153 181 176 181 163 156 194
162 154 191 175 156 179 180 168 125 186 179 170 141 145 186 145 189 191 149 190 132 152 173 153 147 149 207 145 135 194 139 131 205 148 185 142 191 141 209 182 188 147 193
152 183 182 177 177 181 168 183 154 186 159 147 164 166 155 180 182 144 157 169 142 158 167 184 148 184 181 203 174 158 183 202 198 177 184 190 182 137 184 131 155 206 180
161 191 180 210 186 170 163 192 171 185 161 172 181 182 141 170 166 157 166 192 188 164 196 178 143 151 169 127 173 181 152 179 174 170 139 177 187 156 181 197 180 172 182
193 178 185 182 191 195 178 172 173 166 179 177 173 196 188 163 181 189 177 170 173 194 181 208 192 173 176 208 184 211 179 145 130 177 189 182 196 189 188 183 198 217 208
172 195 197 183 182 182 173 170 181 180 165 189 183 181 185 194 170 195 194 163 187 175 153 187 139 210 181 203 204 180 196 161 173 195 169 184 160 192 189 190 201 200 239
198 179 178 179 205 199 180 209 195 167 177 186 184 190 168 166 177 181 144 170 201 193 219 193 170 168 191 223 173 213 191 177 208 178 216 180 200 154 181 200 190 245 245
188 188 185 181 187 198 193 193 190 191 194 130 198 197 189 179 185 193 203 193 194 198 151 209 159 200 217 188 202 204 195 197 168 215 141 190 189 163 198 212 233 218 227
190 193 171 203 208 201 201 191 198 216 206 200 201 202 176 172 190 207 209 193 190 200 178 192 191 178 181 199 216 201 186 167 203 184 183 170 203 194 207 209 237 209 324
188 219 224 201 203 179 194 184 172 180 206 157 170 200 200 209 175 175 202 188 190 200 168 197 152 201 211 162 159 169 175 197 204 183 210 201 202 208 231 241 249 244 228
211 207 202 199 193 190 196 200 216 204 205 199 196 202 203 215 212 197 194 201 190 177 175 147 187 181 197 199 196 176 177 197 191 199 200 198 196 198 240 238 236 312 243
195 193 190 187 214 182 172 171 187 188 203 160 191 174 179 205 197 151 177 204 171 146 177 196 190 197 186 172 182 206 186 197 195 184 203 169 183 229 236 254 288 248 340
206 205 201 219 198 203 211 212 190 169 217 206 162 185 206 201 208 155 203 197 204 207 187 163 201 198 172 209 187 190 213 189 204 173 205 216 218 239 247 241 245 327 354
218 198 213 209 207 217 192 161 194 187 159 182 155 215 181 181 161 208 199 182 186 190 182 179 171 198 200 180 189 187 205 197 208 209 190 205 224 242 241 309 277 319 328
213 201 195 197 200 186 197 182 185 188 190 203 195 202 201 212 196 197 198 199 194 194 190 192 184 185 184 201 208 192 189 205 207 209 199 225 240 231 274 261 304 306 320
204 217 209 186 208 216 217 203 205 207 218 208 209 204 226 206 205 194 211 210 185 189 190 212 203 197 186 192 203 184 221 205 185 204 225 198 196 276 245 284 311 299 310
218 225 226 218 207 214 232 224 212 194 193 205 195 186 195 218 183 184 178 177 179 179 184 207 196 196 211 209 213 213 209 220 213 222 234 215 244 291 296 282 297 287 319

GFSMA_2pvu_pres_093.txt.gz
Presure
142 151 152 136 124 125 173 178 157 125 185 183 166 94 178 174 142 162 144 164 110 185 165 171 164 153 134 148 153 158 143 160 157 178 162 146 157 146 182 157 170 163 189
131 157 136 137 142 143 146 163 154 167 174 171 128 194 186 144 172 146 77 144 153 174 181 163 170 146 174 142 179 177 163 170 170 163 142 144 155 154 126 177 143 168 208
118 125 134 159 134 138 140 161 151 155 170 163 184 201 118 126 133 187 156 128 180 157 163 172 166 172 157 178 167 158 157 164 156 157 163 150 149 141 163 152 163 153 188
125 129 126 133 135 126 143 137 137 133 170 170 172 178 168 139 174 169 153 117 134 153 163 157 129 158 138 179 189 154 137 169 137 174 153 136 169 150 192 155 193 135 200
121 138 122 113 128 147 143 149 134 141 162 158 170 155 189 173 172 144 114 158 155 144 140 134 159 155 172 199 151 153 142 151 142 141 148 148 144 201 164 168 169 201 170
124 127 139 130 112 119 131 122 144 158 179 153 165 174 180 172 172 186 154 171 186 153 160 139 126 159 102 127 179 148 187 149 142 148 163 145 158 160 194 199 176 183 173
117 117 141 114 114 119 117 145 140 149 169 159 185 153 180 185 168 170 173 181 187 173 158 101 171 167 171 185 121 137 128 136 135 141 123 145 183 154 190 175 122 165 190
138 108 141 136 127 131 133 129 143 141 146 165 173 162 168 115 174 157 187 180 173 172 160 136 183 135 169 148 124 137 144 158 153 164 198 155 135 150 142 129 180 184 171
124 142 132 134 130 142 137 141 139 144 136 190 173 139 185 129 169 190 189 173 178 175 169 165 194 119 174 149 172 136 144 187 186 141 146 174 171 194 205 182 138 203 163
146 135 140 147 143 133 147 141 149 152 156 156 184 181 190 171 174 169 192 189 140 138 163 186 143 135 140 131 147 190 152 153 135 152 171 146 193 187 181 126 178 165 176
187 137 135 151 132 141 136 148 151 118 182 185 203 147 187 163 187 128 154 184 141 189 201 182 158 160 152 196 136 151 171 208 165 144 165 211 211 180 208 141 163 152 195
136 141 143 130 142 157 149 144 156 161 159 152 175 172 172 125 175 139 179 124 143 171 189 189 134 187 182 188 149 166 204 157 187 201 183 196 150 161 190 142 183 204 175
143 141 129 135 146 143 161 165 165 170 150 157 177 189 183 193 157 145 190 135 172 162 133 185 144 130 171 200 152 155 166 187 174 164 167 173 204 190 162 148 144 177 150
147 141 136 145 145 183 160 165 154 174 191 172 181 176 177 189 180 182 170 190 184 194 135 193 178 179 186 202 165 204 188 161 155 205 176 184 185 154 195 200 198 187 190
142 140 155 151 182 155 163 197 165 194 178 175 178 170 188 199 167 163 184 184 191 171 149 196 151 182 203 169 159 199 187 216 171 171 199 203 180 194 137 182 182 186 165
150 151 187 165 185 190 163 155 165 174 202 190 187 176 189 189 167 186 184 189 177 206 196 194 187 168 190 207 219 140 221 188 201 202 201 198 178 197 190 212 187 194 194
160 170 163 205 175 181 188 189 210 170 189 190 169 195 171 189 181 183 195 188 204 188 175 175 210 207 200 185 208 205 174 188 189 199 198 174 194 204 182 189 177 182 180
212 202 191 179 175 192 211 190 171 174 170 169 163 170 151 160 189 182 179 205 198 193 190 195 200 201 166 151 230 179 210 211 202 200 174 189 181 186 194 198 140 160 200
191 187 201 215 215 212 190 196 196 175 195 190 185 154 200 191 189 191 191 184 211 184 192 190 185 200 197 185 213 173 210 203 205 195 200 196 200 202 188 192 194 195 204
182 189 193 183 196 168 171 188 193 188 194 198 193 192 185 191 189 191 209 193 177 183 192 206 196 207 190 150 171 180 213 199 192 174 198 146 197 186 197 191 195 195 217
208 201 192 203 204 194 210 205 188 183 196 216 187 199 172 165 194 170 169 204 220 197 159 146 149 164 201 185 203 151 158 143 191 203 189 188 193 197 192 191 194 215 208
195 191 190 192 184 175 169 178 204 199 191 201 225 216 187 207 224 205 217 185 183 186 160 162 209 202 204 164 205 185 205 200 201 207 202 217 181 204 199 208 204 218 217
200 207 210 185 208 203 213 206 213 201 205 189 192 191 192 193 185 196 190 179 195 194 217 197 192 202 207 179 196 192 187 183 198 194 205 211 187 205 188 216 202 217 209
214 207 202 228 211 204 227 213 208 200 218 206 204 209 207 181 196 193 197 198 187 197 213 202 203 175 183 191 193 197 203 196 196 203 200 202 201 214 202 194 219 214 254
236 227 227 226 219 223 227 218 214 213 182 187 194 215 190 191 189 196 200 185 203 221 214 198 200 195 184 182 192 199 188 192 194 187 199 202 207 199 211 223 235 256 274
217 215 211 223 223 225 217 218 226 218 216 219 215 222 204 211 201 210 223 212 218 206 180 206 192 188 197 203 208 204 210 203 196 202 201 208 203 211 221 273 252 281 271

GFSMA_2pvu_pres_096.txt.gz
Presure
108 132 129 128 122 126 144 145 144 144 142 156 159 163 151 179 174 176 158 176 129 160 170 132 100 173 133 132 176 171 151 176 182 156 155 171 161 151 153 175 153 149 153
125 138 112 126 124 125 125 125 126 137 124 137 177 152 151 152 163 157 172 150 170 140 116 178 115 121 160 167 152 150 161 146 174 150 157 148 149 151 145 152 152 157 154
133 126 129 121 126 128 120 125 119 123 138 141 141 141 130 142 142 193 173 162 196 175 168 127 115 158 134 156 130 157 176 104 158 149 164 158 152 161 149 170 149 189 169
118 127 140 121 132 111 125 145 116 121 117 123 121 137 125 158 148 183 153 117 174 190 167 183 171 175 180 149 156 131 167 164 168 129 147 119 136 156 156 136 170 230 153
139 132 127 131 118 130 125 120 121 137 117 113 120 127 134 138 163 185 175 153 149 176 182 169 172 177 181 141 171 150 183 161 169 136 125 121 154 135 157 180 168 164 182
162 118 112 117 128 117 140 136 118 132 117 142 126 131 129 140 139 138 171 152 150 169 192 148 123 180 156 181 173 135 145 159 148 177 172 135 142 178 171 204 181 140 175
155 193 126 124 106 134 149 107 116 144 135 136 140 130 135 132 137 144 165 111 128 189 151 153 177 176 183 179 185 179 111 128 125 141 126 141 130 181 132 212 137 145 138
199 79 178 125 149 133 142 110 124 133 141 121 134 131 141 137 177 135 160 154 176 192 178 178 172 175 169 191 184 176 162 144 135 135 168 134 128 132 214 159 184 187 148
116 164 173 152 120 134 134 128 171 124 134 136 135 120 140 144 131 149 151 168 174 160 145 192 171 157 173 158 175 160 123 195 124 136 154 175 198 162 138 174 159 143 163
147 169 110 111 133 128 136 127 127 133 142 129 135 140 137 144 149 158 142 175 150 185 166 188 179 183 156 184 182 172 170 169 182 131 163 145 147 153 191 148 179 178 194
147 164 157 154 170 125 144 163 137 134 133 128 141 136 143 188 159 185 150 148 145 163 206 173 148 177 170 163 169 191 168 138 135 183 163 185 163 207 210 149 153 189 196
158 204 179 175 158 145 148 165 136 146 139 142 140 139 141 150 173 162 202 179 167 170 165 166 177 158 168 130 188 183 138 157 131 167 148 206 180 223 190 178 185 168 160
163 179 139 159 176 221 163 170 153 150 135 135 142 141 143 161 156 185 185 191 179 172 184 182 184 178 174 177 137 167 154 190 185 178 195 140 167 160 165 174 144 187 153
213 154 212 168 210 175 166 167 144 131 140 149 140 132 169 164 187 177 184 198 174 172 175 174 189 188 202 181 185 179 180 158 218 200 143 214 205 207 168 175 147 214 177
166 169 146 151 159 149 188 156 156 168 142 135 140 163 166 186 191 180 177 199 185 201 166 190 171 195 209 174 197 195 194 180 187 213 190 201 181 209 150 162 206 201 140
216 176 204 159 216 142 188 173 139 137 162 159 144 180 204 201 160 187 165 189 187 202 166 176 175 183 185 191 195 197 184 193 168 207 220 200 183 166 177 181 192 200 173
153 208 154 162 162 149 180 150 152 144 150 160 191 184 171 192 186 185 199 190 191 205 190 197 194 190 192 196 191 161 175 190 200 194 192 215 126 175 190 209 179 186 209
217 214 179 203 166 152 175 159 160 192 159 181 189 180 165 181 192 185 182 160 183 184 200 180 184 193 169 178 178 203 197 220 203 191 186 201 169 188 189 198 206 200 172
208 236 207 215 187 203 207 197 212 204 185 186 198 191 182 181 184 179 163 150 172 189 182 182 192 178 168 197 172 215 205 178 211 212 147 192 220 189 193 207 202 203 202
158 152 221 126 195 210 172 185 183 194 180 191 193 176 190 184 188 194 187 198 194 198 171 192 194 193 196 197 205 187 165 172 185 154 187 197 200 195 209 202 184 132 166
236 197 229 200 201 198 196 194 211 198 203 222 223 219 194 194 173 203 172 210 200 203 196 193 206 190 160 187 185 144 155 202 180 188 218 209 160 189 185 206 196 175 182
217 238 194 217 187 182 217 200 181 204 201 204 200 202 213 210 204 199 189 216 205 203 205 202 206 197 200 206 172 213 206 197 211 233 197 207 187 190 206 187 204 196 205
241 239 225 225 221 224 197 207 183 193 193 208 202 199 193 209 200 198 203 192 193 202 212 222 225 182 174 233 193 215 217 186 199 178 199 184 188 198 198 200 203 195 204
224 231 240 214 194 220 224 221 217 212 204 208 215 205 211 208 213 203 206 201 224 217 189 207 236 170 211 199 220 199 199 187 201 201 208 190 192 196 197 203 205 207 207
231 190 195 225 227 216 219 228 192 222 218 220 219 210 212 212 228 201 201 192 210 215 226 211 229 211 207 219 195 189 193 192 189 189 204 195 202 192 203 206 196 201 202
234 222 230 231 198 198 205 230 227 223 222 218 233 236 185 235 206 212 199 193 208 202 218 204 195 195 195 222 202 194 210 202 204 197 196 192 201 200 203 203 188 206 211

GFSMA_2pvu_pres_099.txt.gz
Presure
123 121 121 140 109 118 120 124 122 124 126 125 122 123 134 131 126 116 130 146 132 176 132 180 154 181 196 168 154 144 157 131 153 169 163 179 143 178 146 162 150 145 140
124 126 117 129 153 132 111 115 125 147 122 127 128 119 117 122 117 132 132 144 124 185 139 137 161 174 182 162 165 179 186 178 157 166 126 115 150 136 176 146 140 161 135
115 104 110 142 130 119 118 131 123 119 111 119 118 116 128 116 114 126 120 126 138 123 133 193 139 156 165 177 157 167 180 183 154 138 138 133 160 168 162 184 131 141 189
151 123 121 108 131 127 139 145 129 146 131 122 123 133 140 110 130 135 130 127 129 123 139 127 167 159 155 164 170 177 176 159 167 140 164 170 145 133 128 181 164 143 144
134 195 143 142 148 135 144 150 117 124 107 132 137 122 132 124 142 124 137 139 135 131 136 127 155 147 173 194 152 166 172 166 153 169 140 165 143 174 148 134 167 170 158
145 145 158 142 135 152 150 136 128 120 117 128 105 105 129 143 115 131 142 130 132 132 138 134 153 155 166 154 187 167 172 153 155 174 171 128 173 144 128 125 192 135 193
147 135 137 131 143 139 195 151 144 126 111 124 129 105 126 142 141 133 142 133 125 139 135 139 143 138 145 147 138 179 190 162 173 164 182 173 149 121 136 136 129 139 201
158 196 129 142 155 153 79 138 172 124 172 159 166 123 158 132 120 134 126 134 126 135 134 151 134 149 145 160 152 149 165 185 155 182 170 180 124 185 157 192 142 131 162
133 173 139 242 183 127 135 148 176 163 166 168 168 130 119 151 132 135 186 122 134 129 147 144 144 170 170 166 162 202 151 163 182 167 183 155 177 139 180 164 188 112 193
151 150 124 126 146 209 150 155 145 161 144 148 163 149 127 155 169 125 132 202 126 131 135 142 152 152 190 163 172 163 193 173 165 191 182 130 179 144 172 183 176 212 151
104 134 182 143 150 185 150 165 197 156 155 153 168 139 133 158 163 131 126 132 124 151 136 153 149 146 205 205 173 210 190 156 176 148 182 184 129 173 171 171 140 120 194
159 157 142 134 193 141 222 195 174 213 191 172 168 151 162 152 133 129 192 127 136 144 165 146 184 160 186 168 193 188 176 183 177 159 197 187 195 169 136 191 214 167 186
166 202 152 152 140 185 192 221 233 142 162 155 139 184 150 179 154 161 132 148 160 141 142 200 188 178 206 205 175 177 187 180 200 189 192 186 178 171 185 171 182 190 173
189 155 169 197 152 145 140 191 203 129 158 167 133 144 140 137 135 145 151 143 145 137 152 162 168 182 178 185 182 192 178 181 191 196 177 192 167 171 151 196 191 180 143
182 205 197 152 212 201 224 176 206 181 208 163 155 144 170 186 215 164 158 206 162 188 154 183 186 175 163 197 207 181 179 177 196 202 189 177 183 194 187 178 216 187 208
191 172 180 150 252 156 153 200 200 164 151 172 160 151 155 144 185 192 174 153 150 197 165 199 186 184 184 206 162 182 190 191 175 204 181 191 197 178 183 184 192 213 206
218 196 179 187 206 209 229 204 223 196 222 217 209 206 170 154 191 167 202 174 175 197 190 168 191 204 190 177 184 192 185 181 181 180 199 197 195 177 177 183 234 205 181
211 212 205 193 214 221 230 219 210 189 214 216 154 219 166 207 171 161 171 189 172 167 186 197 210 194 201 193 214 185 171 172 184 175 195 202 179 173 198 184 181 206 216
170 220 241 234 205 169 237 226 210 213 201 193 199 207 212 198 186 204 197 180 173 204 206 213 183 183 182 182 193 167 188 192 207 196 192 195 175 175 202 210 197 173 135
226 239 229 189 188 200 230 205 195 173 188 197 187 193 205 191 194 201 166 190 220 200 190 204 208 188 190 185 173 186 172 201 192 206 174 179 168 160 193 209 173 184 203
219 237 210 216 200 209 219 209 216 196 187 202 181 188 203 202 213 217 208 198 189 177 189 194 187 185 198 179 198 203 200 198 201 204 187 201 161 197 212 207 212 194 214
227 234 213 215 226 252 242 239 257 223 227 182 223 206 206 204 224 179 203 171 184 171 191 203 180 179 189 191 207 193 191 212 190 162 189 202 205 226 205 194 196 204 218
234 220 211 223 225 226 212 219 217 228 236 217 207 205 203 204 211 204 203 204 209 206 209 212 213 202 204 211 212 195 202 209 198 227 181 194 198 210 175 185 191 200 212
224 242 240 226 222 211 223 234 222 198 218 221 223 222 225 224 219 198 228 212 203 203 198 180 207 222 203 210 195 222 207 194 221 205 214 220 210 196 189 189 197 203 207
192 235 162 213 212 171 202 238 238 233 229 228 226 185 199 212 215 215 203 213 177 184 200 213 215 201 193 206 208 201 208 212 224 214 209 209 193 187 187 201 198 195 204
248 247 241 217 220 186 192 228 228 230 220 202 212 235 229 229 231 218 215 214 215 213 216 220 218 227 223 221 214 195 191 193 214 193 194 184 202 206 209 218 205 195 203

GFSMA_2pvu_pres_102.txt.gz
Presure
138 116 124 111 132 128 113 138 121 129 116 118 120 141 123 132 119 131 117 117 121 115 117 118 124 123 133 130 107 130 168 170 158 154 170 183 177 155 167 160 147 139 170
111 121 114 102 117 116 114 115 118 141 122 119 124 125 118 125 120 121 124 137 113 131 124 117 127 117 128 126 132 140 165 171 144 187 161 157 153 164 174 163 150 165 180
131 103 121 113 105 106 113 148 112 122 121 125 134 124 127 123 135 129 131 111 126 127 113 130 118 127 123 133 132 134 156 165 153 170 153 160 161 167 162 179 169 159 177
102 183 105 101 114 106 169 103 139 149 155 138 130 141 141 117 129 127 126 124 149 121 126 122 127 118 128 117 121 131 141 140 142 150 194 188 175 163 163 171 159 172 131
132 126 158 108 131 198 180 117 153 120 117 119 132 121 122 148 129 159 106 106 124 147 124 123 122 129 136 128 133 133 132 135 138 161 155 162 179 146 175 141 171 164 147
128 179 141 138 150 156 159 113 153 166 135 104 133 155 118 133 140 153 119 104 127 110 161 129 125 116 126 130 136 133 128 153 143 137 165 202 159 192 156 171 141 182 167
158 182 168 127 144 135 135 162 150 120 144 84 86 192 198 162 109 113 166 117 167 124 150 114 126 124 126 131 136 134 135 135 144 157 160 162 180 168 193 173 183 156 174
142 125 172 128 158 143 152 147 196 150 172 134 148 160 149 167 125 177 162 135 120 121 160 168 124 118 122 126 130 133 137 135 135 195 158 158 173 174 177 177 194 187 123
123 154 216 131 108 165 151 157 164 109 142 167 142 142 138 132 147 115 153 147 147 139 124 153 151 117 116 128 136 134 139 174 160 189 154 188 162 171 205 172 184 182 160
151 167 148 122 160 156 150 138 146 178 132 138 144 223 149 139 147 166 190 141 150 138 154 156 149 160 118 152 134 128 142 207 189 174 163 208 171 170 187 206 184 158 167
142 121 139 140 158 140 173 152 122 177 153 159 139 139 221 120 132 173 147 147 171 168 130 160 147 152 139 134 142 131 138 175 153 176 170 181 197 162 180 181 177 193 162
134 146 124 138 143 138 156 139 172 135 173 159 129 154 154 200 153 198 140 138 196 141 138 148 131 154 140 133 140 135 159 181 189 185 167 200 200 166 193 171 194 167 191
145 141 205 147 131 177 194 197 135 112 165 146 114 140 131 209 210 209 199 172 136 192 132 132 153 187 174 165 155 197 156 171 178 183 170 209 170 157 190 185 182 161 198
149 160 148 148 158 151 142 146 156 129 132 159 125 144 213 212 134 207 202 201 148 150 139 130 125 198 164 169 145 141 195 144 194 188 189 175 157 168 202 195 188 190 193
263 153 244 237 192 155 168 183 246 188 229 172 181 154 216 144 140 153 144 137 148 176 190 137 149 162 150 142 214 200 162 173 188 185 179 203 192 205 175 200 181 191 197
258 252 231 174 263 241 284 147 240 226 189 177 199 204 152 206 222 172 178 210 182 212 185 184 152 155 168 234 156 191 178 193 209 199 189 180 191 176 178 181 188 194 204
285 277 283 280 286 275 191 245 188 219 203 195 188 203 212 171 209 193 205 214 230 225 133 206 225 171 214 180 185 203 170 178 191 214 191 178 199 178 166 194 184 189 189
280 282 274 280 273 253 269 181 212 199 203 184 188 192 206 214 225 239 236 225 235 221 184 225 208 207 211 206 163 218 175 184 190 190 174 200 191 203 179 178 185 202 205
267 266 260 260 253 248 213 204 203 221 198 157 175 190 187 207 213 206 207 206 198 184 171 178 169 179 214 207 173 170 202 190 212 189 169 180 202 188 166 191 170 210 174
242 228 246 236 256 260 239 204 193 179 191 189 178 203 176 161 184 202 202 201 200 202 200 198 183 184 186 185 193 206 216 206 183 180 200 193 185 182 178 196 187 199 185
266 229 262 239 215 232 257 244 253 232 204 210 198 206 207 208 177 202 207 223 194 205 210 191 195 200 199 209 181 194 203 198 186 180 179 184 192 198 206 205 187 207 213
238 235 221 222 240 231 253 250 234 238 249 240 184 216 181 171 178 182 203 212 207 197 197 201 193 192 186 182 176 180 205 211 169 214 186 203 200 215 175 184 200 207 213
250 242 234 218 240 238 228 229 234 234 232 233 253 218 237 225 221 220 207 204 193 189 186 202 190 195 198 197 196 207 200 194 191 171 182 202 207 205 175 199 222 220 205
244 155 213 163 135 234 170 211 230 237 223 213 224 186 187 218 225 216 187 213 207 216 208 194 191 231 215 204 197 227 212 228 206 197 228 207 233 219 216 220 203 223 204
143 145 159 168 150 151 158 134 222 243 194 229 225 225 224 229 239 237 228 226 211 205 213 218 214 203 200 207 211 227 208 197 209 221 200 203 201 211 221 214 227 208 205
200 198 145 134 163 103 169 172 190 191 228 217 218 198 233 239 195 203 236 231 233 197 220 222 203 205 196 213 208 212 193 187 219 198 195 202 216 203 208 219 194 195 195

GFSMA_2pvu_pres_105.txt.gz
Presure
105 111 153 125 111 85 117 93 116 104 102 135 123 132 122 123 125 121 135 124 115 107 120 105 112 149 117 131 111 117 124 127 120 133 137 134 147 141 139 174 165 158 167
148 118 138 130 110 120 120 112 96 110 108 119 129 116 118 126 145 134 119 124 117 113 118 108 120 125 120 139 126 112 114 123 128 131 131 143 140 143 134 137 179 158 181
117 135 104 93 136 114 149 117 110 110 103 103 111 131 123 110 141 131 133 141 89 126 123 151 144 133 109 129 115 137 153 120 120 131 128 133 133 153 142 180 184 173 169
138 203 136 103 94 162 107 108 103 109 110 110 105 181 109 154 119 136 119 126 123 154 130 113 138 132 114 138 146 110 113 114 114 132 158 129 141 141 164 148 144 161 199
143 148 155 180 135 99 109 143 141 110 107 101 148 165 189 118 138 141 127 127 146 128 139 136 145 156 121 107 140 124 123 116 122 123 139 126 130 152 135 170 151 168 174
148 172 145 210 160 138 131 191 160 140 142 152 152 158 111 165 158 87 141 170 125 155 121 124 158 135 120 155 112 152 121 114 112 116 142 132 145 134 161 159 182 164 176
134 144 164 130 150 150 133 147 192 150 132 95 164 107 173 123 149 136 191 202 181 186 180 154 105 160 114 141 124 127 118 119 118 118 130 126 132 142 141 209 185 190 164
148 144 133 187 147 148 142 129 179 118 134 148 141 150 177 143 179 143 145 151 149 136 151 142 154 134 104 147 121 157 126 150 137 117 137 130 129 129 146 171 169 157 196
175 145 139 167 135 131 173 130 153 136 148 142 145 125 120 146 140 128 130 156 183 179 141 158 148 169 148 132 150 156 161 118 167 123 144 139 131 133 150 145 193 162 213
133 144 175 171 140 149 130 186 150 193 134 185 150 132 131 189 150 133 126 146 108 203 124 138 154 161 150 199 153 171 142 144 154 139 122 138 165 167 168 186 177 191 170
150 141 142 148 152 160 139 159 128 155 142 144 132 159 160 140 200 149 185 169 136 145 154 143 131 139 132 221 128 204 166 149 163 129 140 184 135 203 151 201 192 189 151
136 173 162 142 121 141 179 162 148 139 123 176 126 143 146 123 139 124 139 133 119 154 156 187 204 214 180 209 213 159 124 145 129 181 189 162 126 147 196 144 198 186 187
140 137 136 138 160 137 132 134 196 192 131 215 120 147 129 139 133 119 130 121 126 148 169 165 135 212 221 195 126 143 130 183 152 147 170 189 162 199 201 184 190 179 183
166 131 150 152 140 132 125 125 132 142 147 244 180 193 219 160 135 126 113 140 166 116 131 149 142 195 152 158 133 139 203 196 135 184 154 143 168 164 141 183 182 179 185
134 134 134 135 136 137 145 138 136 243 217 191 179 207 184 124 158 153 122 140 183 174 206 153 144 169 202 207 135 196 130 195 167 143 190 183 186 204 175 171 191 178 209
267 142 251 232 228 230 205 212 279 145 247 251 205 224 235 233 203 213 248 184 140 206 175 195 194 204 210 205 202 201 193 145 141 167 197 196 223 198 189 190 164 175 207
270 283 285 167 145 290 238 145 258 253 242 229 238 229 217 230 164 247 223 189 212 192 210 216 206 197 196 205 205 202 204 209 207 206 161 176 212 208 213 171 159 186 212
307 282 274 272 277 270 262 255 252 249 239 203 248 279 252 246 183 222 210 194 209 201 189 190 191 206 210 209 199 190 198 213 205 166 155 160 196 187 190 189 194 190 218
287 279 277 279 286 282 279 262 238 282 253 268 253 166 165 232 226 199 184 227 215 206 182 190 171 201 197 209 228 222 194 218 199 205 204 201 173 187 179 185 186 213 182
219 200 265 265 272 274 267 260 252 250 253 255 250 247 241 208 215 215 200 203 210 189 199 190 189 169 137 185 215 213 181 207 192 204 197 198 193 202 204 189 193 180 174
262 259 267 266 267 265 268 245 249 208 198 242 251 241 230 205 211 217 202 214 207 222 208 193 226 218 217 217 200 212 211 198 210 203 195 192 206 197 186 164 198 204 207
273 216 248 246 244 259 258 242 185 240 254 194 247 244 236 241 250 228 204 215 197 198 233 215 202 214 172 165 178 194 199 200 172 221 210 230 197 213 192 198 184 191 193
260 116 153 153 252 255 260 252 254 257 198 218 203 237 236 156 234 230 241 199 199 209 234 224 214 212 215 207 201 193 184 193 195 198 205 210 194 198 211 212 204 205 208
171 196 138 154 223 203 148 261 257 189 165 201 201 151 157 169 206 244 198 231 225 224 221 224 234 202 209 202 215 217 212 212 215 201 211 210 188 192 198 238 230 230 231
140 202 229 216 143 175 225 214 142 155 196 162 161 145 183 207 231 188 199 221 221 237 233 193 225 224 220 197 213 208 221 224 193 233 229 229 209 223 204 202 209 201 205
204 218 220 193 194 166 248 216 201 179 228 169 162 208 204 203 257 229 238 243 223 225 236 233 203 198 218 220 216 206 215 202 203 221 224 221 198 198 201 215 208 217 214

GFSMA_2pvu_pres_108.txt.gz
Presure
136 137 120 128 112 101 150 114 101 125 97 95 105 101 113 113 112 114 118 125 121 130 138 126 124 137 123 138 119 118 126 127 142 129 118 118 128 125 127 132 163 130 171
132 117 148 127 160 110 105 104 104 142 120 133 118 148 102 123 109 140 100 111 122 138 130 133 122 118 132 135 127 120 130 150 123 139 133 142 132 122 123 137 124 132 135
143 139 185 156 134 122 169 124 93 133 103 107 115 173 104 109 103 140 153 143 118 106 137 124 150 125 144 105 126 151 124 160 154 116 112 114 117 123 124 124 155 133 136
136 122 110 132 178 125 146 167 150 138 136 109 137 110 114 101 106 110 97 175 110 161 130 141 157 131 137 126 152 114 111 117 128 168 167 112 151 123 120 125 119 125 128
137 138 153 139 170 129 173 161 175 159 174 144 111 107 156 153 197 122 151 162 144 106 163 150 185 173 168 168 119 121 152 116 113 119 150 135 118 149 128 124 123 133 135
118 146 181 142 164 152 138 133 146 116 130 128 138 157 190 96 135 146 150 151 128 168 133 155 148 117 147 191 169 168 124 155 124 139 151 146 117 110 125 134 128 145 129
150 135 135 157 145 125 84 132 201 135 154 156 167 140 86 206 128 167 145 146 147 143 165 138 142 180 149 146 139 144 141 145 164 130 111 157 154 138 138 150 112 157 140
155 144 139 128 140 126 121 157 141 162 169 140 131 122 202 134 131 136 127 148 130 98 168 127 150 144 148 175 173 165 157 143 186 134 125 162 148 167 136 151 134 170 136
132 122 131 141 125 140 140 131 166 120 131 174 137 126 184 163 122 161 157 137 143 147 198 142 129 128 141 131 175 124 157 196 186 165 172 143 163 121 180 135 127 154 157
109 130 132 134 123 129 147 190 125 134 152 138 129 128 141 136 140 142 141 141 181 150 169 150 126 120 158 138 143 134 113 121 181 202 122 170 126 129 123 166 134 147 171
144 135 127 126 122 127 150 142 143 136 133 127 147 132 105 129 134 115 192 123 99 112 119 134 192 180 129 124 128 138 159 135 135 119 172 183 208 204 140 147 112 187 149
124 124 146 147 121 129 152 129 128 133 134 137 127 147 127 168 162 124 174 131 142 174 150 132 146 124 156 111 183 162 159 206 128 203 205 198 199 190 146 128 124 129 142
147 174 138 138 137 170 135 139 138 137 130 162 134 124 132 134 148 208 118 145 148 133 180 142 120 196 129 162 115 191 134 152 122 136 182 128 196 125 129 161 188 153 182
142 143 138 137 138 143 160 157 132 135 160 136 132 131 130 129 133 167 166 206 206 237 135 140 130 219 133 124 134 117 179 127 183 180 198 197 178 189 191 195 141 185 143
142 138 139 135 154 262 142 141 146 133 135 133 134 134 134 140 128 188 145 184 209 155 166 190 128 231 168 158 174 160 181 172 192 209 162 198 190 190 212 191 191 144 193
144 146 210 144 143 143 144 215 181 223 172 190 196 199 200 206 178 136 178 155 214 155 142 176 190 241 224 222 234 192 207 211 194 203 194 186 192 193 174 191 192 190 169
148 296 235 212 234 186 265 258 214 240 236 230 228 216 215 219 194 202 198 218 247 237 235 201 240 224 194 220 220 212 190 211 188 198 195 191 190 196 199 198 185 188 165
307 317 302 303 286 297 304 301 298 286 289 278 255 280 246 158 252 264 251 249 247 234 225 226 214 242 200 238 219 202 221 203 199 194 202 204 188 195 199 187 178 184 233
307 303 292 291 286 292 289 281 277 279 272 256 245 278 282 269 278 249 248 242 237 233 243 220 224 251 226 238 226 209 203 214 194 195 198 203 194 198 205 201 205 231 208
251 288 293 291 293 290 289 225 218 287 288 274 273 256 254 251 275 258 250 232 250 238 228 241 207 242 235 236 224 213 204 188 171 177 187 205 189 181 192 200 195 187 205
267 164 234 274 276 208 276 229 278 275 272 263 284 263 261 262 253 251 258 240 233 244 250 241 240 241 197 229 212 192 215 221 202 214 199 173 187 207 214 222 225 203 198
155 128 261 259 256 264 262 260 266 265 271 265 264 257 249 254 253 242 172 226 241 249 243 248 191 240 232 187 207 193 207 207 210 221 203 199 211 224 163 229 195 203 194
263 140 172 150 263 151 150 250 150 246 142 154 214 253 259 250 236 197 209 239 239 209 152 127 126 144 153 156 205 181 213 213 210 225 211 219 206 213 216 214 216 208 207
154 161 126 139 200 155 132 199 239 239 226 220 242 245 246 250 251 118 147 195 246 159 159 194 230 163 229 195 237 224 215 190 208 213 222 210 212 205 203 200 204 206 198
180 139 200 199 195 211 228 220 216 209 211 217 204 204 156 177 217 224 151 221 242 214 158 222 242 232 192 189 222 226 216 192 239 230 232 232 207 172 210 216 213 225 218
211 218 223 231 227 222 221 233 231 209 217 190 173 195 199 222 184 190 210 248 227 210 166 174 173 233 223 205 233 210 223 232 221 191 210 221 226 225 222 228 215 193 187

GFSMA_2pvu_pres_111.txt.gz
Presure
136 143 132 136 129 152 142 125 136 107 117 98 112 114 131 144 91 133 132 121 124 121 107 110 117 130 112 119 123 134 119 142 138 139 123 105 132 129 135 149 128 133 125
124 169 153 131 119 134 155 119 107 95 122 105 99 109 109 113 101 120 125 115 112 113 102 147 110 112 115 125 135 139 145 131 118 132 142 149 109 112 117 121 129 171 127
143 150 183 189 152 202 126 133 137 119 139 177 151 110 142 208 121 109 102 100 119 130 144 118 163 146 179 179 144 154 148 154 135 138 154 158 126 140 132 142 111 129 112
164 200 119 206 153 146 116 113 113 114 104 107 145 155 131 153 186 169 110 130 137 157 195 131 95 171 144 126 135 129 120 194 163 188 151 140 174 130 140 121 140 119 138
153 138 115 117 138 154 133 172 125 145 169 152 185 83 134 177 137 142 136 211 179 183 119 214 148 145 133 153 142 154 149 148 141 140 137 158 112 154 145 184 125 142 112
145 149 126 126 154 154 104 191 150 124 145 184 129 133 145 141 143 141 140 134 147 181 190 150 137 134 141 144 129 160 134 139 134 167 160 126 170 141 163 156 144 124 127
147 165 145 149 154 137 134 153 133 143 126 181 136 141 160 116 140 131 163 128 126 163 136 136 156 142 153 137 155 145 136 127 142 102 154 175 140 184 210 203 183 126 150
133 169 140 145 149 150 154 136 135 193 160 117 139 127 160 124 130 136 121 131 145 170 182 121 162 179 122 151 170 165 136 152 112 143 139 139 138 132 151 181 177 160 176
125 178 131 147 140 116 144 141 110 119 145 140 115 150 143 138 177 138 128 152 134 144 187 136 154 130 162 154 126 170 157 120 192 130 124 175 123 141 155 128 183 155 155
139 127 143 158 125 140 137 135 144 130 148 115 136 144 142 174 141 126 161 131 129 136 162 122 190 178 183 145 133 131 172 124 215 133 169 146 121 118 151 140 145 211 177
143 134 127 138 135 140 143 126 123 144 133 133 150 141 153 151 154 135 131 144 163 140 127 198 131 145 123 201 189 161 156 182 124 127 116 135 160 117 181 147 128 134 124
120 125 116 134 127 145 130 113 135 122 126 182 125 132 134 154 135 147 135 155 129 146 133 123 186 140 145 130 131 203 131 136 132 163 133 147 147 144 140 179 133 181 188
129 134 129 126 128 129 143 130 148 197 151 133 125 133 129 148 136 134 126 159 142 137 141 136 135 128 172 129 194 157 132 249 136 125 198 125 126 158 189 217 186 195 163
160 141 119 135 127 143 220 144 143 125 128 128 133 135 139 138 138 133 168 146 173 136 135 132 132 132 126 137 135 175 127 229 231 147 226 202 188 211 146 149 188 211 183
140 125 123 141 135 135 134 130 138 133 139 138 136 157 195 143 142 204 147 173 151 136 165 189 192 195 188 143 182 144 146 225 212 141 209 206 199 165 192 188 193 207 194
133 136 136 127 128 135 131 131 128 140 137 182 182 147 144 141 136 135 138 184 204 182 184 183 188 190 193 205 199 165 209 243 231 212 179 210 163 127 163 162 182 195 154
149 160 160 144 146 147 149 211 147 144 146 146 141 143 203 251 244 232 233 217 207 189 206 191 205 203 209 204 219 165 229 235 231 220 201 238 204 194 181 197 154 191 187
159 162 145 144 151 161 145 141 141 143 145 144 143 150 249 255 253 278 243 240 174 233 224 220 216 216 225 236 224 239 168 164 226 216 226 221 211 199 207 210 209 184 189
144 143 143 144 145 186 311 316 320 313 175 256 281 273 232 232 233 268 215 188 262 260 181 174 287 278 161 269 254 248 233 231 221 218 230 210 209 212 202 216 186 205 188
296 292 289 287 279 290 291 295 293 293 167 178 213 272 212 283 210 267 221 163 288 275 268 269 272 256 255 244 240 235 239 232 219 219 221 205 227 221 225 219 193 180 202
270 261 267 282 288 287 286 285 290 275 286 291 289 282 283 288 282 266 278 271 270 262 260 258 247 250 247 244 236 239 234 225 225 218 215 219 229 229 221 223 218 207 205
242 236 257 266 266 266 263 270 124 128 267 271 278 269 268 276 276 270 258 252 249 262 267 254 259 255 265 262 240 137 250 241 241 157 200 196 171 231 217 193 191 210 192
227 131 134 269 185 138 239 251 173 134 251 251 259 249 260 231 141 258 135 172 151 153 237 165 248 247 233 252 163 215 206 208 175 163 171 229 144 221 207 169 173 202 202
166 168 221 265 182 160 209 145 192 160 201 138 147 159 149 155 161 217 241 240 228 248 248 234 159 242 244 196 151 150 239 164 159 195 158 159 171 219 221 208 204 207 186
221 222 220 216 214 216 163 161 162 201 182 152 228 234 237 237 241 243 243 247 186 248 200 201 179 164 204 239 224 235 211 156 198 162 147 223 223 227 213 209 217 218 217
236 238 239 238 224 221 221 215 220 208 217 228 224 223 223 227 226 224 222 248 203 169 232 185 197 195 179 148 151 220 236 240 241 233 183 202 219 219 228 230 229 229 232

GFSMA_2pvu_pres_114.txt.gz
Presure
142 153 128 140 128 132 151 122 107 135 142 132 122 125 107 119 147 115 102 121 115 117 102 98 132 110 150 139 150 162 154 161 152 130 137 143 146 148 157 162 141 167 157
127 127 140 113 136 128 120 120 120 130 126 141 111 121 129 112 145 135 131 116 143 116 124 155 135 110 189 145 126 173 158 164 174 159 159 150 141 153 167 143 146 139 158
140 147 140 140 124 124 132 127 133 111 128 127 114 128 124 218 123 111 138 189 164 178 163 123 164 200 124 95 91 143 152 135 124 183 141 149 155 135 136 140 170 136 116
147 158 123 138 155 132 126 147 168 188 161 123 96 96 143 192 200 137 172 141 132 147 136 143 148 167 182 190 200 192 139 141 137 143 130 123 137 130 112 148 203 113 162
166 205 169 164 192 173 159 160 146 126 107 121 125 163 144 150 152 173 166 141 187 172 147 125 148 125 138 147 135 130 129 130 136 136 135 167 135 125 129 132 142 136 134
149 137 166 172 159 153 159 149 149 134 125 150 157 139 203 137 142 147 141 146 135 137 137 135 128 179 128 103 142 155 197 148 146 166 149 200 177 137 123 130 142 142 108
147 161 154 162 159 134 149 146 162 134 142 152 144 184 138 133 150 140 151 133 122 131 159 208 135 126 140 130 134 210 131 127 106 162 132 115 169 149 140 137 131 166 158
124 160 151 161 164 137 147 159 141 138 134 138 144 141 136 127 206 168 131 120 128 154 124 137 140 156 186 122 114 174 144 140 138 164 159 126 134 172 124 176 188 150 144
118 119 114 160 147 177 154 164 175 152 146 145 141 142 148 124 176 128 119 124 118 165 139 145 125 131 167 122 202 126 133 131 127 183 117 131 195 191 140 121 127 128 138
150 151 149 128 135 192 143 132 138 122 145 154 148 202 141 129 125 140 144 122 122 115 153 137 174 153 125 130 123 133 134 176 128 114 195 151 191 214 216 203 148 121 125
140 164 164 122 130 123 125 140 125 133 126 153 150 139 132 132 132 125 137 140 146 154 127 124 154 148 152 161 168 126 123 131 128 189 123 120 133 187 128 123 149 113 132
155 140 135 154 135 136 119 136 134 123 118 136 139 137 140 136 132 147 124 169 151 136 146 140 147 125 132 136 134 131 137 150 154 166 124 154 196 180 156 178 229 189 151
126 141 131 136 125 121 144 125 127 125 143 139 140 126 148 135 124 126 125 166 128 131 134 131 131 133 155 133 140 132 144 129 124 137 161 134 166 191 131 206 212 229 139
152 161 133 221 133 149 134 141 134 133 144 128 140 121 136 141 149 126 168 129 133 135 132 135 202 140 135 133 143 171 166 179 197 192 181 173 177 142 139 193 205 132 142
180 163 189 180 273 142 154 145 150 154 157 128 134 137 124 140 121 149 154 133 129 129 133 151 154 195 189 133 134 206 169 186 182 173 174 188 180 191 197 199 204 225 215
134 231 269 144 135 157 183 142 143 141 133 133 137 134 129 136 133 129 130 142 140 167 186 134 158 176 200 191 166 187 179 188 197 178 187 187 195 200 198 175 215 227 195
163 133 136 149 140 132 130 132 132 132 125 121 121 141 150 233 152 144 148 148 139 136 200 231 161 198 205 210 183 194 194 194 199 196 203 208 209 212 217 219 234 204 216
304 156 154 277 185 142 138 139 141 140 142 146 155 157 144 144 145 136 135 136 142 144 143 244 260 260 250 250 283 289 246 225 216 220 158 221 233 156 250 223 239 224 212
332 188 148 152 151 155 158 153 151 151 156 186 262 170 155 145 167 167 239 228 247 243 200 171 237 192 249 249 248 261 169 242 241 237 237 264 251 234 244 239 237 223 224
205 217 264 222 160 155 231 229 224 152 237 153 156 231 298 245 226 304 302 302 232 262 243 259 208 238 210 252 283 220 272 260 247 259 249 205 250 254 240 239 215 194 221
265 285 284 281 284 290 289 285 280 276 277 280 177 173 199 196 287 292 215 279 270 276 281 281 275 195 276 257 263 269 264 267 252 258 254 256 248 240 233 229 232 216 209
263 256 260 250 263 279 278 269 284 292 289 182 277 280 278 278 277 283 131 277 256 258 235 266 257 259 261 273 263 261 267 256 229 258 251 239 233 228 230 235 222 218 216
216 240 266 265 266 256 260 254 171 257 265 265 263 255 261 270 270 170 272 278 269 177 164 273 229 147 169 245 238 223 198 154 232 249 252 255 240 240 143 239 213 190 172
226 223 201 186 193 196 251 256 260 264 266 252 248 241 249 253 257 255 258 262 208 154 153 154 164 156 161 158 245 241 245 244 236 248 256 206 244 246 197 143 194 194 187
243 245 247 243 227 225 223 225 225 216 212 209 171 172 166 168 169 165 162 162 161 237 247 253 250 249 245 250 250 242 246 238 237 176 157 232 227 151 161 218 213 150 228
252 247 240 245 242 243 242 242 234 243 228 226 228 224 232 233 232 233 232 220 215 218 229 229 244 248 248 248 248 209 254 199 241 241 233 236 179 198 157 155 184 236 240

GFSMA_2pvu_pres_117.txt.gz
Presure
144 126 120 117 125 146 134 126 138 131 125 123 123 113 140 144 119 98 131 115 113 123 127 152 126 129 138 185 178 158 179 189 163 135 153 144 129 169 135 125 141 133 139
142 131 144 154 129 134 128 130 120 126 135 121 132 132 126 127 135 131 125 106 158 158 157 143 165 180 170 160 185 135 122 142 155 195 141 125 137 149 134 136 173 151 132
121 102 132 128 135 131 145 133 111 143 129 130 118 129 130 134 133 130 122 115 146 177 190 144 147 145 154 140 133 135 164 143 175 185 131 131 131 144 138 146 148 197 137
129 129 144 140 105 143 133 149 148 135 137 126 117 157 132 149 176 120 140 204 132 187 150 173 183 154 132 196 111 139 144 123 155 179 139 133 135 133 173 160 119 160 193
172 136 135 156 164 156 150 139 150 140 147 162 156 147 159 199 122 165 165 202 162 158 176 106 140 146 126 132 135 140 133 146 129 169 139 167 145 174 115 147 152 132 166
143 138 130 157 161 162 164 157 170 166 163 208 183 175 160 136 130 149 172 151 182 144 116 151 132 130 151 161 138 174 142 134 178 125 137 185 147 124 183 158 134 152 135
141 151 125 157 137 136 133 124 169 143 162 148 166 160 185 155 129 150 134 128 136 119 183 138 126 113 123 134 124 127 129 129 179 117 130 168 127 153 130 122 182 143 144
136 137 140 142 153 154 158 144 151 189 158 148 142 157 155 159 168 147 147 142 151 128 142 146 125 128 129 126 156 150 132 170 134 128 168 120 131 119 142 175 150 178 132
137 131 139 132 116 147 133 128 117 146 163 160 161 126 132 147 140 148 160 138 117 185 150 168 139 137 130 149 118 153 123 109 123 127 127 161 126 180 155 157 158 176 177
116 133 113 133 138 154 114 154 132 156 138 175 135 172 167 132 150 172 138 136 215 127 134 138 125 121 133 134 154 120 127 129 190 120 127 149 138 124 168 161 180 151 175
116 176 465 121 138 132 151 138 139 118 124 198 125 139 136 136 137 120 136 155 119 153 131 115 120 140 138 127 122 149 141 154 179 139 135 115 122 189 120 128 126 127 181
452 384 253 382 192 137 134 231 208 141 152 137 153 153 141 128 149 123 129 145 144 183 143 139 137 120 137 136 173 131 126 128 149 123 127 121 126 143 160 191 179 185 187
424 132 323 182 142 250 143 169 132 151 138 132 160 141 143 120 131 141 132 131 113 141 127 151 117 112 129 125 131 123 132 122 127 132 126 140 159 172 149 184 150 181 166
314 150 311 291 145 132 162 151 136 133 147 239 148 261 152 217 251 126 141 139 145 128 128 136 143 157 140 177 160 127 128 130 138 134 136 196 182 187 188 173 191 174 181
305 293 298 284 266 250 138 199 162 123 124 136 140 157 139 141 142 270 134 134 128 144 135 124 128 132 129 128 135 133 130 182 129 143 173 181 181 174 181 181 195 202 173
301 234 288 261 135 272 265 189 134 208 162 191 141 150 192 156 153 180 150 124 120 118 123 133 201 150 143 143 151 144 131 163 135 155 164 183 178 182 171 181 158 181 188
277 243 148 294 283 141 139 137 136 142 294 138 133 131 128 130 197 133 132 130 129 131 135 138 167 138 152 136 135 136 135 134 152 172 186 190 184 156 201 206 208 201 207
298 260 243 296 272 276 251 159 266 279 235 281 272 283 135 136 149 133 127 141 143 272 200 129 132 180 248 247 164 162 238 150 150 240 249 247 231 226 234 261 163 243 235
206 250 176 267 142 261 252 264 257 258 165 192 356 358 309 341 305 128 142 258 152 135 282 136 136 135 138 166 247 256 265 257 244 252 272 161 204 220 178 261 252 253 254
133 195 111 110 122 204 298 304 301 284 197 235 324 151 195 145 143 142 143 142 152 144 145 149 148 150 182 288 238 251 243 237 203 232 230 182 243 240 232 252 257 250 260
218 214 147 272 263 259 265 291 289 296 298 288 288 291 288 181 152 152 152 152 166 203 304 320 294 208 245 255 247 290 156 302 228 181 252 272 228 263 267 247 263 240 238
184 192 246 241 242 253 265 269 258 256 258 282 282 291 289 283 287 287 235 203 194 294 283 276 273 273 269 265 272 276 268 296 239 271 238 153 267 253 251 239 184 254 247
267 264 261 253 202 229 196 238 249 262 266 265 265 248 272 279 286 289 281 278 276 277 274 273 179 276 272 268 264 271 261 176 268 253 268 183 208 263 251 178 165 183 254
295 277 263 259 206 260 254 252 249 237 200 233 246 257 263 267 267 268 267 275 278 279 279 278 275 273 275 275 277 269 203 152 152 248 272 219 223 258 258 255 219 245 233
157 267 274 267 261 269 264 260 257 253 250 249 244 239 235 233 222 261 267 197 183 184 198 248 261 229 171 170 188 188 169 171 243 264 249 235 245 245 247 251 243 245 258
293 256 251 243 326 305 289 269 267 255 260 252 251 249 240 241 241 242 238 256 257 254 242 254 253 256 257 259 253 259 258 262 266 239 256 238 238 236 238 233 238 240 189